<?xml version="1.0" encoding="UTF-8" standalone="no" ?>
<gpx xmlns="http://www.topografix.com/GPX/1/1" xmlns:xsi="http://www.w3.org/2001/XMLSchema-instance" xsi:schemaLocation="http://www.topografix.com/GPX/1/1 http://www.topografix.com/GPX/1/1/gpx.xsd" version="1.1" creator="VisuGPX - https://www.visugpx.com">
  <metadata>
    <name>Guy mocquet 29/10</name>
    <desc><![CDATA[Guy mocquet 29/10]]></desc>
  </metadata>
  <trk>
    <name><![CDATA[29/10/2013 20:23]]></name>
    <desc><![CDATA[]]></desc>
    <trkseg>
      <trkpt lat="48.89315" lon="2.32762">
        <ele>92</ele>
        <time>2013-10-29T19:23:57.202Z</time>
      </trkpt>
      <trkpt lat="48.89321" lon="2.32782">
        <ele>95</ele>
        <time>2013-10-29T19:23:58.186Z</time>
      </trkpt>
      <trkpt lat="48.89323" lon="2.32789">
        <ele>95</ele>
        <time>2013-10-29T19:23:59.235Z</time>
      </trkpt>
      <trkpt lat="48.89315" lon="2.32812">
        <ele>95</ele>
        <time>2013-10-29T19:24:02.173Z</time>
      </trkpt>
      <trkpt lat="48.89313" lon="2.32817">
        <ele>95</ele>
        <time>2013-10-29T19:24:03.179Z</time>
      </trkpt>
      <trkpt lat="48.89306" lon="2.32833">
        <ele>92</ele>
        <time>2013-10-29T19:24:05.251Z</time>
      </trkpt>
      <trkpt lat="48.893" lon="2.32839">
        <ele>91</ele>
        <time>2013-10-29T19:24:06.183Z</time>
      </trkpt>
      <trkpt lat="48.8929" lon="2.32851">
        <ele>92</ele>
        <time>2013-10-29T19:24:08.180Z</time>
      </trkpt>
      <trkpt lat="48.89286" lon="2.32856">
        <ele>94</ele>
        <time>2013-10-29T19:24:09.176Z</time>
      </trkpt>
      <trkpt lat="48.89278" lon="2.32877">
        <ele>93</ele>
        <time>2013-10-29T19:24:12.178Z</time>
      </trkpt>
      <trkpt lat="48.89276" lon="2.32883">
        <ele>93</ele>
        <time>2013-10-29T19:24:13.182Z</time>
      </trkpt>
      <trkpt lat="48.89272" lon="2.32907">
        <ele>94</ele>
        <time>2013-10-29T19:24:17.340Z</time>
      </trkpt>
      <trkpt lat="48.89271" lon="2.32913">
        <ele>93</ele>
        <time>2013-10-29T19:24:18.179Z</time>
      </trkpt>
      <trkpt lat="48.89269" lon="2.32939">
        <ele>93</ele>
        <time>2013-10-29T19:24:23.181Z</time>
      </trkpt>
      <trkpt lat="48.89268" lon="2.32945">
        <ele>93</ele>
        <time>2013-10-29T19:24:24.228Z</time>
      </trkpt>
      <trkpt lat="48.89266" lon="2.32966">
        <ele>93</ele>
        <time>2013-10-29T19:24:31.168Z</time>
      </trkpt>
      <trkpt lat="48.8926" lon="2.32969">
        <ele>94</ele>
        <time>2013-10-29T19:24:33.154Z</time>
      </trkpt>
      <trkpt lat="48.89245" lon="2.32968">
        <ele>93</ele>
        <time>2013-10-29T19:24:36.480Z</time>
      </trkpt>
      <trkpt lat="48.8924" lon="2.32966">
        <ele>96</ele>
        <time>2013-10-29T19:24:37.468Z</time>
      </trkpt>
      <trkpt lat="48.89223" lon="2.32957">
        <ele>96</ele>
        <time>2013-10-29T19:24:43.481Z</time>
      </trkpt>
      <trkpt lat="48.89219" lon="2.32954">
        <ele>95</ele>
        <time>2013-10-29T19:24:44.477Z</time>
      </trkpt>
      <trkpt lat="48.89205" lon="2.32944">
        <ele>94</ele>
        <time>2013-10-29T19:24:47.514Z</time>
      </trkpt>
      <trkpt lat="48.89201" lon="2.32941">
        <ele>94</ele>
        <time>2013-10-29T19:24:48.474Z</time>
      </trkpt>
      <trkpt lat="48.89185" lon="2.32932">
        <ele>95</ele>
        <time>2013-10-29T19:24:52.477Z</time>
      </trkpt>
      <trkpt lat="48.89182" lon="2.32933">
        <ele>94</ele>
        <time>2013-10-29T19:24:53.475Z</time>
      </trkpt>
      <trkpt lat="48.89167" lon="2.32938">
        <ele>93</ele>
        <time>2013-10-29T19:24:58.482Z</time>
      </trkpt>
      <trkpt lat="48.89163" lon="2.32939">
        <ele>92</ele>
        <time>2013-10-29T19:24:59.479Z</time>
      </trkpt>
      <trkpt lat="48.89146" lon="2.32937">
        <ele>91</ele>
        <time>2013-10-29T19:25:03.419Z</time>
      </trkpt>
      <trkpt lat="48.89142" lon="2.32937">
        <ele>91</ele>
        <time>2013-10-29T19:25:04.470Z</time>
      </trkpt>
      <trkpt lat="48.89126" lon="2.32933">
        <ele>90</ele>
        <time>2013-10-29T19:25:08.477Z</time>
      </trkpt>
      <trkpt lat="48.89123" lon="2.32931">
        <ele>92</ele>
        <time>2013-10-29T19:25:09.475Z</time>
      </trkpt>
      <trkpt lat="48.89111" lon="2.32915">
        <ele>90</ele>
        <time>2013-10-29T19:25:16.468Z</time>
      </trkpt>
      <trkpt lat="48.8911" lon="2.32913">
        <ele>90</ele>
        <time>2013-10-29T19:25:17.478Z</time>
      </trkpt>
      <trkpt lat="48.89098" lon="2.32933">
        <ele>91</ele>
        <time>2013-10-29T19:25:34.487Z</time>
      </trkpt>
      <trkpt lat="48.89099" lon="2.32939">
        <ele>92</ele>
        <time>2013-10-29T19:25:35.476Z</time>
      </trkpt>
      <trkpt lat="48.89084" lon="2.32946">
        <ele>94</ele>
        <time>2013-10-29T19:25:41.474Z</time>
      </trkpt>
      <trkpt lat="48.8908" lon="2.32945">
        <ele>93</ele>
        <time>2013-10-29T19:25:42.619Z</time>
      </trkpt>
      <trkpt lat="48.89066" lon="2.32938">
        <ele>91</ele>
        <time>2013-10-29T19:25:46.444Z</time>
      </trkpt>
      <trkpt lat="48.89062" lon="2.32936">
        <ele>93</ele>
        <time>2013-10-29T19:25:47.474Z</time>
      </trkpt>
      <trkpt lat="48.89047" lon="2.32925">
        <ele>92</ele>
        <time>2013-10-29T19:25:52.473Z</time>
      </trkpt>
      <trkpt lat="48.89044" lon="2.32923">
        <ele>95</ele>
        <time>2013-10-29T19:25:53.474Z</time>
      </trkpt>
      <trkpt lat="48.8903" lon="2.32909">
        <ele>92</ele>
        <time>2013-10-29T19:25:59.483Z</time>
      </trkpt>
      <trkpt lat="48.89029" lon="2.32906">
        <ele>93</ele>
        <time>2013-10-29T19:26:00.489Z</time>
      </trkpt>
      <trkpt lat="48.89011" lon="2.32907">
        <ele>93</ele>
        <time>2013-10-29T19:26:17.480Z</time>
      </trkpt>
      <trkpt lat="48.89008" lon="2.32909">
        <ele>92</ele>
        <time>2013-10-29T19:26:18.472Z</time>
      </trkpt>
      <trkpt lat="48.89002" lon="2.32934">
        <ele>91</ele>
        <time>2013-10-29T19:26:24.484Z</time>
      </trkpt>
      <trkpt lat="48.89002" lon="2.32939">
        <ele>92</ele>
        <time>2013-10-29T19:26:25.462Z</time>
      </trkpt>
      <trkpt lat="48.88995" lon="2.32961">
        <ele>90</ele>
        <time>2013-10-29T19:26:32.489Z</time>
      </trkpt>
      <trkpt lat="48.88994" lon="2.32964">
        <ele>90</ele>
        <time>2013-10-29T19:26:33.482Z</time>
      </trkpt>
      <trkpt lat="48.88982" lon="2.32983">
        <ele>92</ele>
        <time>2013-10-29T19:26:41.451Z</time>
      </trkpt>
      <trkpt lat="48.88979" lon="2.32986">
        <ele>94</ele>
        <time>2013-10-29T19:26:42.460Z</time>
      </trkpt>
      <trkpt lat="48.88968" lon="2.33007">
        <ele>92</ele>
        <time>2013-10-29T19:26:46.432Z</time>
      </trkpt>
      <trkpt lat="48.88966" lon="2.33011">
        <ele>100</ele>
        <time>2013-10-29T19:26:47.453Z</time>
      </trkpt>
      <trkpt lat="48.88953" lon="2.33027">
        <ele>100</ele>
        <time>2013-10-29T19:26:53.453Z</time>
      </trkpt>
      <trkpt lat="48.8895" lon="2.3303">
        <ele>100</ele>
        <time>2013-10-29T19:26:54.452Z</time>
      </trkpt>
      <trkpt lat="48.88937" lon="2.33045">
        <ele>102</ele>
        <time>2013-10-29T19:26:59.464Z</time>
      </trkpt>
      <trkpt lat="48.88935" lon="2.33048">
        <ele>98</ele>
        <time>2013-10-29T19:27:00.425Z</time>
      </trkpt>
      <trkpt lat="48.88925" lon="2.33071">
        <ele>105</ele>
        <time>2013-10-29T19:27:05.468Z</time>
      </trkpt>
      <trkpt lat="48.88924" lon="2.33075">
        <ele>102</ele>
        <time>2013-10-29T19:27:06.462Z</time>
      </trkpt>
      <trkpt lat="48.88914" lon="2.33095">
        <ele>103</ele>
        <time>2013-10-29T19:27:12.468Z</time>
      </trkpt>
      <trkpt lat="48.88912" lon="2.33098">
        <ele>100</ele>
        <time>2013-10-29T19:27:13.470Z</time>
      </trkpt>
      <trkpt lat="48.88901" lon="2.33116">
        <ele>97</ele>
        <time>2013-10-29T19:27:19.465Z</time>
      </trkpt>
      <trkpt lat="48.88899" lon="2.3312">
        <ele>101</ele>
        <time>2013-10-29T19:27:20.466Z</time>
      </trkpt>
      <trkpt lat="48.88888" lon="2.33137">
        <ele>96</ele>
        <time>2013-10-29T19:27:25.456Z</time>
      </trkpt>
      <trkpt lat="48.88887" lon="2.33142">
        <ele>95</ele>
        <time>2013-10-29T19:27:26.461Z</time>
      </trkpt>
      <trkpt lat="48.88878" lon="2.33163">
        <ele>101</ele>
        <time>2013-10-29T19:27:34.468Z</time>
      </trkpt>
      <trkpt lat="48.88877" lon="2.33165">
        <ele>102</ele>
        <time>2013-10-29T19:27:35.483Z</time>
      </trkpt>
      <trkpt lat="48.88875" lon="2.3318">
        <ele>112</ele>
        <time>2013-10-29T19:27:49.470Z</time>
      </trkpt>
      <trkpt lat="48.88875" lon="2.3318">
        <ele>113</ele>
        <time>2013-10-29T19:27:50.468Z</time>
      </trkpt>
      <trkpt lat="48.88875" lon="2.3318">
        <ele>107</ele>
        <time>2013-10-29T19:27:52.466Z</time>
      </trkpt>
      <trkpt lat="48.88875" lon="2.33181">
        <ele>105</ele>
        <time>2013-10-29T19:27:53.474Z</time>
      </trkpt>
      <trkpt lat="48.88861" lon="2.33191">
        <ele>102</ele>
        <time>2013-10-29T19:28:00.436Z</time>
      </trkpt>
      <trkpt lat="48.88859" lon="2.33194">
        <ele>103</ele>
        <time>2013-10-29T19:28:01.467Z</time>
      </trkpt>
      <trkpt lat="48.88846" lon="2.33206">
        <ele>95</ele>
        <time>2013-10-29T19:28:05.466Z</time>
      </trkpt>
      <trkpt lat="48.88843" lon="2.33209">
        <ele>94</ele>
        <time>2013-10-29T19:28:06.473Z</time>
      </trkpt>
      <trkpt lat="48.8883" lon="2.33221">
        <ele>98</ele>
        <time>2013-10-29T19:28:10.472Z</time>
      </trkpt>
      <trkpt lat="48.88828" lon="2.33225">
        <ele>100</ele>
        <time>2013-10-29T19:28:11.469Z</time>
      </trkpt>
      <trkpt lat="48.88821" lon="2.33249">
        <ele>96</ele>
        <time>2013-10-29T19:28:17.629Z</time>
      </trkpt>
      <trkpt lat="48.8882" lon="2.33252">
        <ele>96</ele>
        <time>2013-10-29T19:28:18.463Z</time>
      </trkpt>
      <trkpt lat="48.88812" lon="2.33272">
        <ele>98</ele>
        <time>2013-10-29T19:28:25.480Z</time>
      </trkpt>
      <trkpt lat="48.8881" lon="2.33275">
        <ele>97</ele>
        <time>2013-10-29T19:28:26.465Z</time>
      </trkpt>
      <trkpt lat="48.88795" lon="2.33289">
        <ele>93</ele>
        <time>2013-10-29T19:28:36.472Z</time>
      </trkpt>
      <trkpt lat="48.88793" lon="2.3329">
        <ele>95</ele>
        <time>2013-10-29T19:28:37.472Z</time>
      </trkpt>
      <trkpt lat="48.88776" lon="2.33294">
        <ele>97</ele>
        <time>2013-10-29T19:28:45.478Z</time>
      </trkpt>
      <trkpt lat="48.88774" lon="2.33294">
        <ele>95</ele>
        <time>2013-10-29T19:28:46.474Z</time>
      </trkpt>
      <trkpt lat="48.88758" lon="2.33309">
        <ele>98</ele>
        <time>2013-10-29T19:28:59.477Z</time>
      </trkpt>
      <trkpt lat="48.88757" lon="2.33311">
        <ele>98</ele>
        <time>2013-10-29T19:29:00.439Z</time>
      </trkpt>
      <trkpt lat="48.88756" lon="2.33329">
        <ele>105</ele>
        <time>2013-10-29T19:29:14.473Z</time>
      </trkpt>
      <trkpt lat="48.88755" lon="2.33329">
        <ele>100</ele>
        <time>2013-10-29T19:29:15.470Z</time>
      </trkpt>
      <trkpt lat="48.88754" lon="2.33328">
        <ele>101</ele>
        <time>2013-10-29T19:29:19.475Z</time>
      </trkpt>
      <trkpt lat="48.88754" lon="2.33329">
        <ele>100</ele>
        <time>2013-10-29T19:29:20.476Z</time>
      </trkpt>
      <trkpt lat="48.88751" lon="2.33331">
        <ele>101</ele>
        <time>2013-10-29T19:29:27.475Z</time>
      </trkpt>
      <trkpt lat="48.88752" lon="2.33332">
        <ele>102</ele>
        <time>2013-10-29T19:29:28.475Z</time>
      </trkpt>
      <trkpt lat="48.88752" lon="2.33332">
        <ele>99</ele>
        <time>2013-10-29T19:29:29.481Z</time>
      </trkpt>
      <trkpt lat="48.88753" lon="2.33333">
        <ele>98</ele>
        <time>2013-10-29T19:29:30.478Z</time>
      </trkpt>
      <trkpt lat="48.88755" lon="2.33334">
        <ele>107</ele>
        <time>2013-10-29T19:29:37.476Z</time>
      </trkpt>
      <trkpt lat="48.88755" lon="2.33334">
        <ele>112</ele>
        <time>2013-10-29T19:29:38.477Z</time>
      </trkpt>
      <trkpt lat="48.88755" lon="2.33334">
        <ele>115</ele>
        <time>2013-10-29T19:29:46.479Z</time>
      </trkpt>
      <trkpt lat="48.88756" lon="2.33335">
        <ele>113</ele>
        <time>2013-10-29T19:29:47.474Z</time>
      </trkpt>
      <trkpt lat="48.88766" lon="2.33351">
        <ele>98</ele>
        <time>2013-10-29T19:30:14.475Z</time>
      </trkpt>
      <trkpt lat="48.88766" lon="2.3335">
        <ele>99</ele>
        <time>2013-10-29T19:30:15.496Z</time>
      </trkpt>
      <trkpt lat="48.88766" lon="2.33349">
        <ele>104</ele>
        <time>2013-10-29T19:30:28.477Z</time>
      </trkpt>
      <trkpt lat="48.88765" lon="2.33348">
        <ele>105</ele>
        <time>2013-10-29T19:30:29.492Z</time>
      </trkpt>
      <trkpt lat="48.88751" lon="2.33361">
        <ele>96</ele>
        <time>2013-10-29T19:30:39.493Z</time>
      </trkpt>
      <trkpt lat="48.88749" lon="2.33364">
        <ele>95</ele>
        <time>2013-10-29T19:30:40.477Z</time>
      </trkpt>
      <trkpt lat="48.88737" lon="2.33382">
        <ele>99</ele>
        <time>2013-10-29T19:30:46.514Z</time>
      </trkpt>
      <trkpt lat="48.88736" lon="2.33384">
        <ele>103</ele>
        <time>2013-10-29T19:30:47.489Z</time>
      </trkpt>
      <trkpt lat="48.8873" lon="2.334">
        <ele>112</ele>
        <time>2013-10-29T19:30:57.500Z</time>
      </trkpt>
      <trkpt lat="48.8873" lon="2.33398">
        <ele>111</ele>
        <time>2013-10-29T19:30:58.496Z</time>
      </trkpt>
      <trkpt lat="48.88731" lon="2.33397">
        <ele>110</ele>
        <time>2013-10-29T19:31:04.497Z</time>
      </trkpt>
      <trkpt lat="48.8873" lon="2.33398">
        <ele>108</ele>
        <time>2013-10-29T19:31:05.489Z</time>
      </trkpt>
      <trkpt lat="48.88713" lon="2.33405">
        <ele>115</ele>
        <time>2013-10-29T19:31:16.486Z</time>
      </trkpt>
      <trkpt lat="48.88711" lon="2.33406">
        <ele>118</ele>
        <time>2013-10-29T19:31:17.489Z</time>
      </trkpt>
      <trkpt lat="48.88701" lon="2.33427">
        <ele>120</ele>
        <time>2013-10-29T19:31:27.554Z</time>
      </trkpt>
      <trkpt lat="48.88701" lon="2.3343">
        <ele>121</ele>
        <time>2013-10-29T19:31:28.492Z</time>
      </trkpt>
      <trkpt lat="48.88697" lon="2.33455">
        <ele>123</ele>
        <time>2013-10-29T19:31:35.493Z</time>
      </trkpt>
      <trkpt lat="48.88695" lon="2.33459">
        <ele>128</ele>
        <time>2013-10-29T19:31:36.487Z</time>
      </trkpt>
      <trkpt lat="48.88688" lon="2.33481">
        <ele>125</ele>
        <time>2013-10-29T19:31:40.468Z</time>
      </trkpt>
      <trkpt lat="48.88687" lon="2.33485">
        <ele>128</ele>
        <time>2013-10-29T19:31:41.466Z</time>
      </trkpt>
      <trkpt lat="48.88677" lon="2.33503">
        <ele>113</ele>
        <time>2013-10-29T19:31:46.478Z</time>
      </trkpt>
      <trkpt lat="48.88674" lon="2.33505">
        <ele>116</ele>
        <time>2013-10-29T19:31:47.487Z</time>
      </trkpt>
      <trkpt lat="48.88662" lon="2.33526">
        <ele>103</ele>
        <time>2013-10-29T19:31:55.455Z</time>
      </trkpt>
      <trkpt lat="48.88662" lon="2.33528">
        <ele>100</ele>
        <time>2013-10-29T19:31:56.464Z</time>
      </trkpt>
      <trkpt lat="48.88649" lon="2.3354">
        <ele>96</ele>
        <time>2013-10-29T19:32:03.466Z</time>
      </trkpt>
      <trkpt lat="48.88646" lon="2.33542">
        <ele>96</ele>
        <time>2013-10-29T19:32:04.455Z</time>
      </trkpt>
      <trkpt lat="48.88653" lon="2.33566">
        <ele>110</ele>
        <time>2013-10-29T19:32:17.468Z</time>
      </trkpt>
      <trkpt lat="48.88652" lon="2.33568">
        <ele>110</ele>
        <time>2013-10-29T19:32:18.460Z</time>
      </trkpt>
      <trkpt lat="48.88644" lon="2.33579">
        <ele>106</ele>
        <time>2013-10-29T19:32:22.466Z</time>
      </trkpt>
      <trkpt lat="48.88635" lon="2.33592">
        <ele>96</ele>
        <time>2013-10-29T19:32:27.459Z</time>
      </trkpt>
      <trkpt lat="48.88628" lon="2.33614">
        <ele>103</ele>
        <time>2013-10-29T19:32:45.470Z</time>
      </trkpt>
      <trkpt lat="48.88628" lon="2.33617">
        <ele>102</ele>
        <time>2013-10-29T19:32:46.461Z</time>
      </trkpt>
      <trkpt lat="48.88619" lon="2.3364">
        <ele>105</ele>
        <time>2013-10-29T19:32:55.493Z</time>
      </trkpt>
      <trkpt lat="48.88617" lon="2.33642">
        <ele>106</ele>
        <time>2013-10-29T19:32:56.469Z</time>
      </trkpt>
      <trkpt lat="48.88611" lon="2.33667">
        <ele>93</ele>
        <time>2013-10-29T19:33:05.469Z</time>
      </trkpt>
      <trkpt lat="48.8861" lon="2.33671">
        <ele>92</ele>
        <time>2013-10-29T19:33:06.463Z</time>
      </trkpt>
      <trkpt lat="48.88607" lon="2.33696">
        <ele>90</ele>
        <time>2013-10-29T19:33:13.488Z</time>
      </trkpt>
      <trkpt lat="48.88607" lon="2.33699">
        <ele>91</ele>
        <time>2013-10-29T19:33:14.464Z</time>
      </trkpt>
      <trkpt lat="48.88602" lon="2.33722">
        <ele>92</ele>
        <time>2013-10-29T19:33:23.465Z</time>
      </trkpt>
      <trkpt lat="48.88602" lon="2.33726">
        <ele>92</ele>
        <time>2013-10-29T19:33:24.469Z</time>
      </trkpt>
      <trkpt lat="48.886" lon="2.33752">
        <ele>91</ele>
        <time>2013-10-29T19:33:34.470Z</time>
      </trkpt>
      <trkpt lat="48.88599" lon="2.33756">
        <ele>94</ele>
        <time>2013-10-29T19:33:35.470Z</time>
      </trkpt>
      <trkpt lat="48.88591" lon="2.33779">
        <ele>113</ele>
        <time>2013-10-29T19:33:41.479Z</time>
      </trkpt>
      <trkpt lat="48.8859" lon="2.3378">
        <ele>112</ele>
        <time>2013-10-29T19:33:42.475Z</time>
      </trkpt>
      <trkpt lat="48.88584" lon="2.33784">
        <ele>129</ele>
        <time>2013-10-29T19:33:55.485Z</time>
      </trkpt>
      <trkpt lat="48.88584" lon="2.33784">
        <ele>131</ele>
        <time>2013-10-29T19:33:56.474Z</time>
      </trkpt>
      <trkpt lat="48.88584" lon="2.33784">
        <ele>135</ele>
        <time>2013-10-29T19:34:00.458Z</time>
      </trkpt>
      <trkpt lat="48.88583" lon="2.33785">
        <ele>135</ele>
        <time>2013-10-29T19:34:01.479Z</time>
      </trkpt>
      <trkpt lat="48.88583" lon="2.33785">
        <ele>134</ele>
        <time>2013-10-29T19:34:02.479Z</time>
      </trkpt>
      <trkpt lat="48.88583" lon="2.33785">
        <ele>137</ele>
        <time>2013-10-29T19:34:03.476Z</time>
      </trkpt>
      <trkpt lat="48.88583" lon="2.33786">
        <ele>128</ele>
        <time>2013-10-29T19:34:23.491Z</time>
      </trkpt>
      <trkpt lat="48.88583" lon="2.33786">
        <ele>132</ele>
        <time>2013-10-29T19:34:24.486Z</time>
      </trkpt>
      <trkpt lat="48.88595" lon="2.33798">
        <ele>108</ele>
        <time>2013-10-29T19:35:04.479Z</time>
      </trkpt>
      <trkpt lat="48.88595" lon="2.33798">
        <ele>109</ele>
        <time>2013-10-29T19:35:05.481Z</time>
      </trkpt>
      <trkpt lat="48.88595" lon="2.33798">
        <ele>110</ele>
        <time>2013-10-29T19:35:06.510Z</time>
      </trkpt>
      <trkpt lat="48.88596" lon="2.33798">
        <ele>112</ele>
        <time>2013-10-29T19:35:07.485Z</time>
      </trkpt>
      <trkpt lat="48.88612" lon="2.3381">
        <ele>117</ele>
        <time>2013-10-29T19:35:20.479Z</time>
      </trkpt>
      <trkpt lat="48.88613" lon="2.33813">
        <ele>115</ele>
        <time>2013-10-29T19:35:21.478Z</time>
      </trkpt>
      <trkpt lat="48.88624" lon="2.33833">
        <ele>96</ele>
        <time>2013-10-29T19:35:44.479Z</time>
      </trkpt>
      <trkpt lat="48.88625" lon="2.33834">
        <ele>94</ele>
        <time>2013-10-29T19:35:45.478Z</time>
      </trkpt>
      <trkpt lat="48.88628" lon="2.33831">
        <ele>97</ele>
        <time>2013-10-29T19:35:49.483Z</time>
      </trkpt>
      <trkpt lat="48.88625" lon="2.33831">
        <ele>97</ele>
        <time>2013-10-29T19:35:50.492Z</time>
      </trkpt>
      <trkpt lat="48.8862" lon="2.33833">
        <ele>99</ele>
        <time>2013-10-29T19:35:51.483Z</time>
      </trkpt>
      <trkpt lat="48.88613" lon="2.33835">
        <ele>98</ele>
        <time>2013-10-29T19:35:52.483Z</time>
      </trkpt>
      <trkpt lat="48.88601" lon="2.33842">
        <ele>98</ele>
        <time>2013-10-29T19:35:54.478Z</time>
      </trkpt>
      <trkpt lat="48.88593" lon="2.33848">
        <ele>94</ele>
        <time>2013-10-29T19:35:55.473Z</time>
      </trkpt>
      <trkpt lat="48.88582" lon="2.33856">
        <ele>96</ele>
        <time>2013-10-29T19:35:57.483Z</time>
      </trkpt>
      <trkpt lat="48.88568" lon="2.33866">
        <ele>96</ele>
        <time>2013-10-29T19:36:01.485Z</time>
      </trkpt>
      <trkpt lat="48.88565" lon="2.33868">
        <ele>93</ele>
        <time>2013-10-29T19:36:02.483Z</time>
      </trkpt>
      <trkpt lat="48.88558" lon="2.33865">
        <ele>91</ele>
        <time>2013-10-29T19:36:17.485Z</time>
      </trkpt>
      <trkpt lat="48.88558" lon="2.33865">
        <ele>91</ele>
        <time>2013-10-29T19:36:18.485Z</time>
      </trkpt>
      <trkpt lat="48.8856" lon="2.33865">
        <ele>91</ele>
        <time>2013-10-29T19:36:40.470Z</time>
      </trkpt>
      <trkpt lat="48.88558" lon="2.3387">
        <ele>92</ele>
        <time>2013-10-29T19:36:41.487Z</time>
      </trkpt>
      <trkpt lat="48.88554" lon="2.33883">
        <ele>92</ele>
        <time>2013-10-29T19:36:54.494Z</time>
      </trkpt>
      <trkpt lat="48.88554" lon="2.33883">
        <ele>92</ele>
        <time>2013-10-29T19:36:55.488Z</time>
      </trkpt>
      <trkpt lat="48.88555" lon="2.33881">
        <ele>92</ele>
        <time>2013-10-29T19:37:06.489Z</time>
      </trkpt>
      <trkpt lat="48.88554" lon="2.3389">
        <ele>95</ele>
        <time>2013-10-29T19:37:11.462Z</time>
      </trkpt>
      <trkpt lat="48.88559" lon="2.3392">
        <ele>94</ele>
        <time>2013-10-29T19:37:20.460Z</time>
      </trkpt>
      <trkpt lat="48.8856" lon="2.33937">
        <ele>91</ele>
        <time>2013-10-29T19:37:26.444Z</time>
      </trkpt>
      <trkpt lat="48.88558" lon="2.33959">
        <ele>97</ele>
        <time>2013-10-29T19:37:30.464Z</time>
      </trkpt>
      <trkpt lat="48.88573" lon="2.33954">
        <ele>142</ele>
        <time>2013-10-29T19:37:42.471Z</time>
      </trkpt>
      <trkpt lat="48.88576" lon="2.33954">
        <ele>144</ele>
        <time>2013-10-29T19:37:43.477Z</time>
      </trkpt>
      <trkpt lat="48.8859" lon="2.33972">
        <ele>146</ele>
        <time>2013-10-29T19:37:48.471Z</time>
      </trkpt>
      <trkpt lat="48.88592" lon="2.33977">
        <ele>146</ele>
        <time>2013-10-29T19:37:49.472Z</time>
      </trkpt>
      <trkpt lat="48.88592" lon="2.33981">
        <ele>146</ele>
        <time>2013-10-29T19:37:55.475Z</time>
      </trkpt>
      <trkpt lat="48.88592" lon="2.33981">
        <ele>146</ele>
        <time>2013-10-29T19:37:56.472Z</time>
      </trkpt>
      <trkpt lat="48.88592" lon="2.33982">
        <ele>119</ele>
        <time>2013-10-29T19:37:57.470Z</time>
      </trkpt>
      <trkpt lat="48.88583" lon="2.34004">
        <ele>100</ele>
        <time>2013-10-29T19:38:02.471Z</time>
      </trkpt>
      <trkpt lat="48.88582" lon="2.34009">
        <ele>100</ele>
        <time>2013-10-29T19:38:03.475Z</time>
      </trkpt>
      <trkpt lat="48.88575" lon="2.34034">
        <ele>107</ele>
        <time>2013-10-29T19:38:15.479Z</time>
      </trkpt>
      <trkpt lat="48.88575" lon="2.34034">
        <ele>107</ele>
        <time>2013-10-29T19:38:16.478Z</time>
      </trkpt>
      <trkpt lat="48.88569" lon="2.34058">
        <ele>121</ele>
        <time>2013-10-29T19:38:23.473Z</time>
      </trkpt>
      <trkpt lat="48.88569" lon="2.34061">
        <ele>125</ele>
        <time>2013-10-29T19:38:24.492Z</time>
      </trkpt>
      <trkpt lat="48.88561" lon="2.34084">
        <ele>124</ele>
        <time>2013-10-29T19:38:33.478Z</time>
      </trkpt>
      <trkpt lat="48.88558" lon="2.34087">
        <ele>121</ele>
        <time>2013-10-29T19:38:34.446Z</time>
      </trkpt>
      <trkpt lat="48.88548" lon="2.34108">
        <ele>141</ele>
        <time>2013-10-29T19:38:42.490Z</time>
      </trkpt>
      <trkpt lat="48.88547" lon="2.3411">
        <ele>141</ele>
        <time>2013-10-29T19:38:43.481Z</time>
      </trkpt>
      <trkpt lat="48.88542" lon="2.34135">
        <ele>147</ele>
        <time>2013-10-29T19:38:54.489Z</time>
      </trkpt>
      <trkpt lat="48.88542" lon="2.34142">
        <ele>146</ele>
        <time>2013-10-29T19:38:55.477Z</time>
      </trkpt>
      <trkpt lat="48.88545" lon="2.34163">
        <ele>148</ele>
        <time>2013-10-29T19:39:00.435Z</time>
      </trkpt>
      <trkpt lat="48.88546" lon="2.3417">
        <ele>145</ele>
        <time>2013-10-29T19:39:01.483Z</time>
      </trkpt>
      <trkpt lat="48.88547" lon="2.34194">
        <ele>144</ele>
        <time>2013-10-29T19:39:14.500Z</time>
      </trkpt>
      <trkpt lat="48.88547" lon="2.34193">
        <ele>144</ele>
        <time>2013-10-29T19:39:15.493Z</time>
      </trkpt>
      <trkpt lat="48.88547" lon="2.34192">
        <ele>144</ele>
        <time>2013-10-29T19:40:20.497Z</time>
      </trkpt>
      <trkpt lat="48.88545" lon="2.34196">
        <ele>149</ele>
        <time>2013-10-29T19:40:21.496Z</time>
      </trkpt>
      <trkpt lat="48.88543" lon="2.34198">
        <ele>149</ele>
        <time>2013-10-29T19:40:26.487Z</time>
      </trkpt>
      <trkpt lat="48.88544" lon="2.34198">
        <ele>149</ele>
        <time>2013-10-29T19:40:27.491Z</time>
      </trkpt>
      <trkpt lat="48.88544" lon="2.34197">
        <ele>149</ele>
        <time>2013-10-29T19:41:40.495Z</time>
      </trkpt>
      <trkpt lat="48.88541" lon="2.34196">
        <ele>143</ele>
        <time>2013-10-29T19:41:41.511Z</time>
      </trkpt>
      <trkpt lat="48.88531" lon="2.34195">
        <ele>142</ele>
        <time>2013-10-29T19:41:49.499Z</time>
      </trkpt>
      <trkpt lat="48.88532" lon="2.34195">
        <ele>142</ele>
        <time>2013-10-29T19:41:50.500Z</time>
      </trkpt>
      <trkpt lat="48.88533" lon="2.34195">
        <ele>142</ele>
        <time>2013-10-29T19:42:02.496Z</time>
      </trkpt>
      <trkpt lat="48.88528" lon="2.34194">
        <ele>133</ele>
        <time>2013-10-29T19:42:03.500Z</time>
      </trkpt>
      <trkpt lat="48.88521" lon="2.34193">
        <ele>133</ele>
        <time>2013-10-29T19:42:12.498Z</time>
      </trkpt>
      <trkpt lat="48.88521" lon="2.34193">
        <ele>133</ele>
        <time>2013-10-29T19:42:13.495Z</time>
      </trkpt>
      <trkpt lat="48.88522" lon="2.34193">
        <ele>133</ele>
        <time>2013-10-29T19:42:19.504Z</time>
      </trkpt>
      <trkpt lat="48.88519" lon="2.3419">
        <ele>124</ele>
        <time>2013-10-29T19:42:20.502Z</time>
      </trkpt>
      <trkpt lat="48.88509" lon="2.34184">
        <ele>97</ele>
        <time>2013-10-29T19:42:34.457Z</time>
      </trkpt>
      <trkpt lat="48.8851" lon="2.34184">
        <ele>100</ele>
        <time>2013-10-29T19:42:35.474Z</time>
      </trkpt>
      <trkpt lat="48.88511" lon="2.34183">
        <ele>100</ele>
        <time>2013-10-29T19:42:36.472Z</time>
      </trkpt>
      <trkpt lat="48.8851" lon="2.34174">
        <ele>102</ele>
        <time>2013-10-29T19:42:48.477Z</time>
      </trkpt>
      <trkpt lat="48.8851" lon="2.34175">
        <ele>104</ele>
        <time>2013-10-29T19:42:49.481Z</time>
      </trkpt>
      <trkpt lat="48.8851" lon="2.34176">
        <ele>103</ele>
        <time>2013-10-29T19:42:51.476Z</time>
      </trkpt>
      <trkpt lat="48.8851" lon="2.34177">
        <ele>101</ele>
        <time>2013-10-29T19:42:52.476Z</time>
      </trkpt>
      <trkpt lat="48.88513" lon="2.34184">
        <ele>100</ele>
        <time>2013-10-29T19:43:05.480Z</time>
      </trkpt>
      <trkpt lat="48.88513" lon="2.34184">
        <ele>98</ele>
        <time>2013-10-29T19:43:06.476Z</time>
      </trkpt>
      <trkpt lat="48.88513" lon="2.34184">
        <ele>103</ele>
        <time>2013-10-29T19:43:11.472Z</time>
      </trkpt>
      <trkpt lat="48.88513" lon="2.34185">
        <ele>106</ele>
        <time>2013-10-29T19:43:12.478Z</time>
      </trkpt>
      <trkpt lat="48.88506" lon="2.34209">
        <ele>98</ele>
        <time>2013-10-29T19:43:23.472Z</time>
      </trkpt>
      <trkpt lat="48.88505" lon="2.34211">
        <ele>101</ele>
        <time>2013-10-29T19:43:24.475Z</time>
      </trkpt>
      <trkpt lat="48.88491" lon="2.34227">
        <ele>107</ele>
        <time>2013-10-29T19:43:43.484Z</time>
      </trkpt>
      <trkpt lat="48.8849" lon="2.34227">
        <ele>108</ele>
        <time>2013-10-29T19:43:44.485Z</time>
      </trkpt>
      <trkpt lat="48.88479" lon="2.34246">
        <ele>119</ele>
        <time>2013-10-29T19:44:17.494Z</time>
      </trkpt>
      <trkpt lat="48.88479" lon="2.34246">
        <ele>118</ele>
        <time>2013-10-29T19:44:18.489Z</time>
      </trkpt>
      <trkpt lat="48.88479" lon="2.34247">
        <ele>122</ele>
        <time>2013-10-29T19:44:20.489Z</time>
      </trkpt>
      <trkpt lat="48.88478" lon="2.34247">
        <ele>121</ele>
        <time>2013-10-29T19:44:21.488Z</time>
      </trkpt>
      <trkpt lat="48.88463" lon="2.34252">
        <ele>118</ele>
        <time>2013-10-29T19:44:37.487Z</time>
      </trkpt>
      <trkpt lat="48.8846" lon="2.34254">
        <ele>119</ele>
        <time>2013-10-29T19:44:38.496Z</time>
      </trkpt>
      <trkpt lat="48.88445" lon="2.34262">
        <ele>119</ele>
        <time>2013-10-29T19:44:44.485Z</time>
      </trkpt>
      <trkpt lat="48.88443" lon="2.34262">
        <ele>121</ele>
        <time>2013-10-29T19:44:45.493Z</time>
      </trkpt>
      <trkpt lat="48.88426" lon="2.3427">
        <ele>130</ele>
        <time>2013-10-29T19:44:55.492Z</time>
      </trkpt>
      <trkpt lat="48.88425" lon="2.3427">
        <ele>128</ele>
        <time>2013-10-29T19:44:56.493Z</time>
      </trkpt>
      <trkpt lat="48.88408" lon="2.34265">
        <ele>96</ele>
        <time>2013-10-29T19:45:13.485Z</time>
      </trkpt>
      <trkpt lat="48.88372" lon="2.34287">
        <ele>96</ele>
        <time>2013-10-29T19:45:53.501Z</time>
      </trkpt>
      <trkpt lat="48.88384" lon="2.34406">
        <ele>97</ele>
        <time>2013-10-29T19:46:18.495Z</time>
      </trkpt>
      <trkpt lat="48.88396" lon="2.34425">
        <ele>97</ele>
        <time>2013-10-29T19:46:22.500Z</time>
      </trkpt>
      <trkpt lat="48.88399" lon="2.3443">
        <ele>101</ele>
        <time>2013-10-29T19:46:23.499Z</time>
      </trkpt>
      <trkpt lat="48.8841" lon="2.34441">
        <ele>105</ele>
        <time>2013-10-29T19:46:26.499Z</time>
      </trkpt>
      <trkpt lat="48.88416" lon="2.34444">
        <ele>108</ele>
        <time>2013-10-29T19:46:27.501Z</time>
      </trkpt>
      <trkpt lat="48.88432" lon="2.34452">
        <ele>111</ele>
        <time>2013-10-29T19:46:30.493Z</time>
      </trkpt>
      <trkpt lat="48.88439" lon="2.34463">
        <ele>97</ele>
        <time>2013-10-29T19:46:33.491Z</time>
      </trkpt>
      <trkpt lat="48.88451" lon="2.34479">
        <ele>98</ele>
        <time>2013-10-29T19:46:38.496Z</time>
      </trkpt>
      <trkpt lat="48.88453" lon="2.34482">
        <ele>97</ele>
        <time>2013-10-29T19:46:39.503Z</time>
      </trkpt>
      <trkpt lat="48.88451" lon="2.34508">
        <ele>92</ele>
        <time>2013-10-29T19:46:55.499Z</time>
      </trkpt>
      <trkpt lat="48.88421" lon="2.3459">
        <ele>95</ele>
        <time>2013-10-29T19:47:47.523Z</time>
      </trkpt>
      <trkpt lat="48.88417" lon="2.34615">
        <ele>97</ele>
        <time>2013-10-29T19:47:55.487Z</time>
      </trkpt>
      <trkpt lat="48.88416" lon="2.34619">
        <ele>101</ele>
        <time>2013-10-29T19:47:56.487Z</time>
      </trkpt>
      <trkpt lat="48.88408" lon="2.3464">
        <ele>94</ele>
        <time>2013-10-29T19:48:05.473Z</time>
      </trkpt>
      <trkpt lat="48.88407" lon="2.34645">
        <ele>91</ele>
        <time>2013-10-29T19:48:06.514Z</time>
      </trkpt>
      <trkpt lat="48.88401" lon="2.34668">
        <ele>91</ele>
        <time>2013-10-29T19:48:13.484Z</time>
      </trkpt>
      <trkpt lat="48.884" lon="2.34674">
        <ele>96</ele>
        <time>2013-10-29T19:48:14.491Z</time>
      </trkpt>
      <trkpt lat="48.88389" lon="2.34693">
        <ele>105</ele>
        <time>2013-10-29T19:48:22.489Z</time>
      </trkpt>
      <trkpt lat="48.88387" lon="2.34695">
        <ele>105</ele>
        <time>2013-10-29T19:48:23.492Z</time>
      </trkpt>
      <trkpt lat="48.88372" lon="2.34694">
        <ele>103</ele>
        <time>2013-10-29T19:48:26.489Z</time>
      </trkpt>
      <trkpt lat="48.88367" lon="2.34691">
        <ele>106</ele>
        <time>2013-10-29T19:48:27.487Z</time>
      </trkpt>
      <trkpt lat="48.88358" lon="2.34668">
        <ele>107</ele>
        <time>2013-10-29T19:48:32.491Z</time>
      </trkpt>
      <trkpt lat="48.88357" lon="2.34664">
        <ele>107</ele>
        <time>2013-10-29T19:48:33.500Z</time>
      </trkpt>
      <trkpt lat="48.88356" lon="2.34657">
        <ele>104</ele>
        <time>2013-10-29T19:48:41.487Z</time>
      </trkpt>
      <trkpt lat="48.88356" lon="2.34658">
        <ele>104</ele>
        <time>2013-10-29T19:48:42.488Z</time>
      </trkpt>
      <trkpt lat="48.88357" lon="2.3466">
        <ele>104</ele>
        <time>2013-10-29T19:49:28.488Z</time>
      </trkpt>
      <trkpt lat="48.8834" lon="2.34665">
        <ele>94</ele>
        <time>2013-10-29T19:49:42.599Z</time>
      </trkpt>
      <trkpt lat="48.8833" lon="2.34674">
        <ele>101</ele>
        <time>2013-10-29T19:49:55.504Z</time>
      </trkpt>
      <trkpt lat="48.8833" lon="2.34673">
        <ele>101</ele>
        <time>2013-10-29T19:49:56.505Z</time>
      </trkpt>
      <trkpt lat="48.88331" lon="2.34673">
        <ele>101</ele>
        <time>2013-10-29T19:50:03.503Z</time>
      </trkpt>
      <trkpt lat="48.88329" lon="2.34673">
        <ele>102</ele>
        <time>2013-10-29T19:50:04.502Z</time>
      </trkpt>
      <trkpt lat="48.88324" lon="2.34676">
        <ele>106</ele>
        <time>2013-10-29T19:50:11.531Z</time>
      </trkpt>
      <trkpt lat="48.88324" lon="2.34676">
        <ele>106</ele>
        <time>2013-10-29T19:50:12.495Z</time>
      </trkpt>
      <trkpt lat="48.88325" lon="2.34675">
        <ele>106</ele>
        <time>2013-10-29T19:50:22.498Z</time>
      </trkpt>
      <trkpt lat="48.88322" lon="2.34677">
        <ele>109</ele>
        <time>2013-10-29T19:50:23.500Z</time>
      </trkpt>
      <trkpt lat="48.88308" lon="2.34677">
        <ele>101</ele>
        <time>2013-10-29T19:50:28.500Z</time>
      </trkpt>
      <trkpt lat="48.88304" lon="2.34675">
        <ele>100</ele>
        <time>2013-10-29T19:50:29.503Z</time>
      </trkpt>
      <trkpt lat="48.88289" lon="2.34663">
        <ele>106</ele>
        <time>2013-10-29T19:50:33.500Z</time>
      </trkpt>
      <trkpt lat="48.88285" lon="2.3466">
        <ele>103</ele>
        <time>2013-10-29T19:50:34.467Z</time>
      </trkpt>
      <trkpt lat="48.88272" lon="2.34646">
        <ele>109</ele>
        <time>2013-10-29T19:50:38.512Z</time>
      </trkpt>
      <trkpt lat="48.88268" lon="2.34643">
        <ele>107</ele>
        <time>2013-10-29T19:50:39.481Z</time>
      </trkpt>
      <trkpt lat="48.88253" lon="2.34628">
        <ele>106</ele>
        <time>2013-10-29T19:50:43.499Z</time>
      </trkpt>
      <trkpt lat="48.88249" lon="2.34624">
        <ele>107</ele>
        <time>2013-10-29T19:50:44.495Z</time>
      </trkpt>
      <trkpt lat="48.88235" lon="2.34611">
        <ele>105</ele>
        <time>2013-10-29T19:50:48.500Z</time>
      </trkpt>
      <trkpt lat="48.88233" lon="2.34609">
        <ele>105</ele>
        <time>2013-10-29T19:50:49.500Z</time>
      </trkpt>
      <trkpt lat="48.88216" lon="2.34607">
        <ele>98</ele>
        <time>2013-10-29T19:50:59.504Z</time>
      </trkpt>
      <trkpt lat="48.88213" lon="2.34607">
        <ele>94</ele>
        <time>2013-10-29T19:51:00.465Z</time>
      </trkpt>
      <trkpt lat="48.88197" lon="2.34615">
        <ele>96</ele>
        <time>2013-10-29T19:51:04.503Z</time>
      </trkpt>
      <trkpt lat="48.88194" lon="2.34623">
        <ele>98</ele>
        <time>2013-10-29T19:51:05.507Z</time>
      </trkpt>
      <trkpt lat="48.8819" lon="2.34642">
        <ele>99</ele>
        <time>2013-10-29T19:51:07.499Z</time>
      </trkpt>
      <trkpt lat="48.8819" lon="2.34653">
        <ele>98</ele>
        <time>2013-10-29T19:51:08.529Z</time>
      </trkpt>
      <trkpt lat="48.88189" lon="2.34672">
        <ele>96</ele>
        <time>2013-10-29T19:51:10.499Z</time>
      </trkpt>
      <trkpt lat="48.88189" lon="2.3468">
        <ele>100</ele>
        <time>2013-10-29T19:51:11.485Z</time>
      </trkpt>
      <trkpt lat="48.88185" lon="2.34703">
        <ele>93</ele>
        <time>2013-10-29T19:51:14.499Z</time>
      </trkpt>
      <trkpt lat="48.88183" lon="2.34711">
        <ele>93</ele>
        <time>2013-10-29T19:51:15.550Z</time>
      </trkpt>
      <trkpt lat="48.88174" lon="2.34732">
        <ele>90</ele>
        <time>2013-10-29T19:51:18.499Z</time>
      </trkpt>
      <trkpt lat="48.88171" lon="2.34739">
        <ele>92</ele>
        <time>2013-10-29T19:51:19.498Z</time>
      </trkpt>
      <trkpt lat="48.88161" lon="2.34758">
        <ele>92</ele>
        <time>2013-10-29T19:51:22.496Z</time>
      </trkpt>
      <trkpt lat="48.88158" lon="2.34765">
        <ele>92</ele>
        <time>2013-10-29T19:51:23.496Z</time>
      </trkpt>
      <trkpt lat="48.88149" lon="2.34783">
        <ele>94</ele>
        <time>2013-10-29T19:51:26.499Z</time>
      </trkpt>
      <trkpt lat="48.88146" lon="2.3479">
        <ele>95</ele>
        <time>2013-10-29T19:51:27.499Z</time>
      </trkpt>
      <trkpt lat="48.88141" lon="2.3481">
        <ele>95</ele>
        <time>2013-10-29T19:51:29.498Z</time>
      </trkpt>
      <trkpt lat="48.88138" lon="2.34822">
        <ele>94</ele>
        <time>2013-10-29T19:51:30.500Z</time>
      </trkpt>
      <trkpt lat="48.88136" lon="2.34836">
        <ele>95</ele>
        <time>2013-10-29T19:51:31.500Z</time>
      </trkpt>
      <trkpt lat="48.88134" lon="2.3485">
        <ele>96</ele>
        <time>2013-10-29T19:51:32.500Z</time>
      </trkpt>
      <trkpt lat="48.88133" lon="2.34867">
        <ele>93</ele>
        <time>2013-10-29T19:51:33.504Z</time>
      </trkpt>
      <trkpt lat="48.88132" lon="2.3488">
        <ele>94</ele>
        <time>2013-10-29T19:51:34.531Z</time>
      </trkpt>
      <trkpt lat="48.88129" lon="2.34903">
        <ele>94</ele>
        <time>2013-10-29T19:51:36.501Z</time>
      </trkpt>
      <trkpt lat="48.88127" lon="2.34914">
        <ele>93</ele>
        <time>2013-10-29T19:51:37.495Z</time>
      </trkpt>
      <trkpt lat="48.88124" lon="2.34934">
        <ele>93</ele>
        <time>2013-10-29T19:51:39.499Z</time>
      </trkpt>
      <trkpt lat="48.88122" lon="2.3494">
        <ele>93</ele>
        <time>2013-10-29T19:51:40.468Z</time>
      </trkpt>
      <trkpt lat="48.88115" lon="2.3496">
        <ele>91</ele>
        <time>2013-10-29T19:51:45.503Z</time>
      </trkpt>
      <trkpt lat="48.88112" lon="2.34967">
        <ele>92</ele>
        <time>2013-10-29T19:51:46.497Z</time>
      </trkpt>
      <trkpt lat="48.88103" lon="2.34988">
        <ele>96</ele>
        <time>2013-10-29T19:51:49.499Z</time>
      </trkpt>
      <trkpt lat="48.88099" lon="2.34995">
        <ele>94</ele>
        <time>2013-10-29T19:51:50.499Z</time>
      </trkpt>
      <trkpt lat="48.88089" lon="2.35017">
        <ele>95</ele>
        <time>2013-10-29T19:51:53.500Z</time>
      </trkpt>
      <trkpt lat="48.88087" lon="2.35025">
        <ele>94</ele>
        <time>2013-10-29T19:51:54.503Z</time>
      </trkpt>
      <trkpt lat="48.88083" lon="2.35052">
        <ele>92</ele>
        <time>2013-10-29T19:51:57.503Z</time>
      </trkpt>
      <trkpt lat="48.88082" lon="2.35061">
        <ele>92</ele>
        <time>2013-10-29T19:51:58.503Z</time>
      </trkpt>
      <trkpt lat="48.88079" lon="2.35087">
        <ele>92</ele>
        <time>2013-10-29T19:52:01.507Z</time>
      </trkpt>
      <trkpt lat="48.88079" lon="2.35094">
        <ele>93</ele>
        <time>2013-10-29T19:52:02.503Z</time>
      </trkpt>
      <trkpt lat="48.8808" lon="2.35117">
        <ele>94</ele>
        <time>2013-10-29T19:52:08.511Z</time>
      </trkpt>
      <trkpt lat="48.8808" lon="2.35122">
        <ele>95</ele>
        <time>2013-10-29T19:52:09.507Z</time>
      </trkpt>
      <trkpt lat="48.88081" lon="2.35148">
        <ele>94</ele>
        <time>2013-10-29T19:52:14.497Z</time>
      </trkpt>
      <trkpt lat="48.88081" lon="2.35153">
        <ele>95</ele>
        <time>2013-10-29T19:52:15.504Z</time>
      </trkpt>
      <trkpt lat="48.88083" lon="2.35173">
        <ele>94</ele>
        <time>2013-10-29T19:52:23.512Z</time>
      </trkpt>
      <trkpt lat="48.88082" lon="2.35181">
        <ele>98</ele>
        <time>2013-10-29T19:52:24.514Z</time>
      </trkpt>
      <trkpt lat="48.88071" lon="2.35195">
        <ele>93</ele>
        <time>2013-10-29T19:52:36.511Z</time>
      </trkpt>
      <trkpt lat="48.88072" lon="2.35195">
        <ele>93</ele>
        <time>2013-10-29T19:52:37.515Z</time>
      </trkpt>
      <trkpt lat="48.88073" lon="2.35194">
        <ele>93</ele>
        <time>2013-10-29T19:53:02.489Z</time>
      </trkpt>
      <trkpt lat="48.88076" lon="2.35193">
        <ele>96</ele>
        <time>2013-10-29T19:53:03.492Z</time>
      </trkpt>
      <trkpt lat="48.8806" lon="2.35198">
        <ele>97</ele>
        <time>2013-10-29T19:53:17.485Z</time>
      </trkpt>
      <trkpt lat="48.88061" lon="2.35198">
        <ele>97</ele>
        <time>2013-10-29T19:53:18.483Z</time>
      </trkpt>
      <trkpt lat="48.88062" lon="2.35198">
        <ele>97</ele>
        <time>2013-10-29T19:53:33.491Z</time>
      </trkpt>
      <trkpt lat="48.88058" lon="2.352">
        <ele>89</ele>
        <time>2013-10-29T19:53:34.457Z</time>
      </trkpt>
      <trkpt lat="48.88043" lon="2.35213">
        <ele>85</ele>
        <time>2013-10-29T19:53:39.496Z</time>
      </trkpt>
      <trkpt lat="48.88041" lon="2.35216">
        <ele>85</ele>
        <time>2013-10-29T19:53:40.496Z</time>
      </trkpt>
      <trkpt lat="48.88026" lon="2.3523">
        <ele>88</ele>
        <time>2013-10-29T19:53:45.505Z</time>
      </trkpt>
      <trkpt lat="48.88023" lon="2.35231">
        <ele>88</ele>
        <time>2013-10-29T19:53:46.502Z</time>
      </trkpt>
      <trkpt lat="48.88008" lon="2.35232">
        <ele>89</ele>
        <time>2013-10-29T19:53:50.478Z</time>
      </trkpt>
      <trkpt lat="48.88003" lon="2.35232">
        <ele>91</ele>
        <time>2013-10-29T19:53:51.495Z</time>
      </trkpt>
      <trkpt lat="48.87986" lon="2.35229">
        <ele>90</ele>
        <time>2013-10-29T19:53:55.606Z</time>
      </trkpt>
      <trkpt lat="48.87982" lon="2.35228">
        <ele>88</ele>
        <time>2013-10-29T19:53:56.499Z</time>
      </trkpt>
      <trkpt lat="48.87964" lon="2.35228">
        <ele>90</ele>
        <time>2013-10-29T19:54:02.491Z</time>
      </trkpt>
      <trkpt lat="48.87963" lon="2.35227">
        <ele>90</ele>
        <time>2013-10-29T19:54:03.496Z</time>
      </trkpt>
      <trkpt lat="48.87946" lon="2.35232">
        <ele>98</ele>
        <time>2013-10-29T19:54:08.496Z</time>
      </trkpt>
      <trkpt lat="48.87942" lon="2.35235">
        <ele>98</ele>
        <time>2013-10-29T19:54:09.503Z</time>
      </trkpt>
      <trkpt lat="48.87929" lon="2.35246">
        <ele>100</ele>
        <time>2013-10-29T19:54:12.562Z</time>
      </trkpt>
      <trkpt lat="48.87925" lon="2.35248">
        <ele>98</ele>
        <time>2013-10-29T19:54:13.471Z</time>
      </trkpt>
      <trkpt lat="48.87911" lon="2.35255">
        <ele>100</ele>
        <time>2013-10-29T19:54:16.495Z</time>
      </trkpt>
      <trkpt lat="48.87906" lon="2.35256">
        <ele>99</ele>
        <time>2013-10-29T19:54:17.503Z</time>
      </trkpt>
      <trkpt lat="48.87892" lon="2.35257">
        <ele>101</ele>
        <time>2013-10-29T19:54:20.503Z</time>
      </trkpt>
      <trkpt lat="48.87888" lon="2.35257">
        <ele>98</ele>
        <time>2013-10-29T19:54:21.487Z</time>
      </trkpt>
      <trkpt lat="48.87872" lon="2.3526">
        <ele>91</ele>
        <time>2013-10-29T19:54:25.502Z</time>
      </trkpt>
      <trkpt lat="48.87869" lon="2.3526">
        <ele>87</ele>
        <time>2013-10-29T19:54:26.493Z</time>
      </trkpt>
      <trkpt lat="48.87853" lon="2.3525">
        <ele>91</ele>
        <time>2013-10-29T19:54:40.461Z</time>
      </trkpt>
      <trkpt lat="48.87852" lon="2.3525">
        <ele>91</ele>
        <time>2013-10-29T19:54:41.501Z</time>
      </trkpt>
      <trkpt lat="48.87851" lon="2.3525">
        <ele>91</ele>
        <time>2013-10-29T19:54:47.496Z</time>
      </trkpt>
      <trkpt lat="48.87851" lon="2.3525">
        <ele>91</ele>
        <time>2013-10-29T19:54:48.588Z</time>
      </trkpt>
      <trkpt lat="48.87851" lon="2.3525">
        <ele>91</ele>
        <time>2013-10-29T19:55:01.495Z</time>
      </trkpt>
      <trkpt lat="48.87848" lon="2.35247">
        <ele>93</ele>
        <time>2013-10-29T19:55:02.504Z</time>
      </trkpt>
      <trkpt lat="48.87832" lon="2.35236">
        <ele>91</ele>
        <time>2013-10-29T19:55:09.506Z</time>
      </trkpt>
      <trkpt lat="48.87831" lon="2.35235">
        <ele>91</ele>
        <time>2013-10-29T19:55:10.504Z</time>
      </trkpt>
      <trkpt lat="48.87818" lon="2.35226">
        <ele>90</ele>
        <time>2013-10-29T19:55:19.510Z</time>
      </trkpt>
      <trkpt lat="48.87812" lon="2.35224">
        <ele>90</ele>
        <time>2013-10-29T19:55:20.515Z</time>
      </trkpt>
      <trkpt lat="48.87805" lon="2.35208">
        <ele>88</ele>
        <time>2013-10-29T19:55:31.511Z</time>
      </trkpt>
      <trkpt lat="48.87805" lon="2.35208">
        <ele>88</ele>
        <time>2013-10-29T19:55:32.508Z</time>
      </trkpt>
      <trkpt lat="48.87805" lon="2.35209">
        <ele>88</ele>
        <time>2013-10-29T19:55:48.526Z</time>
      </trkpt>
      <trkpt lat="48.87805" lon="2.35206">
        <ele>79</ele>
        <time>2013-10-29T19:55:49.511Z</time>
      </trkpt>
      <trkpt lat="48.87805" lon="2.35193">
        <ele>78</ele>
        <time>2013-10-29T19:55:57.511Z</time>
      </trkpt>
      <trkpt lat="48.87805" lon="2.35194">
        <ele>78</ele>
        <time>2013-10-29T19:55:58.520Z</time>
      </trkpt>
      <trkpt lat="48.87805" lon="2.35194">
        <ele>81</ele>
        <time>2013-10-29T19:56:02.526Z</time>
      </trkpt>
      <trkpt lat="48.87805" lon="2.35195">
        <ele>81</ele>
        <time>2013-10-29T19:56:03.516Z</time>
      </trkpt>
      <trkpt lat="48.8779" lon="2.35206">
        <ele>81</ele>
        <time>2013-10-29T19:56:17.505Z</time>
      </trkpt>
      <trkpt lat="48.87787" lon="2.35205">
        <ele>81</ele>
        <time>2013-10-29T19:56:18.505Z</time>
      </trkpt>
      <trkpt lat="48.8777" lon="2.35202">
        <ele>90</ele>
        <time>2013-10-29T19:56:29.510Z</time>
      </trkpt>
      <trkpt lat="48.87768" lon="2.352">
        <ele>91</ele>
        <time>2013-10-29T19:56:30.503Z</time>
      </trkpt>
      <trkpt lat="48.87759" lon="2.35185">
        <ele>88</ele>
        <time>2013-10-29T19:56:35.525Z</time>
      </trkpt>
      <trkpt lat="48.87757" lon="2.35177">
        <ele>87</ele>
        <time>2013-10-29T19:56:36.509Z</time>
      </trkpt>
      <trkpt lat="48.8775" lon="2.35161">
        <ele>88</ele>
        <time>2013-10-29T19:56:39.491Z</time>
      </trkpt>
      <trkpt lat="48.87746" lon="2.35151">
        <ele>92</ele>
        <time>2013-10-29T19:56:42.531Z</time>
      </trkpt>
      <trkpt lat="48.87731" lon="2.35136">
        <ele>88</ele>
        <time>2013-10-29T19:56:53.503Z</time>
      </trkpt>
      <trkpt lat="48.87729" lon="2.35134">
        <ele>89</ele>
        <time>2013-10-29T19:56:54.503Z</time>
      </trkpt>
      <trkpt lat="48.87713" lon="2.35133">
        <ele>86</ele>
        <time>2013-10-29T19:57:00.481Z</time>
      </trkpt>
      <trkpt lat="48.8771" lon="2.35131">
        <ele>88</ele>
        <time>2013-10-29T19:57:01.518Z</time>
      </trkpt>
      <trkpt lat="48.87696" lon="2.35127">
        <ele>88</ele>
        <time>2013-10-29T19:57:05.515Z</time>
      </trkpt>
      <trkpt lat="48.87692" lon="2.35127">
        <ele>87</ele>
        <time>2013-10-29T19:57:06.517Z</time>
      </trkpt>
      <trkpt lat="48.87674" lon="2.35125">
        <ele>83</ele>
        <time>2013-10-29T19:57:10.513Z</time>
      </trkpt>
      <trkpt lat="48.87671" lon="2.35125">
        <ele>82</ele>
        <time>2013-10-29T19:57:11.516Z</time>
      </trkpt>
      <trkpt lat="48.87654" lon="2.35119">
        <ele>82</ele>
        <time>2013-10-29T19:57:15.621Z</time>
      </trkpt>
      <trkpt lat="48.8765" lon="2.3512">
        <ele>84</ele>
        <time>2013-10-29T19:57:16.456Z</time>
      </trkpt>
      <trkpt lat="48.87634" lon="2.35118">
        <ele>78</ele>
        <time>2013-10-29T19:57:20.514Z</time>
      </trkpt>
      <trkpt lat="48.8763" lon="2.35118">
        <ele>78</ele>
        <time>2013-10-29T19:57:21.514Z</time>
      </trkpt>
      <trkpt lat="48.87615" lon="2.35113">
        <ele>80</ele>
        <time>2013-10-29T19:57:25.514Z</time>
      </trkpt>
      <trkpt lat="48.87612" lon="2.35112">
        <ele>77</ele>
        <time>2013-10-29T19:57:26.516Z</time>
      </trkpt>
      <trkpt lat="48.87594" lon="2.35108">
        <ele>84</ele>
        <time>2013-10-29T19:57:32.511Z</time>
      </trkpt>
      <trkpt lat="48.87591" lon="2.35107">
        <ele>84</ele>
        <time>2013-10-29T19:57:33.516Z</time>
      </trkpt>
      <trkpt lat="48.87575" lon="2.351">
        <ele>88</ele>
        <time>2013-10-29T19:57:38.511Z</time>
      </trkpt>
      <trkpt lat="48.87571" lon="2.35099">
        <ele>89</ele>
        <time>2013-10-29T19:57:39.510Z</time>
      </trkpt>
      <trkpt lat="48.87555" lon="2.35091">
        <ele>86</ele>
        <time>2013-10-29T19:57:44.509Z</time>
      </trkpt>
      <trkpt lat="48.87552" lon="2.3509">
        <ele>86</ele>
        <time>2013-10-29T19:57:45.510Z</time>
      </trkpt>
      <trkpt lat="48.87535" lon="2.35091">
        <ele>73</ele>
        <time>2013-10-29T19:57:52.514Z</time>
      </trkpt>
      <trkpt lat="48.87533" lon="2.3509">
        <ele>72</ele>
        <time>2013-10-29T19:57:53.514Z</time>
      </trkpt>
      <trkpt lat="48.87534" lon="2.35068">
        <ele>86</ele>
        <time>2013-10-29T19:57:58.515Z</time>
      </trkpt>
      <trkpt lat="48.87534" lon="2.35063">
        <ele>84</ele>
        <time>2013-10-29T19:57:59.518Z</time>
      </trkpt>
      <trkpt lat="48.87532" lon="2.35037">
        <ele>82</ele>
        <time>2013-10-29T19:58:04.514Z</time>
      </trkpt>
      <trkpt lat="48.87529" lon="2.35031">
        <ele>84</ele>
        <time>2013-10-29T19:58:05.515Z</time>
      </trkpt>
      <trkpt lat="48.87519" lon="2.35011">
        <ele>85</ele>
        <time>2013-10-29T19:58:08.521Z</time>
      </trkpt>
      <trkpt lat="48.87521" lon="2.35002">
        <ele>86</ele>
        <time>2013-10-29T19:58:09.526Z</time>
      </trkpt>
      <trkpt lat="48.87532" lon="2.34987">
        <ele>86</ele>
        <time>2013-10-29T19:58:11.494Z</time>
      </trkpt>
      <trkpt lat="48.87538" lon="2.34979">
        <ele>85</ele>
        <time>2013-10-29T19:58:12.502Z</time>
      </trkpt>
      <trkpt lat="48.87549" lon="2.34959">
        <ele>89</ele>
        <time>2013-10-29T19:58:15.489Z</time>
      </trkpt>
      <trkpt lat="48.87552" lon="2.34953">
        <ele>89</ele>
        <time>2013-10-29T19:58:16.487Z</time>
      </trkpt>
      <trkpt lat="48.87558" lon="2.34927">
        <ele>91</ele>
        <time>2013-10-29T19:58:20.491Z</time>
      </trkpt>
      <trkpt lat="48.87559" lon="2.3492">
        <ele>91</ele>
        <time>2013-10-29T19:58:21.492Z</time>
      </trkpt>
      <trkpt lat="48.87559" lon="2.349">
        <ele>91</ele>
        <time>2013-10-29T19:58:24.485Z</time>
      </trkpt>
      <trkpt lat="48.87559" lon="2.34893">
        <ele>91</ele>
        <time>2013-10-29T19:58:25.479Z</time>
      </trkpt>
      <trkpt lat="48.87558" lon="2.34871">
        <ele>92</ele>
        <time>2013-10-29T19:58:28.487Z</time>
      </trkpt>
      <trkpt lat="48.87558" lon="2.34863">
        <ele>92</ele>
        <time>2013-10-29T19:58:29.491Z</time>
      </trkpt>
      <trkpt lat="48.8756" lon="2.34837">
        <ele>91</ele>
        <time>2013-10-29T19:58:33.496Z</time>
      </trkpt>
      <trkpt lat="48.87561" lon="2.34831">
        <ele>91</ele>
        <time>2013-10-29T19:58:34.446Z</time>
      </trkpt>
      <trkpt lat="48.87566" lon="2.34806">
        <ele>91</ele>
        <time>2013-10-29T19:58:39.485Z</time>
      </trkpt>
      <trkpt lat="48.87565" lon="2.34804">
        <ele>91</ele>
        <time>2013-10-29T19:58:40.498Z</time>
      </trkpt>
      <trkpt lat="48.87549" lon="2.34807">
        <ele>88</ele>
        <time>2013-10-29T19:58:45.497Z</time>
      </trkpt>
      <trkpt lat="48.87545" lon="2.34808">
        <ele>86</ele>
        <time>2013-10-29T19:58:46.499Z</time>
      </trkpt>
      <trkpt lat="48.87529" lon="2.34811">
        <ele>83</ele>
        <time>2013-10-29T19:58:49.495Z</time>
      </trkpt>
      <trkpt lat="48.87524" lon="2.3481">
        <ele>83</ele>
        <time>2013-10-29T19:58:50.501Z</time>
      </trkpt>
      <trkpt lat="48.87509" lon="2.34807">
        <ele>81</ele>
        <time>2013-10-29T19:58:53.494Z</time>
      </trkpt>
      <trkpt lat="48.87504" lon="2.34806">
        <ele>86</ele>
        <time>2013-10-29T19:58:54.499Z</time>
      </trkpt>
      <trkpt lat="48.87489" lon="2.34805">
        <ele>86</ele>
        <time>2013-10-29T19:58:57.495Z</time>
      </trkpt>
      <trkpt lat="48.87484" lon="2.34806">
        <ele>87</ele>
        <time>2013-10-29T19:58:58.496Z</time>
      </trkpt>
      <trkpt lat="48.8747" lon="2.34811">
        <ele>84</ele>
        <time>2013-10-29T19:59:01.499Z</time>
      </trkpt>
      <trkpt lat="48.87464" lon="2.34813">
        <ele>85</ele>
        <time>2013-10-29T19:59:02.499Z</time>
      </trkpt>
      <trkpt lat="48.87447" lon="2.34813">
        <ele>80</ele>
        <time>2013-10-29T19:59:06.500Z</time>
      </trkpt>
      <trkpt lat="48.87445" lon="2.34809">
        <ele>72</ele>
        <time>2013-10-29T19:59:07.499Z</time>
      </trkpt>
      <trkpt lat="48.87428" lon="2.34803">
        <ele>62</ele>
        <time>2013-10-29T19:59:15.499Z</time>
      </trkpt>
      <trkpt lat="48.87425" lon="2.34805">
        <ele>61</ele>
        <time>2013-10-29T19:59:16.499Z</time>
      </trkpt>
      <trkpt lat="48.87407" lon="2.34807">
        <ele>65</ele>
        <time>2013-10-29T19:59:25.502Z</time>
      </trkpt>
      <trkpt lat="48.87405" lon="2.34806">
        <ele>66</ele>
        <time>2013-10-29T19:59:26.497Z</time>
      </trkpt>
      <trkpt lat="48.87388" lon="2.34803">
        <ele>68</ele>
        <time>2013-10-29T19:59:34.504Z</time>
      </trkpt>
      <trkpt lat="48.87384" lon="2.34804">
        <ele>68</ele>
        <time>2013-10-29T19:59:35.505Z</time>
      </trkpt>
      <trkpt lat="48.8737" lon="2.34805">
        <ele>71</ele>
        <time>2013-10-29T19:59:38.506Z</time>
      </trkpt>
      <trkpt lat="48.87366" lon="2.34805">
        <ele>71</ele>
        <time>2013-10-29T19:59:39.510Z</time>
      </trkpt>
      <trkpt lat="48.87349" lon="2.34804">
        <ele>74</ele>
        <time>2013-10-29T19:59:43.504Z</time>
      </trkpt>
      <trkpt lat="48.87344" lon="2.34804">
        <ele>74</ele>
        <time>2013-10-29T19:59:44.504Z</time>
      </trkpt>
      <trkpt lat="48.8733" lon="2.34801">
        <ele>69</ele>
        <time>2013-10-29T19:59:47.506Z</time>
      </trkpt>
      <trkpt lat="48.87325" lon="2.34801">
        <ele>69</ele>
        <time>2013-10-29T19:59:48.451Z</time>
      </trkpt>
      <trkpt lat="48.87308" lon="2.34803">
        <ele>73</ele>
        <time>2013-10-29T19:59:52.506Z</time>
      </trkpt>
      <trkpt lat="48.87304" lon="2.34803">
        <ele>68</ele>
        <time>2013-10-29T19:59:53.509Z</time>
      </trkpt>
      <trkpt lat="48.8729" lon="2.34799">
        <ele>73</ele>
        <time>2013-10-29T19:59:57.504Z</time>
      </trkpt>
      <trkpt lat="48.87286" lon="2.34799">
        <ele>71</ele>
        <time>2013-10-29T19:59:58.509Z</time>
      </trkpt>
      <trkpt lat="48.8727" lon="2.34799">
        <ele>66</ele>
        <time>2013-10-29T20:00:02.509Z</time>
      </trkpt>
      <trkpt lat="48.87266" lon="2.34798">
        <ele>66</ele>
        <time>2013-10-29T20:00:03.507Z</time>
      </trkpt>
      <trkpt lat="48.87249" lon="2.34796">
        <ele>64</ele>
        <time>2013-10-29T20:00:07.512Z</time>
      </trkpt>
      <trkpt lat="48.87244" lon="2.34796">
        <ele>62</ele>
        <time>2013-10-29T20:00:08.516Z</time>
      </trkpt>
      <trkpt lat="48.87231" lon="2.34798">
        <ele>62</ele>
        <time>2013-10-29T20:00:11.511Z</time>
      </trkpt>
      <trkpt lat="48.87226" lon="2.34798">
        <ele>61</ele>
        <time>2013-10-29T20:00:12.511Z</time>
      </trkpt>
      <trkpt lat="48.87212" lon="2.34797">
        <ele>73</ele>
        <time>2013-10-29T20:00:15.506Z</time>
      </trkpt>
      <trkpt lat="48.87208" lon="2.34798">
        <ele>73</ele>
        <time>2013-10-29T20:00:16.506Z</time>
      </trkpt>
      <trkpt lat="48.87193" lon="2.34799">
        <ele>71</ele>
        <time>2013-10-29T20:00:19.513Z</time>
      </trkpt>
      <trkpt lat="48.87188" lon="2.34799">
        <ele>67</ele>
        <time>2013-10-29T20:00:20.508Z</time>
      </trkpt>
      <trkpt lat="48.8717" lon="2.34802">
        <ele>64</ele>
        <time>2013-10-29T20:00:24.511Z</time>
      </trkpt>
      <trkpt lat="48.87167" lon="2.34802">
        <ele>64</ele>
        <time>2013-10-29T20:00:25.511Z</time>
      </trkpt>
      <trkpt lat="48.8715" lon="2.34808">
        <ele>67</ele>
        <time>2013-10-29T20:00:32.511Z</time>
      </trkpt>
      <trkpt lat="48.87147" lon="2.34809">
        <ele>63</ele>
        <time>2013-10-29T20:00:33.505Z</time>
      </trkpt>
      <trkpt lat="48.87132" lon="2.34813">
        <ele>70</ele>
        <time>2013-10-29T20:00:39.517Z</time>
      </trkpt>
      <trkpt lat="48.87129" lon="2.34813">
        <ele>70</ele>
        <time>2013-10-29T20:00:40.511Z</time>
      </trkpt>
      <trkpt lat="48.87112" lon="2.34806">
        <ele>69</ele>
        <time>2013-10-29T20:00:47.515Z</time>
      </trkpt>
      <trkpt lat="48.87109" lon="2.34805">
        <ele>67</ele>
        <time>2013-10-29T20:00:48.478Z</time>
      </trkpt>
      <trkpt lat="48.87094" lon="2.34805">
        <ele>69</ele>
        <time>2013-10-29T20:00:53.599Z</time>
      </trkpt>
      <trkpt lat="48.87091" lon="2.34803">
        <ele>69</ele>
        <time>2013-10-29T20:00:54.512Z</time>
      </trkpt>
      <trkpt lat="48.87075" lon="2.34798">
        <ele>73</ele>
        <time>2013-10-29T20:01:09.515Z</time>
      </trkpt>
      <trkpt lat="48.87075" lon="2.34798">
        <ele>71</ele>
        <time>2013-10-29T20:01:10.518Z</time>
      </trkpt>
      <trkpt lat="48.87076" lon="2.34799">
        <ele>75</ele>
        <time>2013-10-29T20:01:11.522Z</time>
      </trkpt>
      <trkpt lat="48.87076" lon="2.34807">
        <ele>78</ele>
        <time>2013-10-29T20:01:19.550Z</time>
      </trkpt>
      <trkpt lat="48.87076" lon="2.34807">
        <ele>82</ele>
        <time>2013-10-29T20:01:20.513Z</time>
      </trkpt>
      <trkpt lat="48.87076" lon="2.34806">
        <ele>87</ele>
        <time>2013-10-29T20:01:30.521Z</time>
      </trkpt>
      <trkpt lat="48.87075" lon="2.34806">
        <ele>84</ele>
        <time>2013-10-29T20:01:31.524Z</time>
      </trkpt>
      <trkpt lat="48.87059" lon="2.34807">
        <ele>85</ele>
        <time>2013-10-29T20:01:36.517Z</time>
      </trkpt>
      <trkpt lat="48.87054" lon="2.34806">
        <ele>85</ele>
        <time>2013-10-29T20:01:37.527Z</time>
      </trkpt>
      <trkpt lat="48.87038" lon="2.34804">
        <ele>83</ele>
        <time>2013-10-29T20:01:41.518Z</time>
      </trkpt>
      <trkpt lat="48.87034" lon="2.34804">
        <ele>85</ele>
        <time>2013-10-29T20:01:42.519Z</time>
      </trkpt>
      <trkpt lat="48.8702" lon="2.34807">
        <ele>81</ele>
        <time>2013-10-29T20:01:46.511Z</time>
      </trkpt>
      <trkpt lat="48.87016" lon="2.34808">
        <ele>80</ele>
        <time>2013-10-29T20:01:47.512Z</time>
      </trkpt>
      <trkpt lat="48.86999" lon="2.34811">
        <ele>88</ele>
        <time>2013-10-29T20:01:52.507Z</time>
      </trkpt>
      <trkpt lat="48.86989" lon="2.34814">
        <ele>90</ele>
        <time>2013-10-29T20:01:55.502Z</time>
      </trkpt>
      <trkpt lat="48.86978" lon="2.34834">
        <ele>90</ele>
        <time>2013-10-29T20:02:02.510Z</time>
      </trkpt>
      <trkpt lat="48.86976" lon="2.34836">
        <ele>90</ele>
        <time>2013-10-29T20:02:03.510Z</time>
      </trkpt>
      <trkpt lat="48.86959" lon="2.3484">
        <ele>93</ele>
        <time>2013-10-29T20:02:09.510Z</time>
      </trkpt>
      <trkpt lat="48.86955" lon="2.34841">
        <ele>92</ele>
        <time>2013-10-29T20:02:10.511Z</time>
      </trkpt>
      <trkpt lat="48.86938" lon="2.34843">
        <ele>90</ele>
        <time>2013-10-29T20:02:15.515Z</time>
      </trkpt>
      <trkpt lat="48.86934" lon="2.34842">
        <ele>91</ele>
        <time>2013-10-29T20:02:16.511Z</time>
      </trkpt>
      <trkpt lat="48.86917" lon="2.34838">
        <ele>92</ele>
        <time>2013-10-29T20:02:24.516Z</time>
      </trkpt>
      <trkpt lat="48.86915" lon="2.34833">
        <ele>90</ele>
        <time>2013-10-29T20:02:25.516Z</time>
      </trkpt>
      <trkpt lat="48.86912" lon="2.34808">
        <ele>90</ele>
        <time>2013-10-29T20:02:28.544Z</time>
      </trkpt>
      <trkpt lat="48.8691" lon="2.34803">
        <ele>91</ele>
        <time>2013-10-29T20:02:29.518Z</time>
      </trkpt>
      <trkpt lat="48.86903" lon="2.34779">
        <ele>87</ele>
        <time>2013-10-29T20:02:35.519Z</time>
      </trkpt>
      <trkpt lat="48.86901" lon="2.34776">
        <ele>88</ele>
        <time>2013-10-29T20:02:36.514Z</time>
      </trkpt>
      <trkpt lat="48.86885" lon="2.34777">
        <ele>83</ele>
        <time>2013-10-29T20:02:40.518Z</time>
      </trkpt>
      <trkpt lat="48.8688" lon="2.34778">
        <ele>81</ele>
        <time>2013-10-29T20:02:41.524Z</time>
      </trkpt>
      <trkpt lat="48.86866" lon="2.3478">
        <ele>81</ele>
        <time>2013-10-29T20:02:44.549Z</time>
      </trkpt>
      <trkpt lat="48.86862" lon="2.3478">
        <ele>80</ele>
        <time>2013-10-29T20:02:45.513Z</time>
      </trkpt>
      <trkpt lat="48.86845" lon="2.34783">
        <ele>81</ele>
        <time>2013-10-29T20:02:49.517Z</time>
      </trkpt>
      <trkpt lat="48.86841" lon="2.34784">
        <ele>88</ele>
        <time>2013-10-29T20:02:50.516Z</time>
      </trkpt>
      <trkpt lat="48.86825" lon="2.34784">
        <ele>92</ele>
        <time>2013-10-29T20:02:55.524Z</time>
      </trkpt>
      <trkpt lat="48.86823" lon="2.34783">
        <ele>90</ele>
        <time>2013-10-29T20:02:56.520Z</time>
      </trkpt>
      <trkpt lat="48.86809" lon="2.34768">
        <ele>92</ele>
        <time>2013-10-29T20:03:04.515Z</time>
      </trkpt>
      <trkpt lat="48.86805" lon="2.34764">
        <ele>90</ele>
        <time>2013-10-29T20:03:06.516Z</time>
      </trkpt>
      <trkpt lat="48.86788" lon="2.3476">
        <ele>94</ele>
        <time>2013-10-29T20:03:13.517Z</time>
      </trkpt>
      <trkpt lat="48.86784" lon="2.34759">
        <ele>89</ele>
        <time>2013-10-29T20:03:14.518Z</time>
      </trkpt>
      <trkpt lat="48.86772" lon="2.34739">
        <ele>83</ele>
        <time>2013-10-29T20:03:24.526Z</time>
      </trkpt>
      <trkpt lat="48.8677" lon="2.34738">
        <ele>81</ele>
        <time>2013-10-29T20:03:25.522Z</time>
      </trkpt>
      <trkpt lat="48.86754" lon="2.34736">
        <ele>76</ele>
        <time>2013-10-29T20:03:30.504Z</time>
      </trkpt>
      <trkpt lat="48.86751" lon="2.34737">
        <ele>73</ele>
        <time>2013-10-29T20:03:31.504Z</time>
      </trkpt>
      <trkpt lat="48.8674" lon="2.34732">
        <ele>79</ele>
        <time>2013-10-29T20:03:44.507Z</time>
      </trkpt>
      <trkpt lat="48.8674" lon="2.34732">
        <ele>81</ele>
        <time>2013-10-29T20:03:45.512Z</time>
      </trkpt>
      <trkpt lat="48.86741" lon="2.34732">
        <ele>87</ele>
        <time>2013-10-29T20:04:07.519Z</time>
      </trkpt>
      <trkpt lat="48.86742" lon="2.34731">
        <ele>88</ele>
        <time>2013-10-29T20:04:08.501Z</time>
      </trkpt>
      <trkpt lat="48.86727" lon="2.34723">
        <ele>87</ele>
        <time>2013-10-29T20:04:20.508Z</time>
      </trkpt>
      <trkpt lat="48.86724" lon="2.34722">
        <ele>88</ele>
        <time>2013-10-29T20:04:21.516Z</time>
      </trkpt>
      <trkpt lat="48.8671" lon="2.34728">
        <ele>87</ele>
        <time>2013-10-29T20:04:24.513Z</time>
      </trkpt>
      <trkpt lat="48.86705" lon="2.34729">
        <ele>87</ele>
        <time>2013-10-29T20:04:25.514Z</time>
      </trkpt>
      <trkpt lat="48.86692" lon="2.34735">
        <ele>85</ele>
        <time>2013-10-29T20:04:28.507Z</time>
      </trkpt>
      <trkpt lat="48.86688" lon="2.34737">
        <ele>81</ele>
        <time>2013-10-29T20:04:29.515Z</time>
      </trkpt>
      <trkpt lat="48.86671" lon="2.3474">
        <ele>77</ele>
        <time>2013-10-29T20:04:33.507Z</time>
      </trkpt>
      <trkpt lat="48.86667" lon="2.34739">
        <ele>76</ele>
        <time>2013-10-29T20:04:34.473Z</time>
      </trkpt>
      <trkpt lat="48.86651" lon="2.34735">
        <ele>75</ele>
        <time>2013-10-29T20:04:38.503Z</time>
      </trkpt>
      <trkpt lat="48.86646" lon="2.34733">
        <ele>74</ele>
        <time>2013-10-29T20:04:39.508Z</time>
      </trkpt>
      <trkpt lat="48.86631" lon="2.34725">
        <ele>83</ele>
        <time>2013-10-29T20:04:44.499Z</time>
      </trkpt>
      <trkpt lat="48.86628" lon="2.34723">
        <ele>82</ele>
        <time>2013-10-29T20:04:45.505Z</time>
      </trkpt>
      <trkpt lat="48.86611" lon="2.34724">
        <ele>91</ele>
        <time>2013-10-29T20:04:54.503Z</time>
      </trkpt>
      <trkpt lat="48.86609" lon="2.34727">
        <ele>91</ele>
        <time>2013-10-29T20:04:55.498Z</time>
      </trkpt>
      <trkpt lat="48.86601" lon="2.34743">
        <ele>92</ele>
        <time>2013-10-29T20:05:01.500Z</time>
      </trkpt>
      <trkpt lat="48.86599" lon="2.34749">
        <ele>93</ele>
        <time>2013-10-29T20:05:03.500Z</time>
      </trkpt>
      <trkpt lat="48.86589" lon="2.34769">
        <ele>94</ele>
        <time>2013-10-29T20:05:08.501Z</time>
      </trkpt>
      <trkpt lat="48.86587" lon="2.34775">
        <ele>92</ele>
        <time>2013-10-29T20:05:09.497Z</time>
      </trkpt>
      <trkpt lat="48.86578" lon="2.34797">
        <ele>92</ele>
        <time>2013-10-29T20:05:13.497Z</time>
      </trkpt>
      <trkpt lat="48.86576" lon="2.34804">
        <ele>93</ele>
        <time>2013-10-29T20:05:14.499Z</time>
      </trkpt>
      <trkpt lat="48.86576" lon="2.3483">
        <ele>94</ele>
        <time>2013-10-29T20:05:16.506Z</time>
      </trkpt>
      <trkpt lat="48.86578" lon="2.34845">
        <ele>93</ele>
        <time>2013-10-29T20:05:17.505Z</time>
      </trkpt>
      <trkpt lat="48.86579" lon="2.34862">
        <ele>93</ele>
        <time>2013-10-29T20:05:18.504Z</time>
      </trkpt>
      <trkpt lat="48.86582" lon="2.34879">
        <ele>93</ele>
        <time>2013-10-29T20:05:19.511Z</time>
      </trkpt>
      <trkpt lat="48.86586" lon="2.34902">
        <ele>92</ele>
        <time>2013-10-29T20:05:21.503Z</time>
      </trkpt>
      <trkpt lat="48.86588" lon="2.34909">
        <ele>93</ele>
        <time>2013-10-29T20:05:22.503Z</time>
      </trkpt>
      <trkpt lat="48.86584" lon="2.34919">
        <ele>92</ele>
        <time>2013-10-29T20:05:27.506Z</time>
      </trkpt>
      <trkpt lat="48.86545" lon="2.34884">
        <ele>95</ele>
        <time>2013-10-29T20:05:52.548Z</time>
      </trkpt>
      <trkpt lat="48.86535" lon="2.34904">
        <ele>103</ele>
        <time>2013-10-29T20:05:59.677Z</time>
      </trkpt>
      <trkpt lat="48.86533" lon="2.34907">
        <ele>99</ele>
        <time>2013-10-29T20:06:00.526Z</time>
      </trkpt>
      <trkpt lat="48.86527" lon="2.34926">
        <ele>99</ele>
        <time>2013-10-29T20:06:04.527Z</time>
      </trkpt>
      <trkpt lat="48.86525" lon="2.34932">
        <ele>101</ele>
        <time>2013-10-29T20:06:05.527Z</time>
      </trkpt>
      <trkpt lat="48.8652" lon="2.34955">
        <ele>98</ele>
        <time>2013-10-29T20:06:08.514Z</time>
      </trkpt>
      <trkpt lat="48.86518" lon="2.34962">
        <ele>95</ele>
        <time>2013-10-29T20:06:09.511Z</time>
      </trkpt>
      <trkpt lat="48.86511" lon="2.34986">
        <ele>92</ele>
        <time>2013-10-29T20:06:13.512Z</time>
      </trkpt>
      <trkpt lat="48.86509" lon="2.34991">
        <ele>93</ele>
        <time>2013-10-29T20:06:14.520Z</time>
      </trkpt>
      <trkpt lat="48.86501" lon="2.35011">
        <ele>91</ele>
        <time>2013-10-29T20:06:19.543Z</time>
      </trkpt>
      <trkpt lat="48.865" lon="2.35016">
        <ele>90</ele>
        <time>2013-10-29T20:06:20.514Z</time>
      </trkpt>
      <trkpt lat="48.86487" lon="2.35033">
        <ele>81</ele>
        <time>2013-10-29T20:06:28.518Z</time>
      </trkpt>
      <trkpt lat="48.86483" lon="2.35032">
        <ele>84</ele>
        <time>2013-10-29T20:06:29.530Z</time>
      </trkpt>
      <trkpt lat="48.86467" lon="2.35026">
        <ele>81</ele>
        <time>2013-10-29T20:06:33.522Z</time>
      </trkpt>
      <trkpt lat="48.86463" lon="2.35026">
        <ele>82</ele>
        <time>2013-10-29T20:06:34.470Z</time>
      </trkpt>
      <trkpt lat="48.86446" lon="2.35026">
        <ele>82</ele>
        <time>2013-10-29T20:06:39.514Z</time>
      </trkpt>
      <trkpt lat="48.86443" lon="2.35026">
        <ele>84</ele>
        <time>2013-10-29T20:06:40.524Z</time>
      </trkpt>
      <trkpt lat="48.86427" lon="2.35027">
        <ele>80</ele>
        <time>2013-10-29T20:06:45.526Z</time>
      </trkpt>
      <trkpt lat="48.86424" lon="2.35027">
        <ele>79</ele>
        <time>2013-10-29T20:06:46.518Z</time>
      </trkpt>
      <trkpt lat="48.86423" lon="2.35008">
        <ele>74</ele>
        <time>2013-10-29T20:07:06.551Z</time>
      </trkpt>
      <trkpt lat="48.86422" lon="2.35009">
        <ele>69</ele>
        <time>2013-10-29T20:07:07.521Z</time>
      </trkpt>
      <trkpt lat="48.86421" lon="2.35009">
        <ele>77</ele>
        <time>2013-10-29T20:07:16.530Z</time>
      </trkpt>
      <trkpt lat="48.8642" lon="2.3501">
        <ele>78</ele>
        <time>2013-10-29T20:07:17.531Z</time>
      </trkpt>
      <trkpt lat="48.86402" lon="2.35009">
        <ele>78</ele>
        <time>2013-10-29T20:07:31.522Z</time>
      </trkpt>
      <trkpt lat="48.86399" lon="2.35009">
        <ele>74</ele>
        <time>2013-10-29T20:07:32.524Z</time>
      </trkpt>
      <trkpt lat="48.86381" lon="2.35011">
        <ele>73</ele>
        <time>2013-10-29T20:07:37.524Z</time>
      </trkpt>
      <trkpt lat="48.86378" lon="2.35011">
        <ele>76</ele>
        <time>2013-10-29T20:07:38.521Z</time>
      </trkpt>
      <trkpt lat="48.86363" lon="2.35021">
        <ele>74</ele>
        <time>2013-10-29T20:07:46.522Z</time>
      </trkpt>
      <trkpt lat="48.86361" lon="2.35024">
        <ele>73</ele>
        <time>2013-10-29T20:07:47.522Z</time>
      </trkpt>
      <trkpt lat="48.86351" lon="2.35041">
        <ele>90</ele>
        <time>2013-10-29T20:07:51.520Z</time>
      </trkpt>
      <trkpt lat="48.86349" lon="2.35046">
        <ele>91</ele>
        <time>2013-10-29T20:07:52.519Z</time>
      </trkpt>
      <trkpt lat="48.8634" lon="2.3507">
        <ele>94</ele>
        <time>2013-10-29T20:07:59.535Z</time>
      </trkpt>
      <trkpt lat="48.86341" lon="2.35073">
        <ele>95</ele>
        <time>2013-10-29T20:08:00.492Z</time>
      </trkpt>
      <trkpt lat="48.86335" lon="2.35098">
        <ele>84</ele>
        <time>2013-10-29T20:08:15.534Z</time>
      </trkpt>
      <trkpt lat="48.86335" lon="2.35103">
        <ele>84</ele>
        <time>2013-10-29T20:08:16.538Z</time>
      </trkpt>
      <trkpt lat="48.86333" lon="2.35125">
        <ele>82</ele>
        <time>2013-10-29T20:08:19.539Z</time>
      </trkpt>
      <trkpt lat="48.86332" lon="2.35132">
        <ele>81</ele>
        <time>2013-10-29T20:08:20.539Z</time>
      </trkpt>
      <trkpt lat="48.86327" lon="2.35156">
        <ele>86</ele>
        <time>2013-10-29T20:08:24.531Z</time>
      </trkpt>
      <trkpt lat="48.86326" lon="2.35162">
        <ele>85</ele>
        <time>2013-10-29T20:08:25.535Z</time>
      </trkpt>
      <trkpt lat="48.86321" lon="2.35182">
        <ele>85</ele>
        <time>2013-10-29T20:08:29.542Z</time>
      </trkpt>
      <trkpt lat="48.8632" lon="2.35187">
        <ele>85</ele>
        <time>2013-10-29T20:08:30.540Z</time>
      </trkpt>
      <trkpt lat="48.86315" lon="2.35206">
        <ele>89</ele>
        <time>2013-10-29T20:08:33.542Z</time>
      </trkpt>
      <trkpt lat="48.86315" lon="2.35214">
        <ele>89</ele>
        <time>2013-10-29T20:08:34.482Z</time>
      </trkpt>
      <trkpt lat="48.86313" lon="2.35239">
        <ele>89</ele>
        <time>2013-10-29T20:08:37.534Z</time>
      </trkpt>
      <trkpt lat="48.86312" lon="2.35247">
        <ele>87</ele>
        <time>2013-10-29T20:08:38.550Z</time>
      </trkpt>
      <trkpt lat="48.86309" lon="2.35272">
        <ele>90</ele>
        <time>2013-10-29T20:08:41.550Z</time>
      </trkpt>
      <trkpt lat="48.86306" lon="2.3528">
        <ele>87</ele>
        <time>2013-10-29T20:08:42.508Z</time>
      </trkpt>
      <trkpt lat="48.86299" lon="2.35303">
        <ele>88</ele>
        <time>2013-10-29T20:08:45.523Z</time>
      </trkpt>
      <trkpt lat="48.86297" lon="2.35309">
        <ele>91</ele>
        <time>2013-10-29T20:08:46.531Z</time>
      </trkpt>
      <trkpt lat="48.86291" lon="2.35328">
        <ele>91</ele>
        <time>2013-10-29T20:08:49.504Z</time>
      </trkpt>
      <trkpt lat="48.8629" lon="2.35335">
        <ele>90</ele>
        <time>2013-10-29T20:08:50.518Z</time>
      </trkpt>
      <trkpt lat="48.86284" lon="2.35358">
        <ele>88</ele>
        <time>2013-10-29T20:08:54.519Z</time>
      </trkpt>
      <trkpt lat="48.86282" lon="2.35364">
        <ele>88</ele>
        <time>2013-10-29T20:08:55.508Z</time>
      </trkpt>
      <trkpt lat="48.86277" lon="2.35387">
        <ele>83</ele>
        <time>2013-10-29T20:08:59.509Z</time>
      </trkpt>
      <trkpt lat="48.86276" lon="2.35393">
        <ele>84</ele>
        <time>2013-10-29T20:09:00.478Z</time>
      </trkpt>
      <trkpt lat="48.86268" lon="2.35413">
        <ele>83</ele>
        <time>2013-10-29T20:09:05.526Z</time>
      </trkpt>
      <trkpt lat="48.86265" lon="2.35415">
        <ele>87</ele>
        <time>2013-10-29T20:09:06.519Z</time>
      </trkpt>
      <trkpt lat="48.86252" lon="2.35416">
        <ele>86</ele>
        <time>2013-10-29T20:09:09.511Z</time>
      </trkpt>
      <trkpt lat="48.86247" lon="2.35414">
        <ele>86</ele>
        <time>2013-10-29T20:09:10.520Z</time>
      </trkpt>
      <trkpt lat="48.86232" lon="2.35404">
        <ele>87</ele>
        <time>2013-10-29T20:09:13.511Z</time>
      </trkpt>
      <trkpt lat="48.86227" lon="2.35401">
        <ele>86</ele>
        <time>2013-10-29T20:09:14.518Z</time>
      </trkpt>
      <trkpt lat="48.86211" lon="2.3539">
        <ele>82</ele>
        <time>2013-10-29T20:09:18.504Z</time>
      </trkpt>
      <trkpt lat="48.86207" lon="2.35388">
        <ele>80</ele>
        <time>2013-10-29T20:09:19.512Z</time>
      </trkpt>
      <trkpt lat="48.86191" lon="2.35378">
        <ele>81</ele>
        <time>2013-10-29T20:09:23.536Z</time>
      </trkpt>
      <trkpt lat="48.86187" lon="2.35376">
        <ele>77</ele>
        <time>2013-10-29T20:09:24.511Z</time>
      </trkpt>
      <trkpt lat="48.86169" lon="2.3537">
        <ele>75</ele>
        <time>2013-10-29T20:09:28.523Z</time>
      </trkpt>
      <trkpt lat="48.86165" lon="2.35369">
        <ele>75</ele>
        <time>2013-10-29T20:09:29.517Z</time>
      </trkpt>
      <trkpt lat="48.86151" lon="2.35362">
        <ele>73</ele>
        <time>2013-10-29T20:09:32.516Z</time>
      </trkpt>
      <trkpt lat="48.86146" lon="2.3536">
        <ele>73</ele>
        <time>2013-10-29T20:09:33.518Z</time>
      </trkpt>
      <trkpt lat="48.86132" lon="2.35355">
        <ele>74</ele>
        <time>2013-10-29T20:09:36.516Z</time>
      </trkpt>
      <trkpt lat="48.86128" lon="2.35354">
        <ele>74</ele>
        <time>2013-10-29T20:09:37.518Z</time>
      </trkpt>
      <trkpt lat="48.86115" lon="2.3535">
        <ele>78</ele>
        <time>2013-10-29T20:09:40.524Z</time>
      </trkpt>
      <trkpt lat="48.8611" lon="2.35348">
        <ele>78</ele>
        <time>2013-10-29T20:09:41.530Z</time>
      </trkpt>
      <trkpt lat="48.86094" lon="2.3534">
        <ele>79</ele>
        <time>2013-10-29T20:09:44.515Z</time>
      </trkpt>
      <trkpt lat="48.86089" lon="2.35338">
        <ele>80</ele>
        <time>2013-10-29T20:09:45.515Z</time>
      </trkpt>
      <trkpt lat="48.86076" lon="2.3533">
        <ele>83</ele>
        <time>2013-10-29T20:09:48.516Z</time>
      </trkpt>
      <trkpt lat="48.86071" lon="2.35327">
        <ele>79</ele>
        <time>2013-10-29T20:09:49.512Z</time>
      </trkpt>
      <trkpt lat="48.86058" lon="2.35318">
        <ele>80</ele>
        <time>2013-10-29T20:09:52.520Z</time>
      </trkpt>
      <trkpt lat="48.86054" lon="2.35314">
        <ele>82</ele>
        <time>2013-10-29T20:09:53.520Z</time>
      </trkpt>
      <trkpt lat="48.86041" lon="2.35306">
        <ele>77</ele>
        <time>2013-10-29T20:09:56.517Z</time>
      </trkpt>
      <trkpt lat="48.86036" lon="2.35303">
        <ele>74</ele>
        <time>2013-10-29T20:09:57.516Z</time>
      </trkpt>
      <trkpt lat="48.86023" lon="2.35293">
        <ele>76</ele>
        <time>2013-10-29T20:10:00.479Z</time>
      </trkpt>
      <trkpt lat="48.86019" lon="2.3529">
        <ele>73</ele>
        <time>2013-10-29T20:10:01.515Z</time>
      </trkpt>
      <trkpt lat="48.86002" lon="2.35279">
        <ele>74</ele>
        <time>2013-10-29T20:10:05.516Z</time>
      </trkpt>
      <trkpt lat="48.85998" lon="2.35276">
        <ele>75</ele>
        <time>2013-10-29T20:10:06.516Z</time>
      </trkpt>
      <trkpt lat="48.85982" lon="2.35267">
        <ele>75</ele>
        <time>2013-10-29T20:10:10.524Z</time>
      </trkpt>
      <trkpt lat="48.85978" lon="2.35264">
        <ele>75</ele>
        <time>2013-10-29T20:10:11.520Z</time>
      </trkpt>
      <trkpt lat="48.85962" lon="2.35255">
        <ele>78</ele>
        <time>2013-10-29T20:10:15.524Z</time>
      </trkpt>
      <trkpt lat="48.85958" lon="2.35252">
        <ele>80</ele>
        <time>2013-10-29T20:10:16.520Z</time>
      </trkpt>
      <trkpt lat="48.85943" lon="2.35244">
        <ele>76</ele>
        <time>2013-10-29T20:10:20.519Z</time>
      </trkpt>
      <trkpt lat="48.85939" lon="2.35242">
        <ele>75</ele>
        <time>2013-10-29T20:10:21.516Z</time>
      </trkpt>
      <trkpt lat="48.85923" lon="2.35236">
        <ele>80</ele>
        <time>2013-10-29T20:10:25.522Z</time>
      </trkpt>
      <trkpt lat="48.85919" lon="2.35234">
        <ele>80</ele>
        <time>2013-10-29T20:10:26.522Z</time>
      </trkpt>
      <trkpt lat="48.85902" lon="2.35223">
        <ele>85</ele>
        <time>2013-10-29T20:10:30.526Z</time>
      </trkpt>
      <trkpt lat="48.85898" lon="2.35222">
        <ele>85</ele>
        <time>2013-10-29T20:10:31.527Z</time>
      </trkpt>
      <trkpt lat="48.85883" lon="2.35215">
        <ele>82</ele>
        <time>2013-10-29T20:10:35.527Z</time>
      </trkpt>
      <trkpt lat="48.8588" lon="2.35213">
        <ele>83</ele>
        <time>2013-10-29T20:10:36.522Z</time>
      </trkpt>
      <trkpt lat="48.85863" lon="2.35206">
        <ele>77</ele>
        <time>2013-10-29T20:10:41.526Z</time>
      </trkpt>
      <trkpt lat="48.8586" lon="2.35205">
        <ele>79</ele>
        <time>2013-10-29T20:10:42.522Z</time>
      </trkpt>
      <trkpt lat="48.85842" lon="2.352">
        <ele>85</ele>
        <time>2013-10-29T20:10:46.531Z</time>
      </trkpt>
      <trkpt lat="48.85838" lon="2.35199">
        <ele>84</ele>
        <time>2013-10-29T20:10:47.531Z</time>
      </trkpt>
      <trkpt lat="48.85824" lon="2.35197">
        <ele>82</ele>
        <time>2013-10-29T20:10:51.530Z</time>
      </trkpt>
      <trkpt lat="48.8582" lon="2.35196">
        <ele>81</ele>
        <time>2013-10-29T20:10:52.529Z</time>
      </trkpt>
      <trkpt lat="48.85805" lon="2.3519">
        <ele>79</ele>
        <time>2013-10-29T20:10:56.593Z</time>
      </trkpt>
      <trkpt lat="48.85802" lon="2.35188">
        <ele>77</ele>
        <time>2013-10-29T20:10:57.529Z</time>
      </trkpt>
      <trkpt lat="48.85785" lon="2.3518">
        <ele>80</ele>
        <time>2013-10-29T20:11:01.509Z</time>
      </trkpt>
      <trkpt lat="48.85781" lon="2.35178">
        <ele>79</ele>
        <time>2013-10-29T20:11:02.531Z</time>
      </trkpt>
      <trkpt lat="48.85768" lon="2.35164">
        <ele>81</ele>
        <time>2013-10-29T20:11:06.521Z</time>
      </trkpt>
      <trkpt lat="48.85765" lon="2.35161">
        <ele>80</ele>
        <time>2013-10-29T20:11:07.526Z</time>
      </trkpt>
      <trkpt lat="48.85758" lon="2.35143">
        <ele>84</ele>
        <time>2013-10-29T20:11:21.527Z</time>
      </trkpt>
      <trkpt lat="48.85758" lon="2.35144">
        <ele>84</ele>
        <time>2013-10-29T20:11:22.532Z</time>
      </trkpt>
      <trkpt lat="48.85758" lon="2.35145">
        <ele>100</ele>
        <time>2013-10-29T20:11:40.520Z</time>
      </trkpt>
      <trkpt lat="48.85759" lon="2.35146">
        <ele>97</ele>
        <time>2013-10-29T20:11:41.527Z</time>
      </trkpt>
      <trkpt lat="48.85758" lon="2.35172">
        <ele>100</ele>
        <time>2013-10-29T20:11:50.527Z</time>
      </trkpt>
      <trkpt lat="48.85757" lon="2.35176">
        <ele>95</ele>
        <time>2013-10-29T20:11:51.524Z</time>
      </trkpt>
      <trkpt lat="48.8575" lon="2.35196">
        <ele>98</ele>
        <time>2013-10-29T20:11:55.520Z</time>
      </trkpt>
      <trkpt lat="48.85749" lon="2.35203">
        <ele>98</ele>
        <time>2013-10-29T20:11:56.522Z</time>
      </trkpt>
      <trkpt lat="48.85745" lon="2.35226">
        <ele>90</ele>
        <time>2013-10-29T20:11:59.526Z</time>
      </trkpt>
      <trkpt lat="48.85743" lon="2.35232">
        <ele>93</ele>
        <time>2013-10-29T20:12:00.481Z</time>
      </trkpt>
      <trkpt lat="48.85733" lon="2.35253">
        <ele>88</ele>
        <time>2013-10-29T20:12:06.527Z</time>
      </trkpt>
      <trkpt lat="48.85731" lon="2.35256">
        <ele>88</ele>
        <time>2013-10-29T20:12:07.522Z</time>
      </trkpt>
      <trkpt lat="48.85714" lon="2.35258">
        <ele>89</ele>
        <time>2013-10-29T20:12:30.530Z</time>
      </trkpt>
      <trkpt lat="48.85713" lon="2.35262">
        <ele>89</ele>
        <time>2013-10-29T20:12:31.528Z</time>
      </trkpt>
      <trkpt lat="48.8571" lon="2.35287">
        <ele>87</ele>
        <time>2013-10-29T20:12:35.527Z</time>
      </trkpt>
      <trkpt lat="48.8571" lon="2.35294">
        <ele>88</ele>
        <time>2013-10-29T20:12:36.534Z</time>
      </trkpt>
      <trkpt lat="48.85707" lon="2.3532">
        <ele>87</ele>
        <time>2013-10-29T20:12:40.542Z</time>
      </trkpt>
      <trkpt lat="48.85707" lon="2.35325">
        <ele>91</ele>
        <time>2013-10-29T20:12:41.540Z</time>
      </trkpt>
      <trkpt lat="48.85703" lon="2.35351">
        <ele>80</ele>
        <time>2013-10-29T20:12:45.538Z</time>
      </trkpt>
      <trkpt lat="48.85702" lon="2.35356">
        <ele>81</ele>
        <time>2013-10-29T20:12:46.546Z</time>
      </trkpt>
      <trkpt lat="48.85691" lon="2.3537">
        <ele>79</ele>
        <time>2013-10-29T20:12:50.543Z</time>
      </trkpt>
      <trkpt lat="48.85685" lon="2.3537">
        <ele>81</ele>
        <time>2013-10-29T20:12:51.543Z</time>
      </trkpt>
      <trkpt lat="48.85668" lon="2.35365">
        <ele>75</ele>
        <time>2013-10-29T20:12:54.535Z</time>
      </trkpt>
      <trkpt lat="48.85663" lon="2.35361">
        <ele>73</ele>
        <time>2013-10-29T20:12:55.538Z</time>
      </trkpt>
      <trkpt lat="48.85647" lon="2.35349">
        <ele>73</ele>
        <time>2013-10-29T20:12:59.576Z</time>
      </trkpt>
      <trkpt lat="48.85644" lon="2.35347">
        <ele>73</ele>
        <time>2013-10-29T20:13:00.521Z</time>
      </trkpt>
      <trkpt lat="48.85628" lon="2.35335">
        <ele>73</ele>
        <time>2013-10-29T20:13:05.534Z</time>
      </trkpt>
      <trkpt lat="48.85624" lon="2.35333">
        <ele>74</ele>
        <time>2013-10-29T20:13:06.534Z</time>
      </trkpt>
      <trkpt lat="48.85611" lon="2.35323">
        <ele>73</ele>
        <time>2013-10-29T20:13:10.530Z</time>
      </trkpt>
      <trkpt lat="48.85607" lon="2.3532">
        <ele>74</ele>
        <time>2013-10-29T20:13:11.530Z</time>
      </trkpt>
      <trkpt lat="48.85593" lon="2.35313">
        <ele>75</ele>
        <time>2013-10-29T20:13:14.528Z</time>
      </trkpt>
      <trkpt lat="48.85587" lon="2.35311">
        <ele>74</ele>
        <time>2013-10-29T20:13:15.536Z</time>
      </trkpt>
      <trkpt lat="48.85574" lon="2.35305">
        <ele>73</ele>
        <time>2013-10-29T20:13:18.538Z</time>
      </trkpt>
      <trkpt lat="48.85569" lon="2.35303">
        <ele>75</ele>
        <time>2013-10-29T20:13:19.536Z</time>
      </trkpt>
      <trkpt lat="48.85554" lon="2.35298">
        <ele>77</ele>
        <time>2013-10-29T20:13:23.542Z</time>
      </trkpt>
      <trkpt lat="48.85551" lon="2.35298">
        <ele>78</ele>
        <time>2013-10-29T20:13:24.539Z</time>
      </trkpt>
      <trkpt lat="48.85534" lon="2.35299">
        <ele>72</ele>
        <time>2013-10-29T20:13:33.534Z</time>
      </trkpt>
      <trkpt lat="48.85532" lon="2.35298">
        <ele>76</ele>
        <time>2013-10-29T20:13:34.538Z</time>
      </trkpt>
      <trkpt lat="48.8552" lon="2.35287">
        <ele>82</ele>
        <time>2013-10-29T20:13:54.534Z</time>
      </trkpt>
      <trkpt lat="48.85519" lon="2.35288">
        <ele>82</ele>
        <time>2013-10-29T20:13:55.538Z</time>
      </trkpt>
      <trkpt lat="48.85519" lon="2.35289">
        <ele>79</ele>
        <time>2013-10-29T20:13:57.512Z</time>
      </trkpt>
      <trkpt lat="48.85519" lon="2.3529">
        <ele>76</ele>
        <time>2013-10-29T20:13:58.514Z</time>
      </trkpt>
      <trkpt lat="48.85517" lon="2.353">
        <ele>77</ele>
        <time>2013-10-29T20:14:09.522Z</time>
      </trkpt>
      <trkpt lat="48.85517" lon="2.353">
        <ele>78</ele>
        <time>2013-10-29T20:14:10.516Z</time>
      </trkpt>
      <trkpt lat="48.85518" lon="2.35299">
        <ele>72</ele>
        <time>2013-10-29T20:14:13.548Z</time>
      </trkpt>
      <trkpt lat="48.85519" lon="2.35298">
        <ele>72</ele>
        <time>2013-10-29T20:14:14.510Z</time>
      </trkpt>
      <trkpt lat="48.8552" lon="2.35296">
        <ele>72</ele>
        <time>2013-10-29T20:14:20.524Z</time>
      </trkpt>
      <trkpt lat="48.8552" lon="2.35296">
        <ele>74</ele>
        <time>2013-10-29T20:14:21.515Z</time>
      </trkpt>
      <trkpt lat="48.85519" lon="2.35296">
        <ele>73</ele>
        <time>2013-10-29T20:14:40.526Z</time>
      </trkpt>
      <trkpt lat="48.85519" lon="2.35295">
        <ele>78</ele>
        <time>2013-10-29T20:14:41.521Z</time>
      </trkpt>
      <trkpt lat="48.85503" lon="2.35291">
        <ele>72</ele>
        <time>2013-10-29T20:14:51.527Z</time>
      </trkpt>
      <trkpt lat="48.85501" lon="2.35291">
        <ele>74</ele>
        <time>2013-10-29T20:14:52.522Z</time>
      </trkpt>
      <trkpt lat="48.85486" lon="2.35299">
        <ele>78</ele>
        <time>2013-10-29T20:14:58.532Z</time>
      </trkpt>
      <trkpt lat="48.85484" lon="2.35303">
        <ele>73</ele>
        <time>2013-10-29T20:14:59.528Z</time>
      </trkpt>
      <trkpt lat="48.85478" lon="2.35326">
        <ele>80</ele>
        <time>2013-10-29T20:15:05.528Z</time>
      </trkpt>
      <trkpt lat="48.85477" lon="2.35328">
        <ele>84</ele>
        <time>2013-10-29T20:15:06.526Z</time>
      </trkpt>
      <trkpt lat="48.85464" lon="2.35342">
        <ele>76</ele>
        <time>2013-10-29T20:15:13.526Z</time>
      </trkpt>
      <trkpt lat="48.85463" lon="2.35346">
        <ele>75</ele>
        <time>2013-10-29T20:15:14.528Z</time>
      </trkpt>
      <trkpt lat="48.85455" lon="2.3537">
        <ele>74</ele>
        <time>2013-10-29T20:15:20.526Z</time>
      </trkpt>
      <trkpt lat="48.85453" lon="2.35374">
        <ele>74</ele>
        <time>2013-10-29T20:15:21.530Z</time>
      </trkpt>
      <trkpt lat="48.85443" lon="2.35395">
        <ele>73</ele>
        <time>2013-10-29T20:15:27.528Z</time>
      </trkpt>
      <trkpt lat="48.85441" lon="2.35398">
        <ele>75</ele>
        <time>2013-10-29T20:15:28.527Z</time>
      </trkpt>
      <trkpt lat="48.85432" lon="2.3542">
        <ele>73</ele>
        <time>2013-10-29T20:15:37.528Z</time>
      </trkpt>
      <trkpt lat="48.85431" lon="2.35423">
        <ele>73</ele>
        <time>2013-10-29T20:15:38.526Z</time>
      </trkpt>
      <trkpt lat="48.85422" lon="2.35443">
        <ele>66</ele>
        <time>2013-10-29T20:15:43.527Z</time>
      </trkpt>
      <trkpt lat="48.85419" lon="2.35448">
        <ele>68</ele>
        <time>2013-10-29T20:15:44.528Z</time>
      </trkpt>
      <trkpt lat="48.85415" lon="2.35458">
        <ele>66</ele>
        <time>2013-10-29T20:15:46.526Z</time>
      </trkpt>
      <trkpt lat="48.85409" lon="2.35474">
        <ele>79</ele>
        <time>2013-10-29T20:15:49.523Z</time>
      </trkpt>
      <trkpt lat="48.85404" lon="2.35493">
        <ele>81</ele>
        <time>2013-10-29T20:15:52.531Z</time>
      </trkpt>
      <trkpt lat="48.85401" lon="2.355">
        <ele>82</ele>
        <time>2013-10-29T20:15:53.563Z</time>
      </trkpt>
      <trkpt lat="48.85393" lon="2.3552">
        <ele>74</ele>
        <time>2013-10-29T20:15:56.533Z</time>
      </trkpt>
      <trkpt lat="48.8539" lon="2.35526">
        <ele>76</ele>
        <time>2013-10-29T20:15:57.540Z</time>
      </trkpt>
      <trkpt lat="48.85382" lon="2.35544">
        <ele>68</ele>
        <time>2013-10-29T20:16:00.497Z</time>
      </trkpt>
      <trkpt lat="48.85379" lon="2.3555">
        <ele>70</ele>
        <time>2013-10-29T20:16:01.534Z</time>
      </trkpt>
      <trkpt lat="48.85371" lon="2.3557">
        <ele>73</ele>
        <time>2013-10-29T20:16:04.470Z</time>
      </trkpt>
      <trkpt lat="48.85369" lon="2.35577">
        <ele>71</ele>
        <time>2013-10-29T20:16:05.514Z</time>
      </trkpt>
      <trkpt lat="48.85361" lon="2.356">
        <ele>77</ele>
        <time>2013-10-29T20:16:09.535Z</time>
      </trkpt>
      <trkpt lat="48.85359" lon="2.35605">
        <ele>76</ele>
        <time>2013-10-29T20:16:10.650Z</time>
      </trkpt>
      <trkpt lat="48.85352" lon="2.35629">
        <ele>73</ele>
        <time>2013-10-29T20:16:14.536Z</time>
      </trkpt>
      <trkpt lat="48.8535" lon="2.35635">
        <ele>69</ele>
        <time>2013-10-29T20:16:15.535Z</time>
      </trkpt>
      <trkpt lat="48.85344" lon="2.35657">
        <ele>67</ele>
        <time>2013-10-29T20:16:19.536Z</time>
      </trkpt>
      <trkpt lat="48.85343" lon="2.35662">
        <ele>67</ele>
        <time>2013-10-29T20:16:20.535Z</time>
      </trkpt>
      <trkpt lat="48.85337" lon="2.35683">
        <ele>68</ele>
        <time>2013-10-29T20:16:24.530Z</time>
      </trkpt>
      <trkpt lat="48.85336" lon="2.35687">
        <ele>66</ele>
        <time>2013-10-29T20:16:25.535Z</time>
      </trkpt>
      <trkpt lat="48.85333" lon="2.35712">
        <ele>69</ele>
        <time>2013-10-29T20:16:30.539Z</time>
      </trkpt>
      <trkpt lat="48.85332" lon="2.35718">
        <ele>70</ele>
        <time>2013-10-29T20:16:31.536Z</time>
      </trkpt>
      <trkpt lat="48.85326" lon="2.35743">
        <ele>72</ele>
        <time>2013-10-29T20:16:36.530Z</time>
      </trkpt>
      <trkpt lat="48.85325" lon="2.35747">
        <ele>73</ele>
        <time>2013-10-29T20:16:37.534Z</time>
      </trkpt>
      <trkpt lat="48.85314" lon="2.35783">
        <ele>89</ele>
        <time>2013-10-29T20:16:45.554Z</time>
      </trkpt>
      <trkpt lat="48.85304" lon="2.35805">
        <ele>87</ele>
        <time>2013-10-29T20:16:49.535Z</time>
      </trkpt>
      <trkpt lat="48.85303" lon="2.3581">
        <ele>88</ele>
        <time>2013-10-29T20:16:50.539Z</time>
      </trkpt>
      <trkpt lat="48.85297" lon="2.35831">
        <ele>82</ele>
        <time>2013-10-29T20:16:54.536Z</time>
      </trkpt>
      <trkpt lat="48.85294" lon="2.35836">
        <ele>84</ele>
        <time>2013-10-29T20:16:55.542Z</time>
      </trkpt>
      <trkpt lat="48.85284" lon="2.35857">
        <ele>79</ele>
        <time>2013-10-29T20:16:59.546Z</time>
      </trkpt>
      <trkpt lat="48.8528" lon="2.35864">
        <ele>77</ele>
        <time>2013-10-29T20:17:00.543Z</time>
      </trkpt>
      <trkpt lat="48.85271" lon="2.35882">
        <ele>74</ele>
        <time>2013-10-29T20:17:03.536Z</time>
      </trkpt>
      <trkpt lat="48.85268" lon="2.35887">
        <ele>73</ele>
        <time>2013-10-29T20:17:04.542Z</time>
      </trkpt>
      <trkpt lat="48.85258" lon="2.35908">
        <ele>80</ele>
        <time>2013-10-29T20:17:08.538Z</time>
      </trkpt>
      <trkpt lat="48.85255" lon="2.35914">
        <ele>83</ele>
        <time>2013-10-29T20:17:09.550Z</time>
      </trkpt>
      <trkpt lat="48.85247" lon="2.35936">
        <ele>78</ele>
        <time>2013-10-29T20:17:13.542Z</time>
      </trkpt>
      <trkpt lat="48.85245" lon="2.35941">
        <ele>78</ele>
        <time>2013-10-29T20:17:14.542Z</time>
      </trkpt>
      <trkpt lat="48.85238" lon="2.35964">
        <ele>74</ele>
        <time>2013-10-29T20:17:18.542Z</time>
      </trkpt>
      <trkpt lat="48.85236" lon="2.3597">
        <ele>76</ele>
        <time>2013-10-29T20:17:19.543Z</time>
      </trkpt>
      <trkpt lat="48.85228" lon="2.35993">
        <ele>74</ele>
        <time>2013-10-29T20:17:23.543Z</time>
      </trkpt>
      <trkpt lat="48.85226" lon="2.35998">
        <ele>74</ele>
        <time>2013-10-29T20:17:24.543Z</time>
      </trkpt>
      <trkpt lat="48.85218" lon="2.36023">
        <ele>79</ele>
        <time>2013-10-29T20:17:28.540Z</time>
      </trkpt>
      <trkpt lat="48.85216" lon="2.36029">
        <ele>78</ele>
        <time>2013-10-29T20:17:29.546Z</time>
      </trkpt>
      <trkpt lat="48.85208" lon="2.36052">
        <ele>80</ele>
        <time>2013-10-29T20:17:33.542Z</time>
      </trkpt>
      <trkpt lat="48.85205" lon="2.36057">
        <ele>83</ele>
        <time>2013-10-29T20:17:34.549Z</time>
      </trkpt>
      <trkpt lat="48.85193" lon="2.36076">
        <ele>83</ele>
        <time>2013-10-29T20:17:38.539Z</time>
      </trkpt>
      <trkpt lat="48.85189" lon="2.3608">
        <ele>83</ele>
        <time>2013-10-29T20:17:39.543Z</time>
      </trkpt>
      <trkpt lat="48.85177" lon="2.36093">
        <ele>82</ele>
        <time>2013-10-29T20:17:43.542Z</time>
      </trkpt>
      <trkpt lat="48.85173" lon="2.36095">
        <ele>82</ele>
        <time>2013-10-29T20:17:44.542Z</time>
      </trkpt>
      <trkpt lat="48.8516" lon="2.361">
        <ele>77</ele>
        <time>2013-10-29T20:17:47.543Z</time>
      </trkpt>
      <trkpt lat="48.85155" lon="2.36102">
        <ele>78</ele>
        <time>2013-10-29T20:17:48.546Z</time>
      </trkpt>
      <trkpt lat="48.85141" lon="2.36106">
        <ele>79</ele>
        <time>2013-10-29T20:17:51.541Z</time>
      </trkpt>
      <trkpt lat="48.85137" lon="2.36107">
        <ele>78</ele>
        <time>2013-10-29T20:17:52.542Z</time>
      </trkpt>
      <trkpt lat="48.85122" lon="2.36108">
        <ele>73</ele>
        <time>2013-10-29T20:17:56.547Z</time>
      </trkpt>
      <trkpt lat="48.85118" lon="2.36108">
        <ele>74</ele>
        <time>2013-10-29T20:17:57.544Z</time>
      </trkpt>
      <trkpt lat="48.85104" lon="2.36104">
        <ele>71</ele>
        <time>2013-10-29T20:18:01.544Z</time>
      </trkpt>
      <trkpt lat="48.85099" lon="2.36104">
        <ele>71</ele>
        <time>2013-10-29T20:18:02.545Z</time>
      </trkpt>
      <trkpt lat="48.85084" lon="2.36103">
        <ele>69</ele>
        <time>2013-10-29T20:18:06.480Z</time>
      </trkpt>
      <trkpt lat="48.8508" lon="2.36103">
        <ele>77</ele>
        <time>2013-10-29T20:18:07.527Z</time>
      </trkpt>
      <trkpt lat="48.85062" lon="2.36101">
        <ele>88</ele>
        <time>2013-10-29T20:18:12.526Z</time>
      </trkpt>
      <trkpt lat="48.85047" lon="2.36097">
        <ele>82</ele>
        <time>2013-10-29T20:18:17.542Z</time>
      </trkpt>
      <trkpt lat="48.85044" lon="2.36098">
        <ele>83</ele>
        <time>2013-10-29T20:18:18.544Z</time>
      </trkpt>
      <trkpt lat="48.85028" lon="2.36102">
        <ele>81</ele>
        <time>2013-10-29T20:18:23.543Z</time>
      </trkpt>
      <trkpt lat="48.85025" lon="2.36102">
        <ele>82</ele>
        <time>2013-10-29T20:18:24.547Z</time>
      </trkpt>
      <trkpt lat="48.85008" lon="2.36101">
        <ele>82</ele>
        <time>2013-10-29T20:18:34.489Z</time>
      </trkpt>
      <trkpt lat="48.85007" lon="2.36102">
        <ele>82</ele>
        <time>2013-10-29T20:18:35.538Z</time>
      </trkpt>
      <trkpt lat="48.85003" lon="2.36099">
        <ele>79</ele>
        <time>2013-10-29T20:18:51.543Z</time>
      </trkpt>
      <trkpt lat="48.85003" lon="2.361">
        <ele>79</ele>
        <time>2013-10-29T20:18:52.543Z</time>
      </trkpt>
      <trkpt lat="48.85003" lon="2.361">
        <ele>81</ele>
        <time>2013-10-29T20:18:53.548Z</time>
      </trkpt>
      <trkpt lat="48.85002" lon="2.36101">
        <ele>84</ele>
        <time>2013-10-29T20:18:54.543Z</time>
      </trkpt>
      <trkpt lat="48.84987" lon="2.36112">
        <ele>83</ele>
        <time>2013-10-29T20:19:02.544Z</time>
      </trkpt>
      <trkpt lat="48.84984" lon="2.36113">
        <ele>82</ele>
        <time>2013-10-29T20:19:03.532Z</time>
      </trkpt>
      <trkpt lat="48.84969" lon="2.36118">
        <ele>84</ele>
        <time>2013-10-29T20:19:08.542Z</time>
      </trkpt>
      <trkpt lat="48.84966" lon="2.36119">
        <ele>83</ele>
        <time>2013-10-29T20:19:09.544Z</time>
      </trkpt>
      <trkpt lat="48.8495" lon="2.36127">
        <ele>83</ele>
        <time>2013-10-29T20:19:14.520Z</time>
      </trkpt>
      <trkpt lat="48.84947" lon="2.3613">
        <ele>82</ele>
        <time>2013-10-29T20:19:15.523Z</time>
      </trkpt>
      <trkpt lat="48.84933" lon="2.36142">
        <ele>81</ele>
        <time>2013-10-29T20:19:20.528Z</time>
      </trkpt>
      <trkpt lat="48.8493" lon="2.36146">
        <ele>80</ele>
        <time>2013-10-29T20:19:21.532Z</time>
      </trkpt>
      <trkpt lat="48.84917" lon="2.36161">
        <ele>80</ele>
        <time>2013-10-29T20:19:26.526Z</time>
      </trkpt>
      <trkpt lat="48.84915" lon="2.36165">
        <ele>80</ele>
        <time>2013-10-29T20:19:27.523Z</time>
      </trkpt>
      <trkpt lat="48.84922" lon="2.36172">
        <ele>81</ele>
        <time>2013-10-29T20:20:07.526Z</time>
      </trkpt>
      <trkpt lat="48.84922" lon="2.36172">
        <ele>80</ele>
        <time>2013-10-29T20:20:08.472Z</time>
      </trkpt>
      <trkpt lat="48.84922" lon="2.36172">
        <ele>78</ele>
        <time>2013-10-29T20:20:15.612Z</time>
      </trkpt>
      <trkpt lat="48.84921" lon="2.36173">
        <ele>76</ele>
        <time>2013-10-29T20:20:16.516Z</time>
      </trkpt>
      <trkpt lat="48.8492" lon="2.36176">
        <ele>80</ele>
        <time>2013-10-29T20:20:24.527Z</time>
      </trkpt>
      <trkpt lat="48.8492" lon="2.36176">
        <ele>77</ele>
        <time>2013-10-29T20:20:25.513Z</time>
      </trkpt>
      <trkpt lat="48.84921" lon="2.36175">
        <ele>71</ele>
        <time>2013-10-29T20:20:34.475Z</time>
      </trkpt>
      <trkpt lat="48.84921" lon="2.36177">
        <ele>74</ele>
        <time>2013-10-29T20:20:35.532Z</time>
      </trkpt>
      <trkpt lat="48.84919" lon="2.36182">
        <ele>87</ele>
        <time>2013-10-29T20:20:42.536Z</time>
      </trkpt>
      <trkpt lat="48.84919" lon="2.36181">
        <ele>88</ele>
        <time>2013-10-29T20:20:43.518Z</time>
      </trkpt>
      <trkpt lat="48.84921" lon="2.3618">
        <ele>79</ele>
        <time>2013-10-29T20:21:05.530Z</time>
      </trkpt>
      <trkpt lat="48.84921" lon="2.3618">
        <ele>80</ele>
        <time>2013-10-29T20:21:06.534Z</time>
      </trkpt>
      <trkpt lat="48.84921" lon="2.3618">
        <ele>79</ele>
        <time>2013-10-29T20:21:07.546Z</time>
      </trkpt>
      <trkpt lat="48.8492" lon="2.3618">
        <ele>79</ele>
        <time>2013-10-29T20:21:42.539Z</time>
      </trkpt>
      <trkpt lat="48.8492" lon="2.3618">
        <ele>80</ele>
        <time>2013-10-29T20:21:43.537Z</time>
      </trkpt>
      <trkpt lat="48.84919" lon="2.36179">
        <ele>78</ele>
        <time>2013-10-29T20:21:46.538Z</time>
      </trkpt>
      <trkpt lat="48.84919" lon="2.36179">
        <ele>77</ele>
        <time>2013-10-29T20:21:47.542Z</time>
      </trkpt>
      <trkpt lat="48.8492" lon="2.36179">
        <ele>79</ele>
        <time>2013-10-29T20:21:48.542Z</time>
      </trkpt>
      <trkpt lat="48.84921" lon="2.36179">
        <ele>80</ele>
        <time>2013-10-29T20:21:49.538Z</time>
      </trkpt>
      <trkpt lat="48.84937" lon="2.36169">
        <ele>71</ele>
        <time>2013-10-29T20:21:55.538Z</time>
      </trkpt>
      <trkpt lat="48.8494" lon="2.36165">
        <ele>73</ele>
        <time>2013-10-29T20:21:56.540Z</time>
      </trkpt>
      <trkpt lat="48.84952" lon="2.36152">
        <ele>73</ele>
        <time>2013-10-29T20:22:00.546Z</time>
      </trkpt>
      <trkpt lat="48.84955" lon="2.36149">
        <ele>72</ele>
        <time>2013-10-29T20:22:01.540Z</time>
      </trkpt>
      <trkpt lat="48.8497" lon="2.36138">
        <ele>71</ele>
        <time>2013-10-29T20:22:06.541Z</time>
      </trkpt>
      <trkpt lat="48.84973" lon="2.36136">
        <ele>70</ele>
        <time>2013-10-29T20:22:07.542Z</time>
      </trkpt>
      <trkpt lat="48.84987" lon="2.36131">
        <ele>68</ele>
        <time>2013-10-29T20:22:11.542Z</time>
      </trkpt>
      <trkpt lat="48.84991" lon="2.36131">
        <ele>68</ele>
        <time>2013-10-29T20:22:12.542Z</time>
      </trkpt>
      <trkpt lat="48.85007" lon="2.36132">
        <ele>69</ele>
        <time>2013-10-29T20:22:16.542Z</time>
      </trkpt>
      <trkpt lat="48.85011" lon="2.36132">
        <ele>70</ele>
        <time>2013-10-29T20:22:17.538Z</time>
      </trkpt>
      <trkpt lat="48.85028" lon="2.3613">
        <ele>73</ele>
        <time>2013-10-29T20:22:22.549Z</time>
      </trkpt>
      <trkpt lat="48.85032" lon="2.36129">
        <ele>72</ele>
        <time>2013-10-29T20:22:23.546Z</time>
      </trkpt>
      <trkpt lat="48.85047" lon="2.36127">
        <ele>71</ele>
        <time>2013-10-29T20:22:27.546Z</time>
      </trkpt>
      <trkpt lat="48.85051" lon="2.36127">
        <ele>72</ele>
        <time>2013-10-29T20:22:28.547Z</time>
      </trkpt>
      <trkpt lat="48.85067" lon="2.36127">
        <ele>68</ele>
        <time>2013-10-29T20:22:34.496Z</time>
      </trkpt>
      <trkpt lat="48.85069" lon="2.36125">
        <ele>66</ele>
        <time>2013-10-29T20:22:35.552Z</time>
      </trkpt>
      <trkpt lat="48.85065" lon="2.36103">
        <ele>76</ele>
        <time>2013-10-29T20:22:42.542Z</time>
      </trkpt>
      <trkpt lat="48.85063" lon="2.36098">
        <ele>74</ele>
        <time>2013-10-29T20:22:43.541Z</time>
      </trkpt>
      <trkpt lat="48.85055" lon="2.3608">
        <ele>70</ele>
        <time>2013-10-29T20:22:47.545Z</time>
      </trkpt>
      <trkpt lat="48.85053" lon="2.36075">
        <ele>70</ele>
        <time>2013-10-29T20:22:48.546Z</time>
      </trkpt>
      <trkpt lat="48.85049" lon="2.36054">
        <ele>76</ele>
        <time>2013-10-29T20:22:52.546Z</time>
      </trkpt>
      <trkpt lat="48.85048" lon="2.36048">
        <ele>73</ele>
        <time>2013-10-29T20:22:53.546Z</time>
      </trkpt>
      <trkpt lat="48.85051" lon="2.36022">
        <ele>78</ele>
        <time>2013-10-29T20:22:57.546Z</time>
      </trkpt>
      <trkpt lat="48.85051" lon="2.36017">
        <ele>76</ele>
        <time>2013-10-29T20:22:58.550Z</time>
      </trkpt>
      <trkpt lat="48.85063" lon="2.36001">
        <ele>73</ele>
        <time>2013-10-29T20:23:06.555Z</time>
      </trkpt>
      <trkpt lat="48.85066" lon="2.36003">
        <ele>75</ele>
        <time>2013-10-29T20:23:07.552Z</time>
      </trkpt>
      <trkpt lat="48.85082" lon="2.36009">
        <ele>70</ele>
        <time>2013-10-29T20:23:13.546Z</time>
      </trkpt>
      <trkpt lat="48.85084" lon="2.36009">
        <ele>69</ele>
        <time>2013-10-29T20:23:14.547Z</time>
      </trkpt>
      <trkpt lat="48.85099" lon="2.36013">
        <ele>79</ele>
        <time>2013-10-29T20:23:26.546Z</time>
      </trkpt>
      <trkpt lat="48.85102" lon="2.36013">
        <ele>81</ele>
        <time>2013-10-29T20:23:27.542Z</time>
      </trkpt>
      <trkpt lat="48.85117" lon="2.36003">
        <ele>87</ele>
        <time>2013-10-29T20:23:32.542Z</time>
      </trkpt>
      <trkpt lat="48.85119" lon="2.36002">
        <ele>88</ele>
        <time>2013-10-29T20:23:33.542Z</time>
      </trkpt>
      <trkpt lat="48.85131" lon="2.35995">
        <ele>85</ele>
        <time>2013-10-29T20:23:37.546Z</time>
      </trkpt>
      <trkpt lat="48.85135" lon="2.35989">
        <ele>84</ele>
        <time>2013-10-29T20:23:38.541Z</time>
      </trkpt>
      <trkpt lat="48.85148" lon="2.35972">
        <ele>86</ele>
        <time>2013-10-29T20:23:41.545Z</time>
      </trkpt>
      <trkpt lat="48.85151" lon="2.35968">
        <ele>83</ele>
        <time>2013-10-29T20:23:42.569Z</time>
      </trkpt>
      <trkpt lat="48.85163" lon="2.35949">
        <ele>83</ele>
        <time>2013-10-29T20:23:47.542Z</time>
      </trkpt>
      <trkpt lat="48.85165" lon="2.35945">
        <ele>84</ele>
        <time>2013-10-29T20:23:48.540Z</time>
      </trkpt>
      <trkpt lat="48.85173" lon="2.35926">
        <ele>85</ele>
        <time>2013-10-29T20:23:53.540Z</time>
      </trkpt>
      <trkpt lat="48.85175" lon="2.35922">
        <ele>85</ele>
        <time>2013-10-29T20:23:54.544Z</time>
      </trkpt>
      <trkpt lat="48.85184" lon="2.35902">
        <ele>89</ele>
        <time>2013-10-29T20:24:01.540Z</time>
      </trkpt>
      <trkpt lat="48.85186" lon="2.35899">
        <ele>87</ele>
        <time>2013-10-29T20:24:02.542Z</time>
      </trkpt>
      <trkpt lat="48.85194" lon="2.35876">
        <ele>82</ele>
        <time>2013-10-29T20:24:07.510Z</time>
      </trkpt>
      <trkpt lat="48.85195" lon="2.35872">
        <ele>82</ele>
        <time>2013-10-29T20:24:08.546Z</time>
      </trkpt>
      <trkpt lat="48.8519" lon="2.35849">
        <ele>84</ele>
        <time>2013-10-29T20:24:17.538Z</time>
      </trkpt>
      <trkpt lat="48.85179" lon="2.35833">
        <ele>87</ele>
        <time>2013-10-29T20:24:22.534Z</time>
      </trkpt>
      <trkpt lat="48.85164" lon="2.3582">
        <ele>88</ele>
        <time>2013-10-29T20:24:24.534Z</time>
      </trkpt>
      <trkpt lat="48.85159" lon="2.35817">
        <ele>86</ele>
        <time>2013-10-29T20:24:25.542Z</time>
      </trkpt>
      <trkpt lat="48.85143" lon="2.35804">
        <ele>84</ele>
        <time>2013-10-29T20:24:29.520Z</time>
      </trkpt>
      <trkpt lat="48.8514" lon="2.35802">
        <ele>83</ele>
        <time>2013-10-29T20:24:30.518Z</time>
      </trkpt>
      <trkpt lat="48.85138" lon="2.35776">
        <ele>77</ele>
        <time>2013-10-29T20:24:38.518Z</time>
      </trkpt>
      <trkpt lat="48.8514" lon="2.35771">
        <ele>78</ele>
        <time>2013-10-29T20:24:39.545Z</time>
      </trkpt>
      <trkpt lat="48.85146" lon="2.35749">
        <ele>84</ele>
        <time>2013-10-29T20:24:43.517Z</time>
      </trkpt>
      <trkpt lat="48.85147" lon="2.35743">
        <ele>86</ele>
        <time>2013-10-29T20:24:44.520Z</time>
      </trkpt>
      <trkpt lat="48.85152" lon="2.35722">
        <ele>90</ele>
        <time>2013-10-29T20:24:48.515Z</time>
      </trkpt>
      <trkpt lat="48.85154" lon="2.35718">
        <ele>88</ele>
        <time>2013-10-29T20:24:49.515Z</time>
      </trkpt>
      <trkpt lat="48.85163" lon="2.357">
        <ele>88</ele>
        <time>2013-10-29T20:24:53.516Z</time>
      </trkpt>
      <trkpt lat="48.85165" lon="2.35695">
        <ele>89</ele>
        <time>2013-10-29T20:24:54.515Z</time>
      </trkpt>
      <trkpt lat="48.85173" lon="2.35675">
        <ele>92</ele>
        <time>2013-10-29T20:24:58.516Z</time>
      </trkpt>
      <trkpt lat="48.85175" lon="2.35671">
        <ele>90</ele>
        <time>2013-10-29T20:24:59.527Z</time>
      </trkpt>
      <trkpt lat="48.85189" lon="2.35654">
        <ele>90</ele>
        <time>2013-10-29T20:25:08.516Z</time>
      </trkpt>
      <trkpt lat="48.85189" lon="2.35653">
        <ele>89</ele>
        <time>2013-10-29T20:25:09.516Z</time>
      </trkpt>
      <trkpt lat="48.8519" lon="2.35647">
        <ele>94</ele>
        <time>2013-10-29T20:25:16.516Z</time>
      </trkpt>
      <trkpt lat="48.8519" lon="2.35649">
        <ele>92</ele>
        <time>2013-10-29T20:25:17.522Z</time>
      </trkpt>
      <trkpt lat="48.85189" lon="2.35649">
        <ele>88</ele>
        <time>2013-10-29T20:25:18.477Z</time>
      </trkpt>
      <trkpt lat="48.85186" lon="2.35649">
        <ele>89</ele>
        <time>2013-10-29T20:25:19.519Z</time>
      </trkpt>
      <trkpt lat="48.85174" lon="2.35644">
        <ele>83</ele>
        <time>2013-10-29T20:25:22.522Z</time>
      </trkpt>
      <trkpt lat="48.85169" lon="2.35641">
        <ele>83</ele>
        <time>2013-10-29T20:25:23.569Z</time>
      </trkpt>
      <trkpt lat="48.85154" lon="2.35633">
        <ele>83</ele>
        <time>2013-10-29T20:25:26.526Z</time>
      </trkpt>
      <trkpt lat="48.8515" lon="2.35631">
        <ele>81</ele>
        <time>2013-10-29T20:25:27.535Z</time>
      </trkpt>
      <trkpt lat="48.85133" lon="2.35621">
        <ele>81</ele>
        <time>2013-10-29T20:25:31.539Z</time>
      </trkpt>
      <trkpt lat="48.8513" lon="2.35618">
        <ele>81</ele>
        <time>2013-10-29T20:25:32.529Z</time>
      </trkpt>
      <trkpt lat="48.85115" lon="2.35604">
        <ele>80</ele>
        <time>2013-10-29T20:25:37.530Z</time>
      </trkpt>
      <trkpt lat="48.85113" lon="2.35602">
        <ele>78</ele>
        <time>2013-10-29T20:25:38.531Z</time>
      </trkpt>
      <trkpt lat="48.85105" lon="2.35579">
        <ele>82</ele>
        <time>2013-10-29T20:25:46.534Z</time>
      </trkpt>
      <trkpt lat="48.85103" lon="2.35577">
        <ele>83</ele>
        <time>2013-10-29T20:25:47.537Z</time>
      </trkpt>
      <trkpt lat="48.85087" lon="2.35564">
        <ele>78</ele>
        <time>2013-10-29T20:25:52.524Z</time>
      </trkpt>
      <trkpt lat="48.85084" lon="2.35562">
        <ele>77</ele>
        <time>2013-10-29T20:25:53.538Z</time>
      </trkpt>
      <trkpt lat="48.85069" lon="2.35548">
        <ele>81</ele>
        <time>2013-10-29T20:25:57.476Z</time>
      </trkpt>
      <trkpt lat="48.85066" lon="2.35545">
        <ele>83</ele>
        <time>2013-10-29T20:25:58.548Z</time>
      </trkpt>
      <trkpt lat="48.85052" lon="2.35531">
        <ele>85</ele>
        <time>2013-10-29T20:26:03.476Z</time>
      </trkpt>
      <trkpt lat="48.85048" lon="2.35527">
        <ele>83</ele>
        <time>2013-10-29T20:26:04.527Z</time>
      </trkpt>
      <trkpt lat="48.85033" lon="2.35516">
        <ele>77</ele>
        <time>2013-10-29T20:26:08.545Z</time>
      </trkpt>
      <trkpt lat="48.85029" lon="2.35514">
        <ele>76</ele>
        <time>2013-10-29T20:26:09.543Z</time>
      </trkpt>
      <trkpt lat="48.85015" lon="2.35499">
        <ele>75</ele>
        <time>2013-10-29T20:26:15.547Z</time>
      </trkpt>
      <trkpt lat="48.85014" lon="2.35498">
        <ele>74</ele>
        <time>2013-10-29T20:26:16.547Z</time>
      </trkpt>
      <trkpt lat="48.85008" lon="2.3549">
        <ele>76</ele>
        <time>2013-10-29T20:26:26.541Z</time>
      </trkpt>
      <trkpt lat="48.85008" lon="2.3549">
        <ele>75</ele>
        <time>2013-10-29T20:26:27.543Z</time>
      </trkpt>
      <trkpt lat="48.85008" lon="2.35491">
        <ele>77</ele>
        <time>2013-10-29T20:26:28.529Z</time>
      </trkpt>
      <trkpt lat="48.85007" lon="2.35491">
        <ele>79</ele>
        <time>2013-10-29T20:26:29.533Z</time>
      </trkpt>
      <trkpt lat="48.84993" lon="2.35491">
        <ele>78</ele>
        <time>2013-10-29T20:26:34.488Z</time>
      </trkpt>
      <trkpt lat="48.84988" lon="2.35492">
        <ele>78</ele>
        <time>2013-10-29T20:26:35.546Z</time>
      </trkpt>
      <trkpt lat="48.84972" lon="2.35488">
        <ele>80</ele>
        <time>2013-10-29T20:26:39.532Z</time>
      </trkpt>
      <trkpt lat="48.84969" lon="2.35485">
        <ele>79</ele>
        <time>2013-10-29T20:26:40.541Z</time>
      </trkpt>
      <trkpt lat="48.84958" lon="2.35466">
        <ele>79</ele>
        <time>2013-10-29T20:26:44.579Z</time>
      </trkpt>
      <trkpt lat="48.84956" lon="2.35461">
        <ele>80</ele>
        <time>2013-10-29T20:26:45.547Z</time>
      </trkpt>
      <trkpt lat="48.84944" lon="2.35446">
        <ele>74</ele>
        <time>2013-10-29T20:26:50.542Z</time>
      </trkpt>
      <trkpt lat="48.84942" lon="2.35443">
        <ele>74</ele>
        <time>2013-10-29T20:26:51.544Z</time>
      </trkpt>
      <trkpt lat="48.84927" lon="2.35429">
        <ele>77</ele>
        <time>2013-10-29T20:26:56.542Z</time>
      </trkpt>
      <trkpt lat="48.84924" lon="2.35426">
        <ele>78</ele>
        <time>2013-10-29T20:26:57.550Z</time>
      </trkpt>
      <trkpt lat="48.8491" lon="2.35417">
        <ele>74</ele>
        <time>2013-10-29T20:27:01.543Z</time>
      </trkpt>
      <trkpt lat="48.84906" lon="2.35414">
        <ele>75</ele>
        <time>2013-10-29T20:27:02.539Z</time>
      </trkpt>
      <trkpt lat="48.8489" lon="2.35399">
        <ele>72</ele>
        <time>2013-10-29T20:27:06.542Z</time>
      </trkpt>
      <trkpt lat="48.84887" lon="2.35395">
        <ele>69</ele>
        <time>2013-10-29T20:27:07.538Z</time>
      </trkpt>
      <trkpt lat="48.84873" lon="2.35378">
        <ele>73</ele>
        <time>2013-10-29T20:27:11.544Z</time>
      </trkpt>
      <trkpt lat="48.8487" lon="2.35374">
        <ele>76</ele>
        <time>2013-10-29T20:27:12.542Z</time>
      </trkpt>
      <trkpt lat="48.84858" lon="2.35364">
        <ele>80</ele>
        <time>2013-10-29T20:27:15.491Z</time>
      </trkpt>
      <trkpt lat="48.84854" lon="2.3536">
        <ele>79</ele>
        <time>2013-10-29T20:27:16.550Z</time>
      </trkpt>
      <trkpt lat="48.84841" lon="2.35351">
        <ele>80</ele>
        <time>2013-10-29T20:27:19.546Z</time>
      </trkpt>
      <trkpt lat="48.84838" lon="2.35348">
        <ele>79</ele>
        <time>2013-10-29T20:27:20.551Z</time>
      </trkpt>
      <trkpt lat="48.84825" lon="2.3534">
        <ele>75</ele>
        <time>2013-10-29T20:27:23.547Z</time>
      </trkpt>
      <trkpt lat="48.84821" lon="2.35337">
        <ele>74</ele>
        <time>2013-10-29T20:27:24.546Z</time>
      </trkpt>
      <trkpt lat="48.84804" lon="2.35327">
        <ele>79</ele>
        <time>2013-10-29T20:27:28.547Z</time>
      </trkpt>
      <trkpt lat="48.848" lon="2.35324">
        <ele>81</ele>
        <time>2013-10-29T20:27:29.551Z</time>
      </trkpt>
      <trkpt lat="48.84788" lon="2.35316">
        <ele>81</ele>
        <time>2013-10-29T20:27:32.548Z</time>
      </trkpt>
      <trkpt lat="48.84783" lon="2.35313">
        <ele>82</ele>
        <time>2013-10-29T20:27:33.551Z</time>
      </trkpt>
      <trkpt lat="48.84772" lon="2.35294">
        <ele>77</ele>
        <time>2013-10-29T20:27:37.555Z</time>
      </trkpt>
      <trkpt lat="48.8477" lon="2.3529">
        <ele>77</ele>
        <time>2013-10-29T20:27:38.547Z</time>
      </trkpt>
      <trkpt lat="48.84756" lon="2.35277">
        <ele>75</ele>
        <time>2013-10-29T20:27:46.546Z</time>
      </trkpt>
      <trkpt lat="48.84755" lon="2.35274">
        <ele>72</ele>
        <time>2013-10-29T20:27:47.550Z</time>
      </trkpt>
      <trkpt lat="48.84757" lon="2.35249">
        <ele>71</ele>
        <time>2013-10-29T20:27:53.557Z</time>
      </trkpt>
      <trkpt lat="48.84758" lon="2.35245">
        <ele>73</ele>
        <time>2013-10-29T20:27:54.554Z</time>
      </trkpt>
      <trkpt lat="48.84765" lon="2.35222">
        <ele>74</ele>
        <time>2013-10-29T20:28:00.511Z</time>
      </trkpt>
      <trkpt lat="48.84766" lon="2.35217">
        <ele>74</ele>
        <time>2013-10-29T20:28:01.559Z</time>
      </trkpt>
      <trkpt lat="48.84772" lon="2.35196">
        <ele>75</ele>
        <time>2013-10-29T20:28:05.554Z</time>
      </trkpt>
      <trkpt lat="48.84773" lon="2.35191">
        <ele>76</ele>
        <time>2013-10-29T20:28:06.550Z</time>
      </trkpt>
      <trkpt lat="48.8478" lon="2.35169">
        <ele>80</ele>
        <time>2013-10-29T20:28:10.551Z</time>
      </trkpt>
      <trkpt lat="48.84781" lon="2.35164">
        <ele>78</ele>
        <time>2013-10-29T20:28:11.546Z</time>
      </trkpt>
      <trkpt lat="48.84787" lon="2.35142">
        <ele>79</ele>
        <time>2013-10-29T20:28:15.549Z</time>
      </trkpt>
      <trkpt lat="48.84788" lon="2.35135">
        <ele>80</ele>
        <time>2013-10-29T20:28:16.538Z</time>
      </trkpt>
      <trkpt lat="48.84794" lon="2.35112">
        <ele>84</ele>
        <time>2013-10-29T20:28:20.543Z</time>
      </trkpt>
      <trkpt lat="48.84795" lon="2.35107">
        <ele>81</ele>
        <time>2013-10-29T20:28:21.544Z</time>
      </trkpt>
      <trkpt lat="48.84801" lon="2.35083">
        <ele>85</ele>
        <time>2013-10-29T20:28:34.517Z</time>
      </trkpt>
      <trkpt lat="48.84801" lon="2.35081">
        <ele>80</ele>
        <time>2013-10-29T20:28:35.549Z</time>
      </trkpt>
      <trkpt lat="48.84808" lon="2.35061">
        <ele>80</ele>
        <time>2013-10-29T20:28:40.560Z</time>
      </trkpt>
      <trkpt lat="48.84809" lon="2.35055">
        <ele>80</ele>
        <time>2013-10-29T20:28:41.553Z</time>
      </trkpt>
      <trkpt lat="48.84816" lon="2.35034">
        <ele>77</ele>
        <time>2013-10-29T20:28:45.550Z</time>
      </trkpt>
      <trkpt lat="48.84818" lon="2.35029">
        <ele>77</ele>
        <time>2013-10-29T20:28:46.514Z</time>
      </trkpt>
      <trkpt lat="48.84825" lon="2.35005">
        <ele>77</ele>
        <time>2013-10-29T20:28:50.551Z</time>
      </trkpt>
      <trkpt lat="48.84826" lon="2.35">
        <ele>77</ele>
        <time>2013-10-29T20:28:51.557Z</time>
      </trkpt>
      <trkpt lat="48.84832" lon="2.34978">
        <ele>80</ele>
        <time>2013-10-29T20:28:55.559Z</time>
      </trkpt>
      <trkpt lat="48.84833" lon="2.34972">
        <ele>79</ele>
        <time>2013-10-29T20:28:56.556Z</time>
      </trkpt>
      <trkpt lat="48.84838" lon="2.34951">
        <ele>86</ele>
        <time>2013-10-29T20:29:00.514Z</time>
      </trkpt>
      <trkpt lat="48.84839" lon="2.34945">
        <ele>85</ele>
        <time>2013-10-29T20:29:01.555Z</time>
      </trkpt>
      <trkpt lat="48.84845" lon="2.34922">
        <ele>87</ele>
        <time>2013-10-29T20:29:05.554Z</time>
      </trkpt>
      <trkpt lat="48.84846" lon="2.34917">
        <ele>87</ele>
        <time>2013-10-29T20:29:06.555Z</time>
      </trkpt>
      <trkpt lat="48.84854" lon="2.34894">
        <ele>85</ele>
        <time>2013-10-29T20:29:11.554Z</time>
      </trkpt>
      <trkpt lat="48.84855" lon="2.34891">
        <ele>82</ele>
        <time>2013-10-29T20:29:12.555Z</time>
      </trkpt>
      <trkpt lat="48.84859" lon="2.34866">
        <ele>83</ele>
        <time>2013-10-29T20:29:18.551Z</time>
      </trkpt>
      <trkpt lat="48.84857" lon="2.34862">
        <ele>81</ele>
        <time>2013-10-29T20:29:19.557Z</time>
      </trkpt>
      <trkpt lat="48.84847" lon="2.34842">
        <ele>83</ele>
        <time>2013-10-29T20:29:25.550Z</time>
      </trkpt>
      <trkpt lat="48.84845" lon="2.34842">
        <ele>81</ele>
        <time>2013-10-29T20:29:26.551Z</time>
      </trkpt>
      <trkpt lat="48.84827" lon="2.34838">
        <ele>78</ele>
        <time>2013-10-29T20:29:33.552Z</time>
      </trkpt>
      <trkpt lat="48.84826" lon="2.34838">
        <ele>78</ele>
        <time>2013-10-29T20:29:34.554Z</time>
      </trkpt>
      <trkpt lat="48.84808" lon="2.34835">
        <ele>89</ele>
        <time>2013-10-29T20:29:43.538Z</time>
      </trkpt>
      <trkpt lat="48.84806" lon="2.34835">
        <ele>87</ele>
        <time>2013-10-29T20:29:44.535Z</time>
      </trkpt>
      <trkpt lat="48.8479" lon="2.34843">
        <ele>83</ele>
        <time>2013-10-29T20:29:51.524Z</time>
      </trkpt>
      <trkpt lat="48.84788" lon="2.34845">
        <ele>84</ele>
        <time>2013-10-29T20:29:52.526Z</time>
      </trkpt>
      <trkpt lat="48.84772" lon="2.34852">
        <ele>83</ele>
        <time>2013-10-29T20:30:00.519Z</time>
      </trkpt>
      <trkpt lat="48.8477" lon="2.34852">
        <ele>82</ele>
        <time>2013-10-29T20:30:01.522Z</time>
      </trkpt>
      <trkpt lat="48.84753" lon="2.34852">
        <ele>93</ele>
        <time>2013-10-29T20:30:09.530Z</time>
      </trkpt>
      <trkpt lat="48.84751" lon="2.34852">
        <ele>91</ele>
        <time>2013-10-29T20:30:10.530Z</time>
      </trkpt>
      <trkpt lat="48.84746" lon="2.34842">
        <ele>87</ele>
        <time>2013-10-29T20:30:20.525Z</time>
      </trkpt>
      <trkpt lat="48.84746" lon="2.34842">
        <ele>89</ele>
        <time>2013-10-29T20:30:21.531Z</time>
      </trkpt>
      <trkpt lat="48.84745" lon="2.34844">
        <ele>98</ele>
        <time>2013-10-29T20:30:29.537Z</time>
      </trkpt>
      <trkpt lat="48.84745" lon="2.34845">
        <ele>97</ele>
        <time>2013-10-29T20:30:30.529Z</time>
      </trkpt>
      <trkpt lat="48.8473" lon="2.34834">
        <ele>100</ele>
        <time>2013-10-29T20:30:41.529Z</time>
      </trkpt>
      <trkpt lat="48.84728" lon="2.3483">
        <ele>101</ele>
        <time>2013-10-29T20:30:42.527Z</time>
      </trkpt>
      <trkpt lat="48.84714" lon="2.34817">
        <ele>96</ele>
        <time>2013-10-29T20:30:48.522Z</time>
      </trkpt>
      <trkpt lat="48.84712" lon="2.34816">
        <ele>97</ele>
        <time>2013-10-29T20:30:49.528Z</time>
      </trkpt>
      <trkpt lat="48.84701" lon="2.34794">
        <ele>93</ele>
        <time>2013-10-29T20:30:57.548Z</time>
      </trkpt>
      <trkpt lat="48.84699" lon="2.34794">
        <ele>93</ele>
        <time>2013-10-29T20:30:58.538Z</time>
      </trkpt>
      <trkpt lat="48.84684" lon="2.34782">
        <ele>97</ele>
        <time>2013-10-29T20:31:07.522Z</time>
      </trkpt>
      <trkpt lat="48.84683" lon="2.3478">
        <ele>97</ele>
        <time>2013-10-29T20:31:08.534Z</time>
      </trkpt>
      <trkpt lat="48.8468" lon="2.34756">
        <ele>96</ele>
        <time>2013-10-29T20:31:15.543Z</time>
      </trkpt>
      <trkpt lat="48.84681" lon="2.34753">
        <ele>97</ele>
        <time>2013-10-29T20:31:16.541Z</time>
      </trkpt>
      <trkpt lat="48.84676" lon="2.34727">
        <ele>89</ele>
        <time>2013-10-29T20:31:24.540Z</time>
      </trkpt>
      <trkpt lat="48.84675" lon="2.34723">
        <ele>91</ele>
        <time>2013-10-29T20:31:25.538Z</time>
      </trkpt>
      <trkpt lat="48.84672" lon="2.34699">
        <ele>86</ele>
        <time>2013-10-29T20:31:31.482Z</time>
      </trkpt>
      <trkpt lat="48.84672" lon="2.34695">
        <ele>85</ele>
        <time>2013-10-29T20:31:32.544Z</time>
      </trkpt>
      <trkpt lat="48.84674" lon="2.34686">
        <ele>83</ele>
        <time>2013-10-29T20:31:42.538Z</time>
      </trkpt>
      <trkpt lat="48.84674" lon="2.34687">
        <ele>82</ele>
        <time>2013-10-29T20:31:43.540Z</time>
      </trkpt>
      <trkpt lat="48.84674" lon="2.34688">
        <ele>83</ele>
        <time>2013-10-29T20:31:45.539Z</time>
      </trkpt>
      <trkpt lat="48.84674" lon="2.34689">
        <ele>82</ele>
        <time>2013-10-29T20:31:46.541Z</time>
      </trkpt>
      <trkpt lat="48.84672" lon="2.34692">
        <ele>93</ele>
        <time>2013-10-29T20:31:54.529Z</time>
      </trkpt>
      <trkpt lat="48.84672" lon="2.34692">
        <ele>91</ele>
        <time>2013-10-29T20:31:55.542Z</time>
      </trkpt>
      <trkpt lat="48.84672" lon="2.34691">
        <ele>97</ele>
        <time>2013-10-29T20:32:07.550Z</time>
      </trkpt>
      <trkpt lat="48.84673" lon="2.3469">
        <ele>98</ele>
        <time>2013-10-29T20:32:08.550Z</time>
      </trkpt>
      <trkpt lat="48.84678" lon="2.34666">
        <ele>93</ele>
        <time>2013-10-29T20:32:14.531Z</time>
      </trkpt>
      <trkpt lat="48.84679" lon="2.34661">
        <ele>95</ele>
        <time>2013-10-29T20:32:15.545Z</time>
      </trkpt>
      <trkpt lat="48.84681" lon="2.34634">
        <ele>98</ele>
        <time>2013-10-29T20:32:21.546Z</time>
      </trkpt>
      <trkpt lat="48.84681" lon="2.34631">
        <ele>97</ele>
        <time>2013-10-29T20:32:22.550Z</time>
      </trkpt>
      <trkpt lat="48.84685" lon="2.34605">
        <ele>106</ele>
        <time>2013-10-29T20:32:29.554Z</time>
      </trkpt>
      <trkpt lat="48.84686" lon="2.34601">
        <ele>107</ele>
        <time>2013-10-29T20:32:30.534Z</time>
      </trkpt>
      <trkpt lat="48.84692" lon="2.34577">
        <ele>107</ele>
        <time>2013-10-29T20:32:35.553Z</time>
      </trkpt>
      <trkpt lat="48.84693" lon="2.34571">
        <ele>105</ele>
        <time>2013-10-29T20:32:36.551Z</time>
      </trkpt>
      <trkpt lat="48.84699" lon="2.34549">
        <ele>92</ele>
        <time>2013-10-29T20:32:41.545Z</time>
      </trkpt>
      <trkpt lat="48.84701" lon="2.34546">
        <ele>92</ele>
        <time>2013-10-29T20:32:42.554Z</time>
      </trkpt>
      <trkpt lat="48.84698" lon="2.34521">
        <ele>90</ele>
        <time>2013-10-29T20:32:51.551Z</time>
      </trkpt>
      <trkpt lat="48.84697" lon="2.34519">
        <ele>91</ele>
        <time>2013-10-29T20:32:52.558Z</time>
      </trkpt>
      <trkpt lat="48.84687" lon="2.345">
        <ele>90</ele>
        <time>2013-10-29T20:32:59.554Z</time>
      </trkpt>
      <trkpt lat="48.84686" lon="2.34497">
        <ele>89</ele>
        <time>2013-10-29T20:33:00.513Z</time>
      </trkpt>
      <trkpt lat="48.84678" lon="2.34474">
        <ele>97</ele>
        <time>2013-10-29T20:33:08.559Z</time>
      </trkpt>
      <trkpt lat="48.84677" lon="2.34471">
        <ele>96</ele>
        <time>2013-10-29T20:33:09.554Z</time>
      </trkpt>
      <trkpt lat="48.84667" lon="2.3445">
        <ele>99</ele>
        <time>2013-10-29T20:33:16.563Z</time>
      </trkpt>
      <trkpt lat="48.84666" lon="2.34446">
        <ele>99</ele>
        <time>2013-10-29T20:33:17.563Z</time>
      </trkpt>
      <trkpt lat="48.84651" lon="2.34435">
        <ele>100</ele>
        <time>2013-10-29T20:33:25.557Z</time>
      </trkpt>
      <trkpt lat="48.84649" lon="2.34436">
        <ele>99</ele>
        <time>2013-10-29T20:33:26.551Z</time>
      </trkpt>
      <trkpt lat="48.84635" lon="2.34451">
        <ele>103</ele>
        <time>2013-10-29T20:33:32.576Z</time>
      </trkpt>
      <trkpt lat="48.84633" lon="2.34454">
        <ele>101</ele>
        <time>2013-10-29T20:33:33.547Z</time>
      </trkpt>
      <trkpt lat="48.84619" lon="2.34465">
        <ele>97</ele>
        <time>2013-10-29T20:33:38.546Z</time>
      </trkpt>
      <trkpt lat="48.84615" lon="2.34469">
        <ele>94</ele>
        <time>2013-10-29T20:33:39.545Z</time>
      </trkpt>
      <trkpt lat="48.84601" lon="2.34477">
        <ele>98</ele>
        <time>2013-10-29T20:33:44.556Z</time>
      </trkpt>
      <trkpt lat="48.84598" lon="2.34477">
        <ele>99</ele>
        <time>2013-10-29T20:33:45.548Z</time>
      </trkpt>
      <trkpt lat="48.84582" lon="2.34486">
        <ele>96</ele>
        <time>2013-10-29T20:33:58.547Z</time>
      </trkpt>
      <trkpt lat="48.84581" lon="2.3449">
        <ele>94</ele>
        <time>2013-10-29T20:33:59.550Z</time>
      </trkpt>
      <trkpt lat="48.84576" lon="2.34514">
        <ele>92</ele>
        <time>2013-10-29T20:34:03.547Z</time>
      </trkpt>
      <trkpt lat="48.84574" lon="2.3452">
        <ele>92</ele>
        <time>2013-10-29T20:34:04.548Z</time>
      </trkpt>
      <trkpt lat="48.8457" lon="2.34543">
        <ele>93</ele>
        <time>2013-10-29T20:34:08.547Z</time>
      </trkpt>
      <trkpt lat="48.84569" lon="2.34547">
        <ele>91</ele>
        <time>2013-10-29T20:34:09.550Z</time>
      </trkpt>
      <trkpt lat="48.8457" lon="2.34571">
        <ele>89</ele>
        <time>2013-10-29T20:34:15.550Z</time>
      </trkpt>
      <trkpt lat="48.84569" lon="2.34575">
        <ele>91</ele>
        <time>2013-10-29T20:34:16.550Z</time>
      </trkpt>
      <trkpt lat="48.84554" lon="2.34585">
        <ele>105</ele>
        <time>2013-10-29T20:34:22.506Z</time>
      </trkpt>
      <trkpt lat="48.84549" lon="2.34584">
        <ele>105</ele>
        <time>2013-10-29T20:34:23.562Z</time>
      </trkpt>
      <trkpt lat="48.84531" lon="2.34578">
        <ele>98</ele>
        <time>2013-10-29T20:34:27.561Z</time>
      </trkpt>
      <trkpt lat="48.84527" lon="2.34577">
        <ele>97</ele>
        <time>2013-10-29T20:34:28.561Z</time>
      </trkpt>
      <trkpt lat="48.84512" lon="2.34571">
        <ele>98</ele>
        <time>2013-10-29T20:34:32.556Z</time>
      </trkpt>
      <trkpt lat="48.84509" lon="2.34571">
        <ele>99</ele>
        <time>2013-10-29T20:34:33.562Z</time>
      </trkpt>
      <trkpt lat="48.84492" lon="2.34567">
        <ele>95</ele>
        <time>2013-10-29T20:34:38.597Z</time>
      </trkpt>
      <trkpt lat="48.84489" lon="2.34566">
        <ele>95</ele>
        <time>2013-10-29T20:34:39.538Z</time>
      </trkpt>
      <trkpt lat="48.84473" lon="2.3456">
        <ele>98</ele>
        <time>2013-10-29T20:34:44.567Z</time>
      </trkpt>
      <trkpt lat="48.84469" lon="2.34558">
        <ele>100</ele>
        <time>2013-10-29T20:34:45.565Z</time>
      </trkpt>
      <trkpt lat="48.84456" lon="2.3455">
        <ele>99</ele>
        <time>2013-10-29T20:34:49.565Z</time>
      </trkpt>
      <trkpt lat="48.84452" lon="2.34549">
        <ele>97</ele>
        <time>2013-10-29T20:34:50.564Z</time>
      </trkpt>
      <trkpt lat="48.84436" lon="2.34552">
        <ele>95</ele>
        <time>2013-10-29T20:34:56.540Z</time>
      </trkpt>
      <trkpt lat="48.84433" lon="2.34554">
        <ele>96</ele>
        <time>2013-10-29T20:34:57.556Z</time>
      </trkpt>
      <trkpt lat="48.84418" lon="2.3457">
        <ele>98</ele>
        <time>2013-10-29T20:35:02.529Z</time>
      </trkpt>
      <trkpt lat="48.84415" lon="2.34573">
        <ele>97</ele>
        <time>2013-10-29T20:35:03.529Z</time>
      </trkpt>
      <trkpt lat="48.84414" lon="2.34595">
        <ele>100</ele>
        <time>2013-10-29T20:35:09.529Z</time>
      </trkpt>
      <trkpt lat="48.84416" lon="2.346">
        <ele>99</ele>
        <time>2013-10-29T20:35:10.529Z</time>
      </trkpt>
      <trkpt lat="48.84421" lon="2.34626">
        <ele>96</ele>
        <time>2013-10-29T20:35:15.529Z</time>
      </trkpt>
      <trkpt lat="48.84423" lon="2.34631">
        <ele>92</ele>
        <time>2013-10-29T20:35:16.529Z</time>
      </trkpt>
      <trkpt lat="48.84435" lon="2.34648">
        <ele>90</ele>
        <time>2013-10-29T20:35:20.530Z</time>
      </trkpt>
      <trkpt lat="48.8444" lon="2.34652">
        <ele>89</ele>
        <time>2013-10-29T20:35:21.530Z</time>
      </trkpt>
      <trkpt lat="48.84453" lon="2.34663">
        <ele>88</ele>
        <time>2013-10-29T20:35:24.535Z</time>
      </trkpt>
      <trkpt lat="48.84457" lon="2.34667">
        <ele>93</ele>
        <time>2013-10-29T20:35:25.525Z</time>
      </trkpt>
      <trkpt lat="48.84473" lon="2.34674">
        <ele>94</ele>
        <time>2013-10-29T20:35:30.536Z</time>
      </trkpt>
      <trkpt lat="48.84475" lon="2.34674">
        <ele>92</ele>
        <time>2013-10-29T20:35:31.529Z</time>
      </trkpt>
      <trkpt lat="48.84489" lon="2.34673">
        <ele>95</ele>
        <time>2013-10-29T20:35:35.532Z</time>
      </trkpt>
      <trkpt lat="48.84493" lon="2.34673">
        <ele>92</ele>
        <time>2013-10-29T20:35:36.530Z</time>
      </trkpt>
      <trkpt lat="48.84509" lon="2.34678">
        <ele>87</ele>
        <time>2013-10-29T20:35:40.504Z</time>
      </trkpt>
      <trkpt lat="48.84514" lon="2.3468">
        <ele>85</ele>
        <time>2013-10-29T20:35:41.531Z</time>
      </trkpt>
      <trkpt lat="48.84527" lon="2.34692">
        <ele>89</ele>
        <time>2013-10-29T20:35:45.602Z</time>
      </trkpt>
      <trkpt lat="48.84533" lon="2.34691">
        <ele>88</ele>
        <time>2013-10-29T20:35:46.542Z</time>
      </trkpt>
      <trkpt lat="48.84548" lon="2.34688">
        <ele>92</ele>
        <time>2013-10-29T20:35:49.652Z</time>
      </trkpt>
      <trkpt lat="48.84552" lon="2.34689">
        <ele>92</ele>
        <time>2013-10-29T20:35:50.507Z</time>
      </trkpt>
      <trkpt lat="48.84567" lon="2.34693">
        <ele>93</ele>
        <time>2013-10-29T20:35:54.541Z</time>
      </trkpt>
      <trkpt lat="48.84571" lon="2.34694">
        <ele>91</ele>
        <time>2013-10-29T20:35:55.561Z</time>
      </trkpt>
      <trkpt lat="48.84586" lon="2.34698">
        <ele>93</ele>
        <time>2013-10-29T20:35:59.641Z</time>
      </trkpt>
      <trkpt lat="48.84589" lon="2.347">
        <ele>93</ele>
        <time>2013-10-29T20:36:00.504Z</time>
      </trkpt>
      <trkpt lat="48.84603" lon="2.34707">
        <ele>86</ele>
        <time>2013-10-29T20:36:04.507Z</time>
      </trkpt>
      <trkpt lat="48.84606" lon="2.34708">
        <ele>82</ele>
        <time>2013-10-29T20:36:05.542Z</time>
      </trkpt>
      <trkpt lat="48.84621" lon="2.34714">
        <ele>86</ele>
        <time>2013-10-29T20:36:09.547Z</time>
      </trkpt>
      <trkpt lat="48.84625" lon="2.34715">
        <ele>87</ele>
        <time>2013-10-29T20:36:10.551Z</time>
      </trkpt>
      <trkpt lat="48.8464" lon="2.34723">
        <ele>86</ele>
        <time>2013-10-29T20:36:15.550Z</time>
      </trkpt>
      <trkpt lat="48.84642" lon="2.34725">
        <ele>85</ele>
        <time>2013-10-29T20:36:16.547Z</time>
      </trkpt>
      <trkpt lat="48.84645" lon="2.34747">
        <ele>90</ele>
        <time>2013-10-29T20:36:23.539Z</time>
      </trkpt>
      <trkpt lat="48.84644" lon="2.34752">
        <ele>93</ele>
        <time>2013-10-29T20:36:24.485Z</time>
      </trkpt>
      <trkpt lat="48.84642" lon="2.34775">
        <ele>97</ele>
        <time>2013-10-29T20:36:29.602Z</time>
      </trkpt>
      <trkpt lat="48.84642" lon="2.3478">
        <ele>101</ele>
        <time>2013-10-29T20:36:30.610Z</time>
      </trkpt>
      <trkpt lat="48.84637" lon="2.34802">
        <ele>104</ele>
        <time>2013-10-29T20:36:34.492Z</time>
      </trkpt>
      <trkpt lat="48.84636" lon="2.3481">
        <ele>103</ele>
        <time>2013-10-29T20:36:35.546Z</time>
      </trkpt>
      <trkpt lat="48.84633" lon="2.34829">
        <ele>104</ele>
        <time>2013-10-29T20:36:38.621Z</time>
      </trkpt>
      <trkpt lat="48.84632" lon="2.34837">
        <ele>105</ele>
        <time>2013-10-29T20:36:39.577Z</time>
      </trkpt>
      <trkpt lat="48.84628" lon="2.3486">
        <ele>107</ele>
        <time>2013-10-29T20:36:42.546Z</time>
      </trkpt>
      <trkpt lat="48.84627" lon="2.34867">
        <ele>107</ele>
        <time>2013-10-29T20:36:43.542Z</time>
      </trkpt>
      <trkpt lat="48.84622" lon="2.34887">
        <ele>110</ele>
        <time>2013-10-29T20:36:46.509Z</time>
      </trkpt>
      <trkpt lat="48.8462" lon="2.34893">
        <ele>109</ele>
        <time>2013-10-29T20:36:47.610Z</time>
      </trkpt>
      <trkpt lat="48.84617" lon="2.34916">
        <ele>108</ele>
        <time>2013-10-29T20:36:51.568Z</time>
      </trkpt>
      <trkpt lat="48.84616" lon="2.34922">
        <ele>109</ele>
        <time>2013-10-29T20:36:52.495Z</time>
      </trkpt>
      <trkpt lat="48.84613" lon="2.34948">
        <ele>102</ele>
        <time>2013-10-29T20:36:56.542Z</time>
      </trkpt>
      <trkpt lat="48.84612" lon="2.34955">
        <ele>103</ele>
        <time>2013-10-29T20:36:57.554Z</time>
      </trkpt>
      <trkpt lat="48.84608" lon="2.34976">
        <ele>96</ele>
        <time>2013-10-29T20:37:00.538Z</time>
      </trkpt>
      <trkpt lat="48.84606" lon="2.34983">
        <ele>97</ele>
        <time>2013-10-29T20:37:01.543Z</time>
      </trkpt>
      <trkpt lat="48.84602" lon="2.35007">
        <ele>96</ele>
        <time>2013-10-29T20:37:04.538Z</time>
      </trkpt>
      <trkpt lat="48.84601" lon="2.35015">
        <ele>94</ele>
        <time>2013-10-29T20:37:05.544Z</time>
      </trkpt>
      <trkpt lat="48.84599" lon="2.35037">
        <ele>94</ele>
        <time>2013-10-29T20:37:08.543Z</time>
      </trkpt>
      <trkpt lat="48.84598" lon="2.35044">
        <ele>95</ele>
        <time>2013-10-29T20:37:09.716Z</time>
      </trkpt>
      <trkpt lat="48.846" lon="2.35069">
        <ele>93</ele>
        <time>2013-10-29T20:37:13.542Z</time>
      </trkpt>
      <trkpt lat="48.846" lon="2.35076">
        <ele>95</ele>
        <time>2013-10-29T20:37:14.542Z</time>
      </trkpt>
      <trkpt lat="48.84603" lon="2.35102">
        <ele>100</ele>
        <time>2013-10-29T20:37:18.590Z</time>
      </trkpt>
      <trkpt lat="48.84606" lon="2.35107">
        <ele>101</ele>
        <time>2013-10-29T20:37:19.546Z</time>
      </trkpt>
      <trkpt lat="48.84618" lon="2.35122">
        <ele>93</ele>
        <time>2013-10-29T20:37:22.556Z</time>
      </trkpt>
      <trkpt lat="48.84623" lon="2.35126">
        <ele>92</ele>
        <time>2013-10-29T20:37:23.549Z</time>
      </trkpt>
      <trkpt lat="48.84634" lon="2.35132">
        <ele>89</ele>
        <time>2013-10-29T20:37:25.491Z</time>
      </trkpt>
      <trkpt lat="48.8464" lon="2.35135">
        <ele>88</ele>
        <time>2013-10-29T20:37:26.546Z</time>
      </trkpt>
      <trkpt lat="48.84653" lon="2.35144">
        <ele>86</ele>
        <time>2013-10-29T20:37:29.557Z</time>
      </trkpt>
      <trkpt lat="48.84657" lon="2.35147">
        <ele>87</ele>
        <time>2013-10-29T20:37:30.551Z</time>
      </trkpt>
      <trkpt lat="48.84668" lon="2.35161">
        <ele>83</ele>
        <time>2013-10-29T20:37:37.557Z</time>
      </trkpt>
      <trkpt lat="48.84671" lon="2.35165">
        <ele>83</ele>
        <time>2013-10-29T20:37:38.552Z</time>
      </trkpt>
      <trkpt lat="48.84683" lon="2.35182">
        <ele>76</ele>
        <time>2013-10-29T20:37:42.556Z</time>
      </trkpt>
      <trkpt lat="48.84686" lon="2.35188">
        <ele>76</ele>
        <time>2013-10-29T20:37:43.554Z</time>
      </trkpt>
      <trkpt lat="48.84698" lon="2.35209">
        <ele>76</ele>
        <time>2013-10-29T20:37:46.552Z</time>
      </trkpt>
      <trkpt lat="48.84703" lon="2.35215">
        <ele>79</ele>
        <time>2013-10-29T20:37:47.553Z</time>
      </trkpt>
      <trkpt lat="48.84717" lon="2.35231">
        <ele>79</ele>
        <time>2013-10-29T20:37:50.561Z</time>
      </trkpt>
      <trkpt lat="48.84721" lon="2.35235">
        <ele>78</ele>
        <time>2013-10-29T20:37:51.519Z</time>
      </trkpt>
      <trkpt lat="48.84733" lon="2.35248">
        <ele>75</ele>
        <time>2013-10-29T20:37:55.569Z</time>
      </trkpt>
      <trkpt lat="48.84736" lon="2.35251">
        <ele>73</ele>
        <time>2013-10-29T20:37:56.561Z</time>
      </trkpt>
      <trkpt lat="48.84745" lon="2.35273">
        <ele>77</ele>
        <time>2013-10-29T20:38:02.563Z</time>
      </trkpt>
      <trkpt lat="48.84746" lon="2.35277">
        <ele>78</ele>
        <time>2013-10-29T20:38:03.570Z</time>
      </trkpt>
      <trkpt lat="48.84751" lon="2.35284">
        <ele>68</ele>
        <time>2013-10-29T20:38:16.557Z</time>
      </trkpt>
      <trkpt lat="48.84751" lon="2.35283">
        <ele>68</ele>
        <time>2013-10-29T20:38:17.559Z</time>
      </trkpt>
      <trkpt lat="48.84751" lon="2.35283">
        <ele>96</ele>
        <time>2013-10-29T20:38:30.584Z</time>
      </trkpt>
      <trkpt lat="48.84751" lon="2.35282">
        <ele>96</ele>
        <time>2013-10-29T20:38:31.603Z</time>
      </trkpt>
      <trkpt lat="48.84751" lon="2.35281">
        <ele>98</ele>
        <time>2013-10-29T20:38:34.506Z</time>
      </trkpt>
      <trkpt lat="48.84751" lon="2.35281">
        <ele>100</ele>
        <time>2013-10-29T20:38:35.558Z</time>
      </trkpt>
      <trkpt lat="48.84751" lon="2.35281">
        <ele>97</ele>
        <time>2013-10-29T20:38:40.589Z</time>
      </trkpt>
      <trkpt lat="48.84752" lon="2.3528">
        <ele>97</ele>
        <time>2013-10-29T20:38:41.623Z</time>
      </trkpt>
      <trkpt lat="48.84755" lon="2.35279">
        <ele>103</ele>
        <time>2013-10-29T20:38:48.563Z</time>
      </trkpt>
      <trkpt lat="48.84755" lon="2.35279">
        <ele>105</ele>
        <time>2013-10-29T20:38:49.557Z</time>
      </trkpt>
      <trkpt lat="48.84755" lon="2.35278">
        <ele>104</ele>
        <time>2013-10-29T20:38:56.616Z</time>
      </trkpt>
      <trkpt lat="48.84755" lon="2.35277">
        <ele>105</ele>
        <time>2013-10-29T20:38:57.559Z</time>
      </trkpt>
      <trkpt lat="48.84759" lon="2.35264">
        <ele>107</ele>
        <time>2013-10-29T20:39:11.562Z</time>
      </trkpt>
      <trkpt lat="48.84758" lon="2.35265">
        <ele>105</ele>
        <time>2013-10-29T20:39:12.557Z</time>
      </trkpt>
      <trkpt lat="48.84758" lon="2.35266">
        <ele>103</ele>
        <time>2013-10-29T20:39:14.562Z</time>
      </trkpt>
      <trkpt lat="48.84757" lon="2.35266">
        <ele>103</ele>
        <time>2013-10-29T20:39:15.567Z</time>
      </trkpt>
      <trkpt lat="48.84757" lon="2.35267">
        <ele>105</ele>
        <time>2013-10-29T20:39:17.557Z</time>
      </trkpt>
      <trkpt lat="48.84757" lon="2.35267">
        <ele>105</ele>
        <time>2013-10-29T20:39:18.562Z</time>
      </trkpt>
      <trkpt lat="48.84757" lon="2.35267">
        <ele>106</ele>
        <time>2013-10-29T20:39:27.514Z</time>
      </trkpt>
      <trkpt lat="48.84757" lon="2.35268">
        <ele>107</ele>
        <time>2013-10-29T20:39:28.563Z</time>
      </trkpt>
      <trkpt lat="48.84752" lon="2.35273">
        <ele>89</ele>
        <time>2013-10-29T20:39:35.527Z</time>
      </trkpt>
      <trkpt lat="48.84753" lon="2.35272">
        <ele>87</ele>
        <time>2013-10-29T20:39:36.612Z</time>
      </trkpt>
      <trkpt lat="48.84753" lon="2.35269">
        <ele>85</ele>
        <time>2013-10-29T20:39:37.568Z</time>
      </trkpt>
      <trkpt lat="48.8476" lon="2.35246">
        <ele>84</ele>
        <time>2013-10-29T20:39:42.573Z</time>
      </trkpt>
      <trkpt lat="48.84761" lon="2.3524">
        <ele>85</ele>
        <time>2013-10-29T20:39:43.561Z</time>
      </trkpt>
      <trkpt lat="48.84766" lon="2.35215">
        <ele>88</ele>
        <time>2013-10-29T20:39:48.571Z</time>
      </trkpt>
      <trkpt lat="48.84768" lon="2.35211">
        <ele>87</ele>
        <time>2013-10-29T20:39:49.571Z</time>
      </trkpt>
      <trkpt lat="48.84777" lon="2.35188">
        <ele>79</ele>
        <time>2013-10-29T20:39:54.566Z</time>
      </trkpt>
      <trkpt lat="48.84779" lon="2.35185">
        <ele>78</ele>
        <time>2013-10-29T20:39:55.570Z</time>
      </trkpt>
      <trkpt lat="48.84792" lon="2.35172">
        <ele>73</ele>
        <time>2013-10-29T20:40:02.563Z</time>
      </trkpt>
      <trkpt lat="48.84795" lon="2.35171">
        <ele>72</ele>
        <time>2013-10-29T20:40:03.574Z</time>
      </trkpt>
      <trkpt lat="48.84806" lon="2.35173">
        <ele>89</ele>
        <time>2013-10-29T20:40:07.584Z</time>
      </trkpt>
      <trkpt lat="48.84816" lon="2.35177">
        <ele>90</ele>
        <time>2013-10-29T20:40:10.554Z</time>
      </trkpt>
      <trkpt lat="48.84835" lon="2.35187">
        <ele>93</ele>
        <time>2013-10-29T20:40:15.528Z</time>
      </trkpt>
      <trkpt lat="48.84848" lon="2.35199">
        <ele>92</ele>
        <time>2013-10-29T20:40:19.527Z</time>
      </trkpt>
      <trkpt lat="48.84851" lon="2.35202">
        <ele>91</ele>
        <time>2013-10-29T20:40:20.538Z</time>
      </trkpt>
      <trkpt lat="48.84864" lon="2.3521">
        <ele>80</ele>
        <time>2013-10-29T20:40:25.540Z</time>
      </trkpt>
      <trkpt lat="48.84867" lon="2.35214">
        <ele>78</ele>
        <time>2013-10-29T20:40:26.535Z</time>
      </trkpt>
      <trkpt lat="48.84881" lon="2.35228">
        <ele>70</ele>
        <time>2013-10-29T20:40:32.552Z</time>
      </trkpt>
      <trkpt lat="48.84884" lon="2.3523">
        <ele>71</ele>
        <time>2013-10-29T20:40:33.550Z</time>
      </trkpt>
      <trkpt lat="48.84899" lon="2.35241">
        <ele>78</ele>
        <time>2013-10-29T20:40:38.623Z</time>
      </trkpt>
      <trkpt lat="48.84904" lon="2.3524">
        <ele>74</ele>
        <time>2013-10-29T20:40:39.573Z</time>
      </trkpt>
      <trkpt lat="48.84919" lon="2.35239">
        <ele>74</ele>
        <time>2013-10-29T20:40:43.535Z</time>
      </trkpt>
      <trkpt lat="48.84922" lon="2.35239">
        <ele>76</ele>
        <time>2013-10-29T20:40:44.534Z</time>
      </trkpt>
      <trkpt lat="48.84938" lon="2.35243">
        <ele>77</ele>
        <time>2013-10-29T20:40:48.568Z</time>
      </trkpt>
      <trkpt lat="48.84941" lon="2.35244">
        <ele>80</ele>
        <time>2013-10-29T20:40:49.536Z</time>
      </trkpt>
      <trkpt lat="48.84946" lon="2.35262">
        <ele>73</ele>
        <time>2013-10-29T20:40:59.541Z</time>
      </trkpt>
      <trkpt lat="48.84945" lon="2.35262">
        <ele>75</ele>
        <time>2013-10-29T20:41:00.507Z</time>
      </trkpt>
      <trkpt lat="48.84946" lon="2.35263">
        <ele>79</ele>
        <time>2013-10-29T20:41:03.542Z</time>
      </trkpt>
      <trkpt lat="48.84945" lon="2.35264">
        <ele>81</ele>
        <time>2013-10-29T20:41:04.555Z</time>
      </trkpt>
      <trkpt lat="48.84963" lon="2.35262">
        <ele>75</ele>
        <time>2013-10-29T20:41:14.559Z</time>
      </trkpt>
      <trkpt lat="48.84964" lon="2.35259">
        <ele>75</ele>
        <time>2013-10-29T20:41:15.554Z</time>
      </trkpt>
      <trkpt lat="48.84964" lon="2.35237">
        <ele>71</ele>
        <time>2013-10-29T20:41:20.565Z</time>
      </trkpt>
      <trkpt lat="48.84964" lon="2.35229">
        <ele>87</ele>
        <time>2013-10-29T20:41:22.534Z</time>
      </trkpt>
      <trkpt lat="48.84963" lon="2.35206">
        <ele>101</ele>
        <time>2013-10-29T20:41:27.547Z</time>
      </trkpt>
      <trkpt lat="48.84963" lon="2.352">
        <ele>96</ele>
        <time>2013-10-29T20:41:28.542Z</time>
      </trkpt>
      <trkpt lat="48.84965" lon="2.35174">
        <ele>83</ele>
        <time>2013-10-29T20:41:32.599Z</time>
      </trkpt>
      <trkpt lat="48.84966" lon="2.35169">
        <ele>80</ele>
        <time>2013-10-29T20:41:33.536Z</time>
      </trkpt>
      <trkpt lat="48.84966" lon="2.35146">
        <ele>84</ele>
        <time>2013-10-29T20:41:38.495Z</time>
      </trkpt>
      <trkpt lat="48.84966" lon="2.35141">
        <ele>85</ele>
        <time>2013-10-29T20:41:39.492Z</time>
      </trkpt>
      <trkpt lat="48.84964" lon="2.35118">
        <ele>82</ele>
        <time>2013-10-29T20:41:43.492Z</time>
      </trkpt>
      <trkpt lat="48.84963" lon="2.35112">
        <ele>82</ele>
        <time>2013-10-29T20:41:44.565Z</time>
      </trkpt>
      <trkpt lat="48.84961" lon="2.35087">
        <ele>75</ele>
        <time>2013-10-29T20:41:48.498Z</time>
      </trkpt>
      <trkpt lat="48.8496" lon="2.35082">
        <ele>72</ele>
        <time>2013-10-29T20:41:49.514Z</time>
      </trkpt>
      <trkpt lat="48.84962" lon="2.35059">
        <ele>78</ele>
        <time>2013-10-29T20:41:53.516Z</time>
      </trkpt>
      <trkpt lat="48.84963" lon="2.35055">
        <ele>79</ele>
        <time>2013-10-29T20:41:54.520Z</time>
      </trkpt>
      <trkpt lat="48.84972" lon="2.35031">
        <ele>75</ele>
        <time>2013-10-29T20:41:59.493Z</time>
      </trkpt>
      <trkpt lat="48.84974" lon="2.35028">
        <ele>73</ele>
        <time>2013-10-29T20:42:00.519Z</time>
      </trkpt>
      <trkpt lat="48.84983" lon="2.35007">
        <ele>84</ele>
        <time>2013-10-29T20:42:05.531Z</time>
      </trkpt>
      <trkpt lat="48.84983" lon="2.35003">
        <ele>80</ele>
        <time>2013-10-29T20:42:06.520Z</time>
      </trkpt>
      <trkpt lat="48.84986" lon="2.34975">
        <ele>81</ele>
        <time>2013-10-29T20:42:11.519Z</time>
      </trkpt>
      <trkpt lat="48.84986" lon="2.3497">
        <ele>80</ele>
        <time>2013-10-29T20:42:12.521Z</time>
      </trkpt>
      <trkpt lat="48.84985" lon="2.34946">
        <ele>73</ele>
        <time>2013-10-29T20:42:16.520Z</time>
      </trkpt>
      <trkpt lat="48.84984" lon="2.3494">
        <ele>73</ele>
        <time>2013-10-29T20:42:17.520Z</time>
      </trkpt>
      <trkpt lat="48.84982" lon="2.34913">
        <ele>73</ele>
        <time>2013-10-29T20:42:22.495Z</time>
      </trkpt>
      <trkpt lat="48.84981" lon="2.34908">
        <ele>73</ele>
        <time>2013-10-29T20:42:23.520Z</time>
      </trkpt>
      <trkpt lat="48.84989" lon="2.3489">
        <ele>72</ele>
        <time>2013-10-29T20:42:28.525Z</time>
      </trkpt>
      <trkpt lat="48.84995" lon="2.34887">
        <ele>70</ele>
        <time>2013-10-29T20:42:29.536Z</time>
      </trkpt>
      <trkpt lat="48.85012" lon="2.34883">
        <ele>66</ele>
        <time>2013-10-29T20:42:32.521Z</time>
      </trkpt>
      <trkpt lat="48.85018" lon="2.34883">
        <ele>63</ele>
        <time>2013-10-29T20:42:33.520Z</time>
      </trkpt>
      <trkpt lat="48.85035" lon="2.34878">
        <ele>64</ele>
        <time>2013-10-29T20:42:37.529Z</time>
      </trkpt>
      <trkpt lat="48.85039" lon="2.34877">
        <ele>60</ele>
        <time>2013-10-29T20:42:38.570Z</time>
      </trkpt>
      <trkpt lat="48.85049" lon="2.34898">
        <ele>86</ele>
        <time>2013-10-29T20:42:45.495Z</time>
      </trkpt>
      <trkpt lat="48.85049" lon="2.34903">
        <ele>87</ele>
        <time>2013-10-29T20:42:46.495Z</time>
      </trkpt>
      <trkpt lat="48.85108" lon="2.3494">
        <ele>101</ele>
        <time>2013-10-29T20:43:39.667Z</time>
      </trkpt>
      <trkpt lat="48.85117" lon="2.34928">
        <ele>99</ele>
        <time>2013-10-29T20:43:41.600Z</time>
      </trkpt>
      <trkpt lat="48.85127" lon="2.34913">
        <ele>99</ele>
        <time>2013-10-29T20:43:42.567Z</time>
      </trkpt>
      <trkpt lat="48.85135" lon="2.34902">
        <ele>98</ele>
        <time>2013-10-29T20:43:43.558Z</time>
      </trkpt>
      <trkpt lat="48.85141" lon="2.34893">
        <ele>95</ele>
        <time>2013-10-29T20:43:44.562Z</time>
      </trkpt>
      <trkpt lat="48.85153" lon="2.34874">
        <ele>93</ele>
        <time>2013-10-29T20:43:47.549Z</time>
      </trkpt>
      <trkpt lat="48.85155" lon="2.34869">
        <ele>92</ele>
        <time>2013-10-29T20:43:48.547Z</time>
      </trkpt>
      <trkpt lat="48.85161" lon="2.34847">
        <ele>95</ele>
        <time>2013-10-29T20:43:55.559Z</time>
      </trkpt>
      <trkpt lat="48.85163" lon="2.34844">
        <ele>94</ele>
        <time>2013-10-29T20:43:56.550Z</time>
      </trkpt>
      <trkpt lat="48.85175" lon="2.34824">
        <ele>91</ele>
        <time>2013-10-29T20:44:02.552Z</time>
      </trkpt>
      <trkpt lat="48.85178" lon="2.34821">
        <ele>90</ele>
        <time>2013-10-29T20:44:03.553Z</time>
      </trkpt>
      <trkpt lat="48.85191" lon="2.34807">
        <ele>95</ele>
        <time>2013-10-29T20:44:08.553Z</time>
      </trkpt>
      <trkpt lat="48.85194" lon="2.34806">
        <ele>93</ele>
        <time>2013-10-29T20:44:09.560Z</time>
      </trkpt>
      <trkpt lat="48.85208" lon="2.34801">
        <ele>103</ele>
        <time>2013-10-29T20:44:13.552Z</time>
      </trkpt>
      <trkpt lat="48.85213" lon="2.34804">
        <ele>103</ele>
        <time>2013-10-29T20:44:14.563Z</time>
      </trkpt>
      <trkpt lat="48.85229" lon="2.34814">
        <ele>98</ele>
        <time>2013-10-29T20:44:18.548Z</time>
      </trkpt>
      <trkpt lat="48.85231" lon="2.34817">
        <ele>98</ele>
        <time>2013-10-29T20:44:19.568Z</time>
      </trkpt>
      <trkpt lat="48.85245" lon="2.34832">
        <ele>85</ele>
        <time>2013-10-29T20:44:28.569Z</time>
      </trkpt>
      <trkpt lat="48.85246" lon="2.34832">
        <ele>84</ele>
        <time>2013-10-29T20:44:29.582Z</time>
      </trkpt>
      <trkpt lat="48.85262" lon="2.34842">
        <ele>71</ele>
        <time>2013-10-29T20:44:36.579Z</time>
      </trkpt>
      <trkpt lat="48.85265" lon="2.34845">
        <ele>70</ele>
        <time>2013-10-29T20:44:37.572Z</time>
      </trkpt>
      <trkpt lat="48.85281" lon="2.34855">
        <ele>68</ele>
        <time>2013-10-29T20:44:43.577Z</time>
      </trkpt>
      <trkpt lat="48.85284" lon="2.34856">
        <ele>69</ele>
        <time>2013-10-29T20:44:44.584Z</time>
      </trkpt>
      <trkpt lat="48.853" lon="2.34866">
        <ele>73</ele>
        <time>2013-10-29T20:44:51.575Z</time>
      </trkpt>
      <trkpt lat="48.85302" lon="2.34868">
        <ele>72</ele>
        <time>2013-10-29T20:44:52.583Z</time>
      </trkpt>
      <trkpt lat="48.85316" lon="2.34881">
        <ele>67</ele>
        <time>2013-10-29T20:44:58.574Z</time>
      </trkpt>
      <trkpt lat="48.85319" lon="2.34883">
        <ele>64</ele>
        <time>2013-10-29T20:44:59.577Z</time>
      </trkpt>
      <trkpt lat="48.85334" lon="2.34894">
        <ele>77</ele>
        <time>2013-10-29T20:45:04.574Z</time>
      </trkpt>
      <trkpt lat="48.85337" lon="2.34896">
        <ele>80</ele>
        <time>2013-10-29T20:45:05.575Z</time>
      </trkpt>
      <trkpt lat="48.85352" lon="2.34909">
        <ele>88</ele>
        <time>2013-10-29T20:45:11.570Z</time>
      </trkpt>
      <trkpt lat="48.85354" lon="2.34909">
        <ele>89</ele>
        <time>2013-10-29T20:45:12.566Z</time>
      </trkpt>
      <trkpt lat="48.8536" lon="2.34887">
        <ele>81</ele>
        <time>2013-10-29T20:45:16.579Z</time>
      </trkpt>
      <trkpt lat="48.85362" lon="2.3488">
        <ele>80</ele>
        <time>2013-10-29T20:45:17.585Z</time>
      </trkpt>
      <trkpt lat="48.85367" lon="2.34859">
        <ele>81</ele>
        <time>2013-10-29T20:45:20.574Z</time>
      </trkpt>
      <trkpt lat="48.85369" lon="2.34853">
        <ele>80</ele>
        <time>2013-10-29T20:45:21.581Z</time>
      </trkpt>
      <trkpt lat="48.85375" lon="2.34832">
        <ele>76</ele>
        <time>2013-10-29T20:45:25.577Z</time>
      </trkpt>
      <trkpt lat="48.85376" lon="2.34827">
        <ele>75</ele>
        <time>2013-10-29T20:45:26.568Z</time>
      </trkpt>
      <trkpt lat="48.85382" lon="2.34806">
        <ele>77</ele>
        <time>2013-10-29T20:45:30.555Z</time>
      </trkpt>
      <trkpt lat="48.85384" lon="2.348">
        <ele>81</ele>
        <time>2013-10-29T20:45:31.547Z</time>
      </trkpt>
      <trkpt lat="48.85391" lon="2.34777">
        <ele>78</ele>
        <time>2013-10-29T20:45:35.544Z</time>
      </trkpt>
      <trkpt lat="48.85392" lon="2.34772">
        <ele>78</ele>
        <time>2013-10-29T20:45:36.550Z</time>
      </trkpt>
      <trkpt lat="48.854" lon="2.34748">
        <ele>78</ele>
        <time>2013-10-29T20:45:41.554Z</time>
      </trkpt>
      <trkpt lat="48.85401" lon="2.34743">
        <ele>79</ele>
        <time>2013-10-29T20:45:42.635Z</time>
      </trkpt>
      <trkpt lat="48.85399" lon="2.34717">
        <ele>82</ele>
        <time>2013-10-29T20:45:48.547Z</time>
      </trkpt>
      <trkpt lat="48.85395" lon="2.34713">
        <ele>81</ele>
        <time>2013-10-29T20:45:49.547Z</time>
      </trkpt>
      <trkpt lat="48.85382" lon="2.34705">
        <ele>81</ele>
        <time>2013-10-29T20:45:52.544Z</time>
      </trkpt>
      <trkpt lat="48.85377" lon="2.34703">
        <ele>81</ele>
        <time>2013-10-29T20:45:53.538Z</time>
      </trkpt>
      <trkpt lat="48.85362" lon="2.34689">
        <ele>72</ele>
        <time>2013-10-29T20:45:58.554Z</time>
      </trkpt>
      <trkpt lat="48.85364" lon="2.34684">
        <ele>71</ele>
        <time>2013-10-29T20:45:59.558Z</time>
      </trkpt>
      <trkpt lat="48.85372" lon="2.34668">
        <ele>68</ele>
        <time>2013-10-29T20:46:02.553Z</time>
      </trkpt>
      <trkpt lat="48.85375" lon="2.34662">
        <ele>66</ele>
        <time>2013-10-29T20:46:03.538Z</time>
      </trkpt>
      <trkpt lat="48.85383" lon="2.34644">
        <ele>66</ele>
        <time>2013-10-29T20:46:06.554Z</time>
      </trkpt>
      <trkpt lat="48.85386" lon="2.34639">
        <ele>68</ele>
        <time>2013-10-29T20:46:07.561Z</time>
      </trkpt>
      <trkpt lat="48.85395" lon="2.34616">
        <ele>72</ele>
        <time>2013-10-29T20:46:12.548Z</time>
      </trkpt>
      <trkpt lat="48.85397" lon="2.34611">
        <ele>73</ele>
        <time>2013-10-29T20:46:13.554Z</time>
      </trkpt>
      <trkpt lat="48.85405" lon="2.34589">
        <ele>70</ele>
        <time>2013-10-29T20:46:17.544Z</time>
      </trkpt>
      <trkpt lat="48.85407" lon="2.34584">
        <ele>72</ele>
        <time>2013-10-29T20:46:18.554Z</time>
      </trkpt>
      <trkpt lat="48.85416" lon="2.34562">
        <ele>69</ele>
        <time>2013-10-29T20:46:22.552Z</time>
      </trkpt>
      <trkpt lat="48.85418" lon="2.34557">
        <ele>66</ele>
        <time>2013-10-29T20:46:23.556Z</time>
      </trkpt>
      <trkpt lat="48.85427" lon="2.34538">
        <ele>66</ele>
        <time>2013-10-29T20:46:27.562Z</time>
      </trkpt>
      <trkpt lat="48.85429" lon="2.34533">
        <ele>66</ele>
        <time>2013-10-29T20:46:28.556Z</time>
      </trkpt>
      <trkpt lat="48.85436" lon="2.34511">
        <ele>66</ele>
        <time>2013-10-29T20:46:33.557Z</time>
      </trkpt>
      <trkpt lat="48.85437" lon="2.34508">
        <ele>68</ele>
        <time>2013-10-29T20:46:34.495Z</time>
      </trkpt>
      <trkpt lat="48.85436" lon="2.34522">
        <ele>148</ele>
        <time>2013-10-29T20:46:45.556Z</time>
      </trkpt>
      <trkpt lat="48.85436" lon="2.34537">
        <ele>142</ele>
        <time>2013-10-29T20:46:46.551Z</time>
      </trkpt>
      <trkpt lat="48.85436" lon="2.34553">
        <ele>130</ele>
        <time>2013-10-29T20:46:47.561Z</time>
      </trkpt>
      <trkpt lat="48.85437" lon="2.3457">
        <ele>121</ele>
        <time>2013-10-29T20:46:48.553Z</time>
      </trkpt>
      <trkpt lat="48.85438" lon="2.34585">
        <ele>143</ele>
        <time>2013-10-29T20:46:49.560Z</time>
      </trkpt>
      <trkpt lat="48.8544" lon="2.34598">
        <ele>128</ele>
        <time>2013-10-29T20:46:50.567Z</time>
      </trkpt>
      <trkpt lat="48.85442" lon="2.34609">
        <ele>156</ele>
        <time>2013-10-29T20:46:51.561Z</time>
      </trkpt>
      <trkpt lat="48.85445" lon="2.34633">
        <ele>182</ele>
        <time>2013-10-29T20:46:58.573Z</time>
      </trkpt>
      <trkpt lat="48.85446" lon="2.34615">
        <ele>180</ele>
        <time>2013-10-29T20:46:59.565Z</time>
      </trkpt>
      <trkpt lat="48.85447" lon="2.34596">
        <ele>202</ele>
        <time>2013-10-29T20:47:00.565Z</time>
      </trkpt>
      <trkpt lat="48.85449" lon="2.34577">
        <ele>181</ele>
        <time>2013-10-29T20:47:01.566Z</time>
      </trkpt>
      <trkpt lat="48.8545" lon="2.34556">
        <ele>189</ele>
        <time>2013-10-29T20:47:02.580Z</time>
      </trkpt>
      <trkpt lat="48.85452" lon="2.34541">
        <ele>167</ele>
        <time>2013-10-29T20:47:03.567Z</time>
      </trkpt>
      <trkpt lat="48.85453" lon="2.34527">
        <ele>175</ele>
        <time>2013-10-29T20:47:04.643Z</time>
      </trkpt>
      <trkpt lat="48.85454" lon="2.34505">
        <ele>170</ele>
        <time>2013-10-29T20:47:06.560Z</time>
      </trkpt>
      <trkpt lat="48.85454" lon="2.34495">
        <ele>162</ele>
        <time>2013-10-29T20:47:07.565Z</time>
      </trkpt>
      <trkpt lat="48.85456" lon="2.34473">
        <ele>143</ele>
        <time>2013-10-29T20:47:10.556Z</time>
      </trkpt>
      <trkpt lat="48.85458" lon="2.34466">
        <ele>135</ele>
        <time>2013-10-29T20:47:11.556Z</time>
      </trkpt>
      <trkpt lat="48.85462" lon="2.34445">
        <ele>125</ele>
        <time>2013-10-29T20:47:13.566Z</time>
      </trkpt>
      <trkpt lat="48.85464" lon="2.34435">
        <ele>124</ele>
        <time>2013-10-29T20:47:14.566Z</time>
      </trkpt>
      <trkpt lat="48.85468" lon="2.34417">
        <ele>122</ele>
        <time>2013-10-29T20:47:16.497Z</time>
      </trkpt>
      <trkpt lat="48.8547" lon="2.34408">
        <ele>121</ele>
        <time>2013-10-29T20:47:17.567Z</time>
      </trkpt>
      <trkpt lat="48.85477" lon="2.34384">
        <ele>115</ele>
        <time>2013-10-29T20:47:20.567Z</time>
      </trkpt>
      <trkpt lat="48.85481" lon="2.34379">
        <ele>116</ele>
        <time>2013-10-29T20:47:21.556Z</time>
      </trkpt>
      <trkpt lat="48.8549" lon="2.34356">
        <ele>110</ele>
        <time>2013-10-29T20:47:25.552Z</time>
      </trkpt>
      <trkpt lat="48.85491" lon="2.3435">
        <ele>105</ele>
        <time>2013-10-29T20:47:26.599Z</time>
      </trkpt>
      <trkpt lat="48.855" lon="2.34328">
        <ele>98</ele>
        <time>2013-10-29T20:47:30.563Z</time>
      </trkpt>
      <trkpt lat="48.85502" lon="2.34324">
        <ele>98</ele>
        <time>2013-10-29T20:47:31.562Z</time>
      </trkpt>
      <trkpt lat="48.85514" lon="2.34308">
        <ele>99</ele>
        <time>2013-10-29T20:47:35.542Z</time>
      </trkpt>
      <trkpt lat="48.85517" lon="2.34303">
        <ele>98</ele>
        <time>2013-10-29T20:47:36.559Z</time>
      </trkpt>
      <trkpt lat="48.85529" lon="2.34289">
        <ele>94</ele>
        <time>2013-10-29T20:47:39.565Z</time>
      </trkpt>
      <trkpt lat="48.85532" lon="2.34285">
        <ele>90</ele>
        <time>2013-10-29T20:47:40.565Z</time>
      </trkpt>
      <trkpt lat="48.85546" lon="2.3427">
        <ele>81</ele>
        <time>2013-10-29T20:47:44.553Z</time>
      </trkpt>
      <trkpt lat="48.8555" lon="2.34267">
        <ele>81</ele>
        <time>2013-10-29T20:47:45.560Z</time>
      </trkpt>
      <trkpt lat="48.85564" lon="2.34254">
        <ele>77</ele>
        <time>2013-10-29T20:47:49.560Z</time>
      </trkpt>
      <trkpt lat="48.85568" lon="2.34251">
        <ele>79</ele>
        <time>2013-10-29T20:47:50.570Z</time>
      </trkpt>
      <trkpt lat="48.85582" lon="2.34238">
        <ele>78</ele>
        <time>2013-10-29T20:47:54.573Z</time>
      </trkpt>
      <trkpt lat="48.85585" lon="2.34235">
        <ele>78</ele>
        <time>2013-10-29T20:47:55.698Z</time>
      </trkpt>
      <trkpt lat="48.85599" lon="2.34223">
        <ele>79</ele>
        <time>2013-10-29T20:47:59.575Z</time>
      </trkpt>
      <trkpt lat="48.85603" lon="2.3422">
        <ele>81</ele>
        <time>2013-10-29T20:48:00.529Z</time>
      </trkpt>
      <trkpt lat="48.85617" lon="2.34207">
        <ele>81</ele>
        <time>2013-10-29T20:48:04.565Z</time>
      </trkpt>
      <trkpt lat="48.8562" lon="2.34204">
        <ele>77</ele>
        <time>2013-10-29T20:48:05.566Z</time>
      </trkpt>
      <trkpt lat="48.85633" lon="2.34189">
        <ele>77</ele>
        <time>2013-10-29T20:48:09.572Z</time>
      </trkpt>
      <trkpt lat="48.85637" lon="2.34185">
        <ele>77</ele>
        <time>2013-10-29T20:48:10.573Z</time>
      </trkpt>
      <trkpt lat="48.8565" lon="2.34171">
        <ele>77</ele>
        <time>2013-10-29T20:48:14.573Z</time>
      </trkpt>
      <trkpt lat="48.85653" lon="2.34168">
        <ele>77</ele>
        <time>2013-10-29T20:48:15.572Z</time>
      </trkpt>
      <trkpt lat="48.85665" lon="2.34153">
        <ele>76</ele>
        <time>2013-10-29T20:48:20.567Z</time>
      </trkpt>
      <trkpt lat="48.85667" lon="2.3415">
        <ele>76</ele>
        <time>2013-10-29T20:48:21.581Z</time>
      </trkpt>
      <trkpt lat="48.85677" lon="2.34129">
        <ele>81</ele>
        <time>2013-10-29T20:48:29.576Z</time>
      </trkpt>
      <trkpt lat="48.85678" lon="2.34125">
        <ele>82</ele>
        <time>2013-10-29T20:48:30.571Z</time>
      </trkpt>
      <trkpt lat="48.85675" lon="2.34099">
        <ele>81</ele>
        <time>2013-10-29T20:48:46.762Z</time>
      </trkpt>
      <trkpt lat="48.85675" lon="2.34097">
        <ele>83</ele>
        <time>2013-10-29T20:48:47.582Z</time>
      </trkpt>
      <trkpt lat="48.85664" lon="2.34075">
        <ele>80</ele>
        <time>2013-10-29T20:48:57.573Z</time>
      </trkpt>
      <trkpt lat="48.85661" lon="2.34075">
        <ele>79</ele>
        <time>2013-10-29T20:48:58.575Z</time>
      </trkpt>
      <trkpt lat="48.85646" lon="2.34065">
        <ele>75</ele>
        <time>2013-10-29T20:49:05.577Z</time>
      </trkpt>
      <trkpt lat="48.85643" lon="2.34063">
        <ele>73</ele>
        <time>2013-10-29T20:49:06.581Z</time>
      </trkpt>
      <trkpt lat="48.8563" lon="2.34045">
        <ele>76</ele>
        <time>2013-10-29T20:49:15.551Z</time>
      </trkpt>
      <trkpt lat="48.8563" lon="2.34043">
        <ele>75</ele>
        <time>2013-10-29T20:49:16.574Z</time>
      </trkpt>
      <trkpt lat="48.85633" lon="2.34035">
        <ele>69</ele>
        <time>2013-10-29T20:49:30.668Z</time>
      </trkpt>
      <trkpt lat="48.85633" lon="2.34035">
        <ele>70</ele>
        <time>2013-10-29T20:49:31.581Z</time>
      </trkpt>
      <trkpt lat="48.85633" lon="2.34035">
        <ele>79</ele>
        <time>2013-10-29T20:49:57.585Z</time>
      </trkpt>
      <trkpt lat="48.85633" lon="2.34034">
        <ele>77</ele>
        <time>2013-10-29T20:49:58.577Z</time>
      </trkpt>
      <trkpt lat="48.85618" lon="2.3403">
        <ele>77</ele>
        <time>2013-10-29T20:50:04.528Z</time>
      </trkpt>
      <trkpt lat="48.85614" lon="2.34031">
        <ele>74</ele>
        <time>2013-10-29T20:50:05.577Z</time>
      </trkpt>
      <trkpt lat="48.85604" lon="2.34014">
        <ele>77</ele>
        <time>2013-10-29T20:50:11.570Z</time>
      </trkpt>
      <trkpt lat="48.85602" lon="2.3401">
        <ele>82</ele>
        <time>2013-10-29T20:50:12.599Z</time>
      </trkpt>
      <trkpt lat="48.85595" lon="2.33992">
        <ele>88</ele>
        <time>2013-10-29T20:50:16.573Z</time>
      </trkpt>
      <trkpt lat="48.85524" lon="2.33958">
        <ele>89</ele>
        <time>2013-10-29T20:50:59.660Z</time>
      </trkpt>
      <trkpt lat="48.85508" lon="2.33958">
        <ele>87</ele>
        <time>2013-10-29T20:51:03.569Z</time>
      </trkpt>
      <trkpt lat="48.85505" lon="2.33957">
        <ele>90</ele>
        <time>2013-10-29T20:51:04.550Z</time>
      </trkpt>
      <trkpt lat="48.85489" lon="2.33952">
        <ele>86</ele>
        <time>2013-10-29T20:51:10.557Z</time>
      </trkpt>
      <trkpt lat="48.85486" lon="2.3395">
        <ele>87</ele>
        <time>2013-10-29T20:51:11.559Z</time>
      </trkpt>
      <trkpt lat="48.85473" lon="2.33938">
        <ele>83</ele>
        <time>2013-10-29T20:51:15.558Z</time>
      </trkpt>
      <trkpt lat="48.8547" lon="2.33934">
        <ele>81</ele>
        <time>2013-10-29T20:51:16.496Z</time>
      </trkpt>
      <trkpt lat="48.85456" lon="2.33924">
        <ele>82</ele>
        <time>2013-10-29T20:51:20.555Z</time>
      </trkpt>
      <trkpt lat="48.85452" lon="2.33921">
        <ele>84</ele>
        <time>2013-10-29T20:51:21.557Z</time>
      </trkpt>
      <trkpt lat="48.85435" lon="2.33914">
        <ele>79</ele>
        <time>2013-10-29T20:51:25.555Z</time>
      </trkpt>
      <trkpt lat="48.85431" lon="2.33912">
        <ele>80</ele>
        <time>2013-10-29T20:51:26.554Z</time>
      </trkpt>
      <trkpt lat="48.85416" lon="2.33899">
        <ele>78</ele>
        <time>2013-10-29T20:51:30.554Z</time>
      </trkpt>
      <trkpt lat="48.85412" lon="2.33896">
        <ele>73</ele>
        <time>2013-10-29T20:51:31.558Z</time>
      </trkpt>
      <trkpt lat="48.85399" lon="2.33885">
        <ele>75</ele>
        <time>2013-10-29T20:51:34.558Z</time>
      </trkpt>
      <trkpt lat="48.85395" lon="2.33881">
        <ele>74</ele>
        <time>2013-10-29T20:51:35.557Z</time>
      </trkpt>
      <trkpt lat="48.8538" lon="2.33872">
        <ele>80</ele>
        <time>2013-10-29T20:51:39.498Z</time>
      </trkpt>
      <trkpt lat="48.85377" lon="2.33869">
        <ele>79</ele>
        <time>2013-10-29T20:51:40.567Z</time>
      </trkpt>
      <trkpt lat="48.85364" lon="2.33851">
        <ele>76</ele>
        <time>2013-10-29T20:51:46.557Z</time>
      </trkpt>
      <trkpt lat="48.85364" lon="2.33848">
        <ele>76</ele>
        <time>2013-10-29T20:51:47.566Z</time>
      </trkpt>
      <trkpt lat="48.85368" lon="2.33823">
        <ele>77</ele>
        <time>2013-10-29T20:51:55.553Z</time>
      </trkpt>
      <trkpt lat="48.85368" lon="2.33821">
        <ele>79</ele>
        <time>2013-10-29T20:51:56.554Z</time>
      </trkpt>
      <trkpt lat="48.85377" lon="2.33801">
        <ele>85</ele>
        <time>2013-10-29T20:52:06.561Z</time>
      </trkpt>
      <trkpt lat="48.85377" lon="2.33797">
        <ele>87</ele>
        <time>2013-10-29T20:52:07.563Z</time>
      </trkpt>
      <trkpt lat="48.85381" lon="2.33771">
        <ele>82</ele>
        <time>2013-10-29T20:52:12.551Z</time>
      </trkpt>
      <trkpt lat="48.85383" lon="2.33766">
        <ele>83</ele>
        <time>2013-10-29T20:52:13.559Z</time>
      </trkpt>
      <trkpt lat="48.8539" lon="2.33743">
        <ele>81</ele>
        <time>2013-10-29T20:52:18.551Z</time>
      </trkpt>
      <trkpt lat="48.8539" lon="2.33739">
        <ele>80</ele>
        <time>2013-10-29T20:52:19.552Z</time>
      </trkpt>
      <trkpt lat="48.85391" lon="2.33714">
        <ele>78</ele>
        <time>2013-10-29T20:52:23.557Z</time>
      </trkpt>
      <trkpt lat="48.85391" lon="2.33707">
        <ele>78</ele>
        <time>2013-10-29T20:52:24.552Z</time>
      </trkpt>
      <trkpt lat="48.85385" lon="2.33682">
        <ele>81</ele>
        <time>2013-10-29T20:52:29.568Z</time>
      </trkpt>
      <trkpt lat="48.85383" lon="2.33678">
        <ele>79</ele>
        <time>2013-10-29T20:52:30.576Z</time>
      </trkpt>
      <trkpt lat="48.85373" lon="2.33658">
        <ele>80</ele>
        <time>2013-10-29T20:52:35.601Z</time>
      </trkpt>
      <trkpt lat="48.85372" lon="2.33654">
        <ele>79</ele>
        <time>2013-10-29T20:52:36.564Z</time>
      </trkpt>
      <trkpt lat="48.85381" lon="2.33631">
        <ele>89</ele>
        <time>2013-10-29T20:52:45.568Z</time>
      </trkpt>
      <trkpt lat="48.85386" lon="2.33626">
        <ele>91</ele>
        <time>2013-10-29T20:52:46.555Z</time>
      </trkpt>
      <trkpt lat="48.85399" lon="2.33612">
        <ele>93</ele>
        <time>2013-10-29T20:52:48.561Z</time>
      </trkpt>
      <trkpt lat="48.85403" lon="2.33604">
        <ele>90</ele>
        <time>2013-10-29T20:52:49.562Z</time>
      </trkpt>
      <trkpt lat="48.85407" lon="2.33583">
        <ele>89</ele>
        <time>2013-10-29T20:52:52.561Z</time>
      </trkpt>
      <trkpt lat="48.85406" lon="2.33576">
        <ele>88</ele>
        <time>2013-10-29T20:52:53.563Z</time>
      </trkpt>
      <trkpt lat="48.85406" lon="2.33551">
        <ele>90</ele>
        <time>2013-10-29T20:52:58.571Z</time>
      </trkpt>
      <trkpt lat="48.85407" lon="2.33547">
        <ele>89</ele>
        <time>2013-10-29T20:52:59.564Z</time>
      </trkpt>
      <trkpt lat="48.85413" lon="2.33523">
        <ele>91</ele>
        <time>2013-10-29T20:53:06.568Z</time>
      </trkpt>
      <trkpt lat="48.85415" lon="2.33518">
        <ele>92</ele>
        <time>2013-10-29T20:53:07.566Z</time>
      </trkpt>
      <trkpt lat="48.85422" lon="2.33499">
        <ele>90</ele>
        <time>2013-10-29T20:53:11.565Z</time>
      </trkpt>
      <trkpt lat="48.85424" lon="2.33494">
        <ele>91</ele>
        <time>2013-10-29T20:53:12.573Z</time>
      </trkpt>
      <trkpt lat="48.85429" lon="2.33472">
        <ele>89</ele>
        <time>2013-10-29T20:53:16.571Z</time>
      </trkpt>
      <trkpt lat="48.8543" lon="2.33466">
        <ele>87</ele>
        <time>2013-10-29T20:53:17.567Z</time>
      </trkpt>
      <trkpt lat="48.85435" lon="2.33443">
        <ele>88</ele>
        <time>2013-10-29T20:53:21.565Z</time>
      </trkpt>
      <trkpt lat="48.85437" lon="2.33437">
        <ele>86</ele>
        <time>2013-10-29T20:53:22.572Z</time>
      </trkpt>
      <trkpt lat="48.85441" lon="2.33413">
        <ele>77</ele>
        <time>2013-10-29T20:53:26.572Z</time>
      </trkpt>
      <trkpt lat="48.85442" lon="2.33408">
        <ele>75</ele>
        <time>2013-10-29T20:53:27.569Z</time>
      </trkpt>
      <trkpt lat="48.8545" lon="2.33386">
        <ele>78</ele>
        <time>2013-10-29T20:53:34.558Z</time>
      </trkpt>
      <trkpt lat="48.85451" lon="2.33382">
        <ele>77</ele>
        <time>2013-10-29T20:53:35.586Z</time>
      </trkpt>
      <trkpt lat="48.85453" lon="2.33355">
        <ele>77</ele>
        <time>2013-10-29T20:53:42.575Z</time>
      </trkpt>
      <trkpt lat="48.85453" lon="2.33352">
        <ele>77</ele>
        <time>2013-10-29T20:53:43.576Z</time>
      </trkpt>
      <trkpt lat="48.85458" lon="2.33329">
        <ele>81</ele>
        <time>2013-10-29T20:53:51.563Z</time>
      </trkpt>
      <trkpt lat="48.85459" lon="2.33325">
        <ele>87</ele>
        <time>2013-10-29T20:53:52.563Z</time>
      </trkpt>
      <trkpt lat="48.85467" lon="2.33302">
        <ele>83</ele>
        <time>2013-10-29T20:54:01.574Z</time>
      </trkpt>
      <trkpt lat="48.85467" lon="2.333">
        <ele>81</ele>
        <time>2013-10-29T20:54:02.573Z</time>
      </trkpt>
      <trkpt lat="48.85467" lon="2.33298">
        <ele>81</ele>
        <time>2013-10-29T20:54:03.572Z</time>
      </trkpt>
      <trkpt lat="48.85518" lon="2.33302">
        <ele>72</ele>
        <time>2013-10-29T20:54:31.653Z</time>
      </trkpt>
      <trkpt lat="48.8553" lon="2.33317">
        <ele>70</ele>
        <time>2013-10-29T20:54:35.582Z</time>
      </trkpt>
      <trkpt lat="48.85533" lon="2.33322">
        <ele>66</ele>
        <time>2013-10-29T20:54:36.568Z</time>
      </trkpt>
      <trkpt lat="48.85544" lon="2.33339">
        <ele>69</ele>
        <time>2013-10-29T20:54:40.569Z</time>
      </trkpt>
      <trkpt lat="48.85547" lon="2.33343">
        <ele>69</ele>
        <time>2013-10-29T20:54:41.569Z</time>
      </trkpt>
      <trkpt lat="48.85561" lon="2.33355">
        <ele>75</ele>
        <time>2013-10-29T20:54:46.574Z</time>
      </trkpt>
      <trkpt lat="48.85564" lon="2.33352">
        <ele>76</ele>
        <time>2013-10-29T20:54:47.604Z</time>
      </trkpt>
      <trkpt lat="48.85573" lon="2.33333">
        <ele>75</ele>
        <time>2013-10-29T20:54:50.579Z</time>
      </trkpt>
      <trkpt lat="48.85576" lon="2.33325">
        <ele>75</ele>
        <time>2013-10-29T20:54:51.568Z</time>
      </trkpt>
      <trkpt lat="48.85584" lon="2.33305">
        <ele>73</ele>
        <time>2013-10-29T20:54:54.568Z</time>
      </trkpt>
      <trkpt lat="48.85587" lon="2.333">
        <ele>74</ele>
        <time>2013-10-29T20:54:55.571Z</time>
      </trkpt>
      <trkpt lat="48.85596" lon="2.33281">
        <ele>75</ele>
        <time>2013-10-29T20:54:59.577Z</time>
      </trkpt>
      <trkpt lat="48.85599" lon="2.33277">
        <ele>75</ele>
        <time>2013-10-29T20:55:00.539Z</time>
      </trkpt>
      <trkpt lat="48.85609" lon="2.33259">
        <ele>72</ele>
        <time>2013-10-29T20:55:04.579Z</time>
      </trkpt>
      <trkpt lat="48.8561" lon="2.33253">
        <ele>75</ele>
        <time>2013-10-29T20:55:05.574Z</time>
      </trkpt>
      <trkpt lat="48.85616" lon="2.3323">
        <ele>85</ele>
        <time>2013-10-29T20:55:09.572Z</time>
      </trkpt>
      <trkpt lat="48.85618" lon="2.33224">
        <ele>83</ele>
        <time>2013-10-29T20:55:10.574Z</time>
      </trkpt>
      <trkpt lat="48.85627" lon="2.33203">
        <ele>83</ele>
        <time>2013-10-29T20:55:14.572Z</time>
      </trkpt>
      <trkpt lat="48.85629" lon="2.33198">
        <ele>82</ele>
        <time>2013-10-29T20:55:15.568Z</time>
      </trkpt>
      <trkpt lat="48.85632" lon="2.33173">
        <ele>75</ele>
        <time>2013-10-29T20:55:21.652Z</time>
      </trkpt>
      <trkpt lat="48.85632" lon="2.3317">
        <ele>78</ele>
        <time>2013-10-29T20:55:22.578Z</time>
      </trkpt>
      <trkpt lat="48.85635" lon="2.33146">
        <ele>80</ele>
        <time>2013-10-29T20:55:43.566Z</time>
      </trkpt>
      <trkpt lat="48.85637" lon="2.33142">
        <ele>78</ele>
        <time>2013-10-29T20:55:44.590Z</time>
      </trkpt>
      <trkpt lat="48.85649" lon="2.33126">
        <ele>84</ele>
        <time>2013-10-29T20:55:48.575Z</time>
      </trkpt>
      <trkpt lat="48.85651" lon="2.33122">
        <ele>84</ele>
        <time>2013-10-29T20:55:49.582Z</time>
      </trkpt>
      <trkpt lat="48.8566" lon="2.33103">
        <ele>82</ele>
        <time>2013-10-29T20:55:53.581Z</time>
      </trkpt>
      <trkpt lat="48.85662" lon="2.33098">
        <ele>83</ele>
        <time>2013-10-29T20:55:54.583Z</time>
      </trkpt>
      <trkpt lat="48.85668" lon="2.33078">
        <ele>81</ele>
        <time>2013-10-29T20:55:57.581Z</time>
      </trkpt>
      <trkpt lat="48.85671" lon="2.33072">
        <ele>82</ele>
        <time>2013-10-29T20:55:58.529Z</time>
      </trkpt>
      <trkpt lat="48.85678" lon="2.33052">
        <ele>87</ele>
        <time>2013-10-29T20:56:01.544Z</time>
      </trkpt>
      <trkpt lat="48.8568" lon="2.33046">
        <ele>86</ele>
        <time>2013-10-29T20:56:02.585Z</time>
      </trkpt>
      <trkpt lat="48.85688" lon="2.33023">
        <ele>76</ele>
        <time>2013-10-29T20:56:06.548Z</time>
      </trkpt>
      <trkpt lat="48.85689" lon="2.33017">
        <ele>76</ele>
        <time>2013-10-29T20:56:07.546Z</time>
      </trkpt>
      <trkpt lat="48.85697" lon="2.32993">
        <ele>73</ele>
        <time>2013-10-29T20:56:11.550Z</time>
      </trkpt>
      <trkpt lat="48.85699" lon="2.32988">
        <ele>74</ele>
        <time>2013-10-29T20:56:12.557Z</time>
      </trkpt>
      <trkpt lat="48.85709" lon="2.32965">
        <ele>75</ele>
        <time>2013-10-29T20:56:16.563Z</time>
      </trkpt>
      <trkpt lat="48.85712" lon="2.3296">
        <ele>73</ele>
        <time>2013-10-29T20:56:17.546Z</time>
      </trkpt>
      <trkpt lat="48.85723" lon="2.32942">
        <ele>73</ele>
        <time>2013-10-29T20:56:21.554Z</time>
      </trkpt>
      <trkpt lat="48.85726" lon="2.32937">
        <ele>74</ele>
        <time>2013-10-29T20:56:22.546Z</time>
      </trkpt>
      <trkpt lat="48.85736" lon="2.32919">
        <ele>86</ele>
        <time>2013-10-29T20:56:26.554Z</time>
      </trkpt>
      <trkpt lat="48.85738" lon="2.32915">
        <ele>87</ele>
        <time>2013-10-29T20:56:27.547Z</time>
      </trkpt>
      <trkpt lat="48.85746" lon="2.32894">
        <ele>83</ele>
        <time>2013-10-29T20:56:32.549Z</time>
      </trkpt>
      <trkpt lat="48.85749" lon="2.32892">
        <ele>81</ele>
        <time>2013-10-29T20:56:33.550Z</time>
      </trkpt>
      <trkpt lat="48.85766" lon="2.32885">
        <ele>78</ele>
        <time>2013-10-29T20:56:38.554Z</time>
      </trkpt>
      <trkpt lat="48.85769" lon="2.32885">
        <ele>79</ele>
        <time>2013-10-29T20:56:39.549Z</time>
      </trkpt>
      <trkpt lat="48.85784" lon="2.32885">
        <ele>85</ele>
        <time>2013-10-29T20:56:42.559Z</time>
      </trkpt>
      <trkpt lat="48.85789" lon="2.32885">
        <ele>79</ele>
        <time>2013-10-29T20:56:43.549Z</time>
      </trkpt>
      <trkpt lat="48.85804" lon="2.32893">
        <ele>77</ele>
        <time>2013-10-29T20:56:46.561Z</time>
      </trkpt>
      <trkpt lat="48.85808" lon="2.32899">
        <ele>77</ele>
        <time>2013-10-29T20:56:47.561Z</time>
      </trkpt>
      <trkpt lat="48.85816" lon="2.32919">
        <ele>74</ele>
        <time>2013-10-29T20:56:50.550Z</time>
      </trkpt>
      <trkpt lat="48.85819" lon="2.32926">
        <ele>75</ele>
        <time>2013-10-29T20:56:51.551Z</time>
      </trkpt>
      <trkpt lat="48.85829" lon="2.32942">
        <ele>80</ele>
        <time>2013-10-29T20:56:54.549Z</time>
      </trkpt>
      <trkpt lat="48.85832" lon="2.32947">
        <ele>81</ele>
        <time>2013-10-29T20:56:55.552Z</time>
      </trkpt>
      <trkpt lat="48.85845" lon="2.32957">
        <ele>83</ele>
        <time>2013-10-29T20:56:58.563Z</time>
      </trkpt>
      <trkpt lat="48.85849" lon="2.32959">
        <ele>80</ele>
        <time>2013-10-29T20:56:59.554Z</time>
      </trkpt>
      <trkpt lat="48.85864" lon="2.32973">
        <ele>78</ele>
        <time>2013-10-29T20:57:03.563Z</time>
      </trkpt>
      <trkpt lat="48.85867" lon="2.32977">
        <ele>76</ele>
        <time>2013-10-29T20:57:04.569Z</time>
      </trkpt>
      <trkpt lat="48.85882" lon="2.32992">
        <ele>70</ele>
        <time>2013-10-29T20:57:08.557Z</time>
      </trkpt>
      <trkpt lat="48.85885" lon="2.32995">
        <ele>69</ele>
        <time>2013-10-29T20:57:09.567Z</time>
      </trkpt>
      <trkpt lat="48.85899" lon="2.33009">
        <ele>75</ele>
        <time>2013-10-29T20:57:13.562Z</time>
      </trkpt>
      <trkpt lat="48.85902" lon="2.33012">
        <ele>74</ele>
        <time>2013-10-29T20:57:14.560Z</time>
      </trkpt>
      <trkpt lat="48.85912" lon="2.33021">
        <ele>77</ele>
        <time>2013-10-29T20:57:17.561Z</time>
      </trkpt>
      <trkpt lat="48.85918" lon="2.33026">
        <ele>84</ele>
        <time>2013-10-29T20:57:19.561Z</time>
      </trkpt>
      <trkpt lat="48.85917" lon="2.3302">
        <ele>83</ele>
        <time>2013-10-29T20:57:30.578Z</time>
      </trkpt>
      <trkpt lat="48.85917" lon="2.3302">
        <ele>81</ele>
        <time>2013-10-29T20:57:31.572Z</time>
      </trkpt>
      <trkpt lat="48.85916" lon="2.3302">
        <ele>87</ele>
        <time>2013-10-29T20:57:33.573Z</time>
      </trkpt>
      <trkpt lat="48.85917" lon="2.33018">
        <ele>88</ele>
        <time>2013-10-29T20:57:34.513Z</time>
      </trkpt>
      <trkpt lat="48.85927" lon="2.32996">
        <ele>91</ele>
        <time>2013-10-29T20:57:40.557Z</time>
      </trkpt>
      <trkpt lat="48.85929" lon="2.32992">
        <ele>90</ele>
        <time>2013-10-29T20:57:41.557Z</time>
      </trkpt>
      <trkpt lat="48.85938" lon="2.32972">
        <ele>90</ele>
        <time>2013-10-29T20:57:46.557Z</time>
      </trkpt>
      <trkpt lat="48.8594" lon="2.32969">
        <ele>91</ele>
        <time>2013-10-29T20:57:47.556Z</time>
      </trkpt>
      <trkpt lat="48.85951" lon="2.3295">
        <ele>90</ele>
        <time>2013-10-29T20:57:54.558Z</time>
      </trkpt>
      <trkpt lat="48.85953" lon="2.32948">
        <ele>92</ele>
        <time>2013-10-29T20:57:55.558Z</time>
      </trkpt>
      <trkpt lat="48.85956" lon="2.32921">
        <ele>85</ele>
        <time>2013-10-29T20:58:04.561Z</time>
      </trkpt>
      <trkpt lat="48.85957" lon="2.32916">
        <ele>86</ele>
        <time>2013-10-29T20:58:05.565Z</time>
      </trkpt>
      <trkpt lat="48.8596" lon="2.32893">
        <ele>91</ele>
        <time>2013-10-29T20:58:09.563Z</time>
      </trkpt>
      <trkpt lat="48.8596" lon="2.32886">
        <ele>88</ele>
        <time>2013-10-29T20:58:10.569Z</time>
      </trkpt>
      <trkpt lat="48.85958" lon="2.32861">
        <ele>81</ele>
        <time>2013-10-29T20:58:14.566Z</time>
      </trkpt>
      <trkpt lat="48.85958" lon="2.32855">
        <ele>77</ele>
        <time>2013-10-29T20:58:15.597Z</time>
      </trkpt>
      <trkpt lat="48.85954" lon="2.32829">
        <ele>76</ele>
        <time>2013-10-29T20:58:20.567Z</time>
      </trkpt>
      <trkpt lat="48.85954" lon="2.32824">
        <ele>80</ele>
        <time>2013-10-29T20:58:21.563Z</time>
      </trkpt>
      <trkpt lat="48.85954" lon="2.32799">
        <ele>90</ele>
        <time>2013-10-29T20:58:26.565Z</time>
      </trkpt>
      <trkpt lat="48.85955" lon="2.32794">
        <ele>91</ele>
        <time>2013-10-29T20:58:27.565Z</time>
      </trkpt>
      <trkpt lat="48.85969" lon="2.32784">
        <ele>87</ele>
        <time>2013-10-29T20:58:41.566Z</time>
      </trkpt>
      <trkpt lat="48.85972" lon="2.32784">
        <ele>87</ele>
        <time>2013-10-29T20:58:42.561Z</time>
      </trkpt>
      <trkpt lat="48.85983" lon="2.32785">
        <ele>92</ele>
        <time>2013-10-29T20:58:51.568Z</time>
      </trkpt>
      <trkpt lat="48.85983" lon="2.32785">
        <ele>92</ele>
        <time>2013-10-29T20:58:52.563Z</time>
      </trkpt>
      <trkpt lat="48.85983" lon="2.32785">
        <ele>91</ele>
        <time>2013-10-29T20:59:05.573Z</time>
      </trkpt>
      <trkpt lat="48.85984" lon="2.32785">
        <ele>94</ele>
        <time>2013-10-29T20:59:06.571Z</time>
      </trkpt>
      <trkpt lat="48.86001" lon="2.32786">
        <ele>96</ele>
        <time>2013-10-29T20:59:17.577Z</time>
      </trkpt>
      <trkpt lat="48.86004" lon="2.32786">
        <ele>97</ele>
        <time>2013-10-29T20:59:18.581Z</time>
      </trkpt>
      <trkpt lat="48.8602" lon="2.32776">
        <ele>83</ele>
        <time>2013-10-29T20:59:26.586Z</time>
      </trkpt>
      <trkpt lat="48.86021" lon="2.32771">
        <ele>83</ele>
        <time>2013-10-29T20:59:27.590Z</time>
      </trkpt>
      <trkpt lat="48.86028" lon="2.32751">
        <ele>80</ele>
        <time>2013-10-29T20:59:30.547Z</time>
      </trkpt>
      <trkpt lat="48.86031" lon="2.32743">
        <ele>80</ele>
        <time>2013-10-29T20:59:31.585Z</time>
      </trkpt>
      <trkpt lat="48.86038" lon="2.32728">
        <ele>81</ele>
        <time>2013-10-29T20:59:33.563Z</time>
      </trkpt>
      <trkpt lat="48.86041" lon="2.32719">
        <ele>82</ele>
        <time>2013-10-29T20:59:34.529Z</time>
      </trkpt>
      <trkpt lat="48.8605" lon="2.32702">
        <ele>80</ele>
        <time>2013-10-29T20:59:36.585Z</time>
      </trkpt>
      <trkpt lat="48.86053" lon="2.32693">
        <ele>78</ele>
        <time>2013-10-29T20:59:37.590Z</time>
      </trkpt>
      <trkpt lat="48.86061" lon="2.3267">
        <ele>76</ele>
        <time>2013-10-29T20:59:40.586Z</time>
      </trkpt>
      <trkpt lat="48.86063" lon="2.32662">
        <ele>78</ele>
        <time>2013-10-29T20:59:41.588Z</time>
      </trkpt>
      <trkpt lat="48.86068" lon="2.32642">
        <ele>77</ele>
        <time>2013-10-29T20:59:44.590Z</time>
      </trkpt>
      <trkpt lat="48.8607" lon="2.32635">
        <ele>76</ele>
        <time>2013-10-29T20:59:45.586Z</time>
      </trkpt>
      <trkpt lat="48.86076" lon="2.3261">
        <ele>77</ele>
        <time>2013-10-29T20:59:49.586Z</time>
      </trkpt>
      <trkpt lat="48.86078" lon="2.32605">
        <ele>76</ele>
        <time>2013-10-29T20:59:50.591Z</time>
      </trkpt>
      <trkpt lat="48.86086" lon="2.32584">
        <ele>77</ele>
        <time>2013-10-29T20:59:54.583Z</time>
      </trkpt>
      <trkpt lat="48.86087" lon="2.32579">
        <ele>77</ele>
        <time>2013-10-29T20:59:55.612Z</time>
      </trkpt>
      <trkpt lat="48.86094" lon="2.3256">
        <ele>73</ele>
        <time>2013-10-29T20:59:59.597Z</time>
      </trkpt>
      <trkpt lat="48.86096" lon="2.32554">
        <ele>74</ele>
        <time>2013-10-29T21:00:00.597Z</time>
      </trkpt>
      <trkpt lat="48.86101" lon="2.32533">
        <ele>74</ele>
        <time>2013-10-29T21:00:03.590Z</time>
      </trkpt>
      <trkpt lat="48.86102" lon="2.32526">
        <ele>76</ele>
        <time>2013-10-29T21:00:04.589Z</time>
      </trkpt>
      <trkpt lat="48.86108" lon="2.32502">
        <ele>76</ele>
        <time>2013-10-29T21:00:07.590Z</time>
      </trkpt>
      <trkpt lat="48.8611" lon="2.32495">
        <ele>76</ele>
        <time>2013-10-29T21:00:08.585Z</time>
      </trkpt>
      <trkpt lat="48.86116" lon="2.3247">
        <ele>75</ele>
        <time>2013-10-29T21:00:12.590Z</time>
      </trkpt>
      <trkpt lat="48.86117" lon="2.32464">
        <ele>77</ele>
        <time>2013-10-29T21:00:13.597Z</time>
      </trkpt>
      <trkpt lat="48.86125" lon="2.3244">
        <ele>76</ele>
        <time>2013-10-29T21:00:17.588Z</time>
      </trkpt>
      <trkpt lat="48.86127" lon="2.32434">
        <ele>78</ele>
        <time>2013-10-29T21:00:18.603Z</time>
      </trkpt>
      <trkpt lat="48.86135" lon="2.3241">
        <ele>75</ele>
        <time>2013-10-29T21:00:22.592Z</time>
      </trkpt>
      <trkpt lat="48.86137" lon="2.32405">
        <ele>76</ele>
        <time>2013-10-29T21:00:23.590Z</time>
      </trkpt>
      <trkpt lat="48.86143" lon="2.32382">
        <ele>75</ele>
        <time>2013-10-29T21:00:27.630Z</time>
      </trkpt>
      <trkpt lat="48.86145" lon="2.32376">
        <ele>75</ele>
        <time>2013-10-29T21:00:28.597Z</time>
      </trkpt>
      <trkpt lat="48.86151" lon="2.32355">
        <ele>72</ele>
        <time>2013-10-29T21:00:32.593Z</time>
      </trkpt>
      <trkpt lat="48.86152" lon="2.3235">
        <ele>71</ele>
        <time>2013-10-29T21:00:33.602Z</time>
      </trkpt>
      <trkpt lat="48.86159" lon="2.32326">
        <ele>78</ele>
        <time>2013-10-29T21:00:38.600Z</time>
      </trkpt>
      <trkpt lat="48.8616" lon="2.32321">
        <ele>76</ele>
        <time>2013-10-29T21:00:39.598Z</time>
      </trkpt>
      <trkpt lat="48.86166" lon="2.32298">
        <ele>77</ele>
        <time>2013-10-29T21:00:43.602Z</time>
      </trkpt>
      <trkpt lat="48.86167" lon="2.32292">
        <ele>76</ele>
        <time>2013-10-29T21:00:44.593Z</time>
      </trkpt>
      <trkpt lat="48.86174" lon="2.32271">
        <ele>76</ele>
        <time>2013-10-29T21:00:48.555Z</time>
      </trkpt>
      <trkpt lat="48.86175" lon="2.32266">
        <ele>75</ele>
        <time>2013-10-29T21:00:49.594Z</time>
      </trkpt>
      <trkpt lat="48.86183" lon="2.32247">
        <ele>76</ele>
        <time>2013-10-29T21:00:53.600Z</time>
      </trkpt>
      <trkpt lat="48.86184" lon="2.32242">
        <ele>76</ele>
        <time>2013-10-29T21:00:54.596Z</time>
      </trkpt>
      <trkpt lat="48.86191" lon="2.32219">
        <ele>77</ele>
        <time>2013-10-29T21:00:58.594Z</time>
      </trkpt>
      <trkpt lat="48.86192" lon="2.32214">
        <ele>77</ele>
        <time>2013-10-29T21:00:59.604Z</time>
      </trkpt>
      <trkpt lat="48.86199" lon="2.32192">
        <ele>73</ele>
        <time>2013-10-29T21:01:03.601Z</time>
      </trkpt>
      <trkpt lat="48.86201" lon="2.32186">
        <ele>73</ele>
        <time>2013-10-29T21:01:04.594Z</time>
      </trkpt>
      <trkpt lat="48.86208" lon="2.32163">
        <ele>71</ele>
        <time>2013-10-29T21:01:08.650Z</time>
      </trkpt>
      <trkpt lat="48.8621" lon="2.32158">
        <ele>76</ele>
        <time>2013-10-29T21:01:09.617Z</time>
      </trkpt>
      <trkpt lat="48.8622" lon="2.32136">
        <ele>74</ele>
        <time>2013-10-29T21:01:15.575Z</time>
      </trkpt>
      <trkpt lat="48.86222" lon="2.32132">
        <ele>74</ele>
        <time>2013-10-29T21:01:16.577Z</time>
      </trkpt>
      <trkpt lat="48.86232" lon="2.32111">
        <ele>69</ele>
        <time>2013-10-29T21:01:22.566Z</time>
      </trkpt>
      <trkpt lat="48.86234" lon="2.32106">
        <ele>67</ele>
        <time>2013-10-29T21:01:23.572Z</time>
      </trkpt>
      <trkpt lat="48.8624" lon="2.32084">
        <ele>70</ele>
        <time>2013-10-29T21:01:27.558Z</time>
      </trkpt>
      <trkpt lat="48.86241" lon="2.32078">
        <ele>69</ele>
        <time>2013-10-29T21:01:28.555Z</time>
      </trkpt>
      <trkpt lat="48.86248" lon="2.32055">
        <ele>70</ele>
        <time>2013-10-29T21:01:32.559Z</time>
      </trkpt>
      <trkpt lat="48.8625" lon="2.3205">
        <ele>70</ele>
        <time>2013-10-29T21:01:33.578Z</time>
      </trkpt>
      <trkpt lat="48.86256" lon="2.32027">
        <ele>72</ele>
        <time>2013-10-29T21:01:37.574Z</time>
      </trkpt>
      <trkpt lat="48.86258" lon="2.32021">
        <ele>72</ele>
        <time>2013-10-29T21:01:38.568Z</time>
      </trkpt>
      <trkpt lat="48.8626" lon="2.32">
        <ele>69</ele>
        <time>2013-10-29T21:01:42.573Z</time>
      </trkpt>
      <trkpt lat="48.86261" lon="2.31994">
        <ele>71</ele>
        <time>2013-10-29T21:01:43.574Z</time>
      </trkpt>
      <trkpt lat="48.86266" lon="2.31968">
        <ele>70</ele>
        <time>2013-10-29T21:01:47.575Z</time>
      </trkpt>
      <trkpt lat="48.86267" lon="2.31962">
        <ele>70</ele>
        <time>2013-10-29T21:01:48.581Z</time>
      </trkpt>
      <trkpt lat="48.86273" lon="2.31942">
        <ele>70</ele>
        <time>2013-10-29T21:01:51.574Z</time>
      </trkpt>
      <trkpt lat="48.86275" lon="2.31936">
        <ele>70</ele>
        <time>2013-10-29T21:01:52.567Z</time>
      </trkpt>
      <trkpt lat="48.86277" lon="2.3193">
        <ele>70</ele>
        <time>2013-10-29T21:01:53.547Z</time>
      </trkpt>
      <trkpt lat="48.86293" lon="2.31887">
        <ele>84</ele>
        <time>2013-10-29T21:02:00.545Z</time>
      </trkpt>
      <trkpt lat="48.863" lon="2.31865">
        <ele>82</ele>
        <time>2013-10-29T21:02:04.577Z</time>
      </trkpt>
      <trkpt lat="48.86302" lon="2.31859">
        <ele>82</ele>
        <time>2013-10-29T21:02:05.570Z</time>
      </trkpt>
      <trkpt lat="48.86309" lon="2.31837">
        <ele>83</ele>
        <time>2013-10-29T21:02:10.582Z</time>
      </trkpt>
      <trkpt lat="48.8631" lon="2.31833">
        <ele>79</ele>
        <time>2013-10-29T21:02:11.574Z</time>
      </trkpt>
      <trkpt lat="48.86316" lon="2.31812">
        <ele>78</ele>
        <time>2013-10-29T21:02:16.577Z</time>
      </trkpt>
      <trkpt lat="48.86317" lon="2.31807">
        <ele>78</ele>
        <time>2013-10-29T21:02:17.582Z</time>
      </trkpt>
      <trkpt lat="48.86322" lon="2.31782">
        <ele>74</ele>
        <time>2013-10-29T21:02:22.573Z</time>
      </trkpt>
      <trkpt lat="48.86323" lon="2.31778">
        <ele>73</ele>
        <time>2013-10-29T21:02:23.581Z</time>
      </trkpt>
      <trkpt lat="48.86326" lon="2.31752">
        <ele>76</ele>
        <time>2013-10-29T21:02:28.579Z</time>
      </trkpt>
      <trkpt lat="48.86326" lon="2.31747">
        <ele>75</ele>
        <time>2013-10-29T21:02:29.577Z</time>
      </trkpt>
      <trkpt lat="48.86324" lon="2.31722">
        <ele>72</ele>
        <time>2013-10-29T21:02:34.582Z</time>
      </trkpt>
      <trkpt lat="48.86324" lon="2.31717">
        <ele>73</ele>
        <time>2013-10-29T21:02:35.582Z</time>
      </trkpt>
      <trkpt lat="48.86322" lon="2.31695">
        <ele>69</ele>
        <time>2013-10-29T21:02:39.577Z</time>
      </trkpt>
      <trkpt lat="48.86321" lon="2.3169">
        <ele>69</ele>
        <time>2013-10-29T21:02:40.577Z</time>
      </trkpt>
      <trkpt lat="48.86318" lon="2.31666">
        <ele>68</ele>
        <time>2013-10-29T21:02:45.581Z</time>
      </trkpt>
      <trkpt lat="48.86318" lon="2.31662">
        <ele>67</ele>
        <time>2013-10-29T21:02:46.582Z</time>
      </trkpt>
      <trkpt lat="48.86307" lon="2.31682">
        <ele>73</ele>
        <time>2013-10-29T21:03:02.585Z</time>
      </trkpt>
      <trkpt lat="48.86307" lon="2.31687">
        <ele>72</ele>
        <time>2013-10-29T21:03:03.581Z</time>
      </trkpt>
      <trkpt lat="48.86307" lon="2.3171">
        <ele>75</ele>
        <time>2013-10-29T21:03:08.583Z</time>
      </trkpt>
      <trkpt lat="48.86307" lon="2.31715">
        <ele>75</ele>
        <time>2013-10-29T21:03:09.581Z</time>
      </trkpt>
      <trkpt lat="48.86308" lon="2.31738">
        <ele>74</ele>
        <time>2013-10-29T21:03:15.581Z</time>
      </trkpt>
      <trkpt lat="48.86309" lon="2.31742">
        <ele>73</ele>
        <time>2013-10-29T21:03:16.575Z</time>
      </trkpt>
      <trkpt lat="48.86309" lon="2.31768">
        <ele>81</ele>
        <time>2013-10-29T21:03:24.582Z</time>
      </trkpt>
      <trkpt lat="48.86309" lon="2.3177">
        <ele>76</ele>
        <time>2013-10-29T21:03:25.590Z</time>
      </trkpt>
      <trkpt lat="48.86306" lon="2.31796">
        <ele>73</ele>
        <time>2013-10-29T21:03:33.589Z</time>
      </trkpt>
      <trkpt lat="48.86305" lon="2.318">
        <ele>71</ele>
        <time>2013-10-29T21:03:34.532Z</time>
      </trkpt>
      <trkpt lat="48.86301" lon="2.31825">
        <ele>73</ele>
        <time>2013-10-29T21:03:41.585Z</time>
      </trkpt>
      <trkpt lat="48.863" lon="2.31829">
        <ele>75</ele>
        <time>2013-10-29T21:03:42.584Z</time>
      </trkpt>
      <trkpt lat="48.86292" lon="2.3185">
        <ele>73</ele>
        <time>2013-10-29T21:03:48.593Z</time>
      </trkpt>
      <trkpt lat="48.86291" lon="2.31854">
        <ele>74</ele>
        <time>2013-10-29T21:03:49.589Z</time>
      </trkpt>
      <trkpt lat="48.86283" lon="2.31876">
        <ele>76</ele>
        <time>2013-10-29T21:03:55.593Z</time>
      </trkpt>
      <trkpt lat="48.86282" lon="2.3188">
        <ele>77</ele>
        <time>2013-10-29T21:03:56.594Z</time>
      </trkpt>
      <trkpt lat="48.86276" lon="2.31905">
        <ele>78</ele>
        <time>2013-10-29T21:04:02.635Z</time>
      </trkpt>
      <trkpt lat="48.86275" lon="2.31909">
        <ele>76</ele>
        <time>2013-10-29T21:04:03.589Z</time>
      </trkpt>
      <trkpt lat="48.86275" lon="2.31935">
        <ele>81</ele>
        <time>2013-10-29T21:04:16.593Z</time>
      </trkpt>
      <trkpt lat="48.86277" lon="2.31936">
        <ele>79</ele>
        <time>2013-10-29T21:04:17.592Z</time>
      </trkpt>
      <trkpt lat="48.86293" lon="2.31946">
        <ele>80</ele>
        <time>2013-10-29T21:04:23.594Z</time>
      </trkpt>
      <trkpt lat="48.86296" lon="2.31948">
        <ele>80</ele>
        <time>2013-10-29T21:04:24.593Z</time>
      </trkpt>
      <trkpt lat="48.86311" lon="2.3196">
        <ele>79</ele>
        <time>2013-10-29T21:04:30.590Z</time>
      </trkpt>
      <trkpt lat="48.86314" lon="2.31962">
        <ele>79</ele>
        <time>2013-10-29T21:04:31.596Z</time>
      </trkpt>
      <trkpt lat="48.86327" lon="2.31972">
        <ele>81</ele>
        <time>2013-10-29T21:04:36.597Z</time>
      </trkpt>
      <trkpt lat="48.8633" lon="2.31974">
        <ele>81</ele>
        <time>2013-10-29T21:04:37.600Z</time>
      </trkpt>
      <trkpt lat="48.86344" lon="2.31983">
        <ele>76</ele>
        <time>2013-10-29T21:04:42.594Z</time>
      </trkpt>
      <trkpt lat="48.86347" lon="2.31985">
        <ele>76</ele>
        <time>2013-10-29T21:04:43.631Z</time>
      </trkpt>
      <trkpt lat="48.86362" lon="2.31995">
        <ele>81</ele>
        <time>2013-10-29T21:04:48.591Z</time>
      </trkpt>
      <trkpt lat="48.86365" lon="2.31998">
        <ele>79</ele>
        <time>2013-10-29T21:04:49.601Z</time>
      </trkpt>
      <trkpt lat="48.86378" lon="2.32009">
        <ele>80</ele>
        <time>2013-10-29T21:04:53.596Z</time>
      </trkpt>
      <trkpt lat="48.86381" lon="2.32012">
        <ele>81</ele>
        <time>2013-10-29T21:04:54.589Z</time>
      </trkpt>
      <trkpt lat="48.86396" lon="2.32023">
        <ele>79</ele>
        <time>2013-10-29T21:05:00.554Z</time>
      </trkpt>
      <trkpt lat="48.86397" lon="2.32024">
        <ele>78</ele>
        <time>2013-10-29T21:05:01.601Z</time>
      </trkpt>
      <trkpt lat="48.86407" lon="2.32041">
        <ele>72</ele>
        <time>2013-10-29T21:05:26.602Z</time>
      </trkpt>
      <trkpt lat="48.86407" lon="2.32041">
        <ele>71</ele>
        <time>2013-10-29T21:05:27.598Z</time>
      </trkpt>
      <trkpt lat="48.86407" lon="2.3204">
        <ele>74</ele>
        <time>2013-10-29T21:05:28.596Z</time>
      </trkpt>
      <trkpt lat="48.86407" lon="2.32041">
        <ele>79</ele>
        <time>2013-10-29T21:05:29.600Z</time>
      </trkpt>
      <trkpt lat="48.8642" lon="2.32058">
        <ele>74</ele>
        <time>2013-10-29T21:05:40.600Z</time>
      </trkpt>
      <trkpt lat="48.8642" lon="2.32062">
        <ele>73</ele>
        <time>2013-10-29T21:05:41.599Z</time>
      </trkpt>
      <trkpt lat="48.86412" lon="2.32083">
        <ele>75</ele>
        <time>2013-10-29T21:05:47.602Z</time>
      </trkpt>
      <trkpt lat="48.8641" lon="2.32087">
        <ele>77</ele>
        <time>2013-10-29T21:05:48.604Z</time>
      </trkpt>
      <trkpt lat="48.86401" lon="2.32109">
        <ele>77</ele>
        <time>2013-10-29T21:05:53.550Z</time>
      </trkpt>
      <trkpt lat="48.864" lon="2.32114">
        <ele>77</ele>
        <time>2013-10-29T21:05:54.597Z</time>
      </trkpt>
      <trkpt lat="48.86393" lon="2.32136">
        <ele>76</ele>
        <time>2013-10-29T21:06:00.560Z</time>
      </trkpt>
      <trkpt lat="48.86392" lon="2.32139">
        <ele>75</ele>
        <time>2013-10-29T21:06:01.594Z</time>
      </trkpt>
      <trkpt lat="48.86398" lon="2.32164">
        <ele>74</ele>
        <time>2013-10-29T21:06:09.606Z</time>
      </trkpt>
      <trkpt lat="48.86401" lon="2.32167">
        <ele>75</ele>
        <time>2013-10-29T21:06:10.630Z</time>
      </trkpt>
      <trkpt lat="48.86413" lon="2.32175">
        <ele>74</ele>
        <time>2013-10-29T21:06:13.598Z</time>
      </trkpt>
      <trkpt lat="48.86418" lon="2.32179">
        <ele>75</ele>
        <time>2013-10-29T21:06:14.598Z</time>
      </trkpt>
      <trkpt lat="48.86431" lon="2.32187">
        <ele>73</ele>
        <time>2013-10-29T21:06:17.600Z</time>
      </trkpt>
      <trkpt lat="48.86435" lon="2.3219">
        <ele>73</ele>
        <time>2013-10-29T21:06:18.604Z</time>
      </trkpt>
      <trkpt lat="48.8645" lon="2.322">
        <ele>73</ele>
        <time>2013-10-29T21:06:22.600Z</time>
      </trkpt>
      <trkpt lat="48.86453" lon="2.32203">
        <ele>73</ele>
        <time>2013-10-29T21:06:23.580Z</time>
      </trkpt>
      <trkpt lat="48.86469" lon="2.32215">
        <ele>75</ele>
        <time>2013-10-29T21:06:27.587Z</time>
      </trkpt>
      <trkpt lat="48.86473" lon="2.32218">
        <ele>76</ele>
        <time>2013-10-29T21:06:28.603Z</time>
      </trkpt>
      <trkpt lat="48.86488" lon="2.32228">
        <ele>78</ele>
        <time>2013-10-29T21:06:32.581Z</time>
      </trkpt>
      <trkpt lat="48.86491" lon="2.3223">
        <ele>76</ele>
        <time>2013-10-29T21:06:33.573Z</time>
      </trkpt>
      <trkpt lat="48.86504" lon="2.32241">
        <ele>79</ele>
        <time>2013-10-29T21:06:37.582Z</time>
      </trkpt>
      <trkpt lat="48.86507" lon="2.32243">
        <ele>78</ele>
        <time>2013-10-29T21:06:38.569Z</time>
      </trkpt>
      <trkpt lat="48.86522" lon="2.32255">
        <ele>81</ele>
        <time>2013-10-29T21:06:44.577Z</time>
      </trkpt>
      <trkpt lat="48.86525" lon="2.32257">
        <ele>79</ele>
        <time>2013-10-29T21:06:45.574Z</time>
      </trkpt>
      <trkpt lat="48.86539" lon="2.32264">
        <ele>77</ele>
        <time>2013-10-29T21:06:49.578Z</time>
      </trkpt>
      <trkpt lat="48.86542" lon="2.32266">
        <ele>80</ele>
        <time>2013-10-29T21:06:50.581Z</time>
      </trkpt>
      <trkpt lat="48.86555" lon="2.32277">
        <ele>87</ele>
        <time>2013-10-29T21:06:54.537Z</time>
      </trkpt>
      <trkpt lat="48.86559" lon="2.32281">
        <ele>85</ele>
        <time>2013-10-29T21:06:55.577Z</time>
      </trkpt>
      <trkpt lat="48.86572" lon="2.32293">
        <ele>81</ele>
        <time>2013-10-29T21:06:59.580Z</time>
      </trkpt>
      <trkpt lat="48.86575" lon="2.32296">
        <ele>79</ele>
        <time>2013-10-29T21:07:00.539Z</time>
      </trkpt>
      <trkpt lat="48.8659" lon="2.32307">
        <ele>80</ele>
        <time>2013-10-29T21:07:04.579Z</time>
      </trkpt>
      <trkpt lat="48.86594" lon="2.3231">
        <ele>80</ele>
        <time>2013-10-29T21:07:05.582Z</time>
      </trkpt>
      <trkpt lat="48.86608" lon="2.3232">
        <ele>81</ele>
        <time>2013-10-29T21:07:10.567Z</time>
      </trkpt>
      <trkpt lat="48.8661" lon="2.32322">
        <ele>82</ele>
        <time>2013-10-29T21:07:11.579Z</time>
      </trkpt>
      <trkpt lat="48.86623" lon="2.32336">
        <ele>84</ele>
        <time>2013-10-29T21:07:17.616Z</time>
      </trkpt>
      <trkpt lat="48.86625" lon="2.3234">
        <ele>84</ele>
        <time>2013-10-29T21:07:18.577Z</time>
      </trkpt>
      <trkpt lat="48.86635" lon="2.32362">
        <ele>74</ele>
        <time>2013-10-29T21:07:28.581Z</time>
      </trkpt>
      <trkpt lat="48.86637" lon="2.32363">
        <ele>75</ele>
        <time>2013-10-29T21:07:29.582Z</time>
      </trkpt>
      <trkpt lat="48.86646" lon="2.32385">
        <ele>84</ele>
        <time>2013-10-29T21:07:37.585Z</time>
      </trkpt>
      <trkpt lat="48.86646" lon="2.32388">
        <ele>84</ele>
        <time>2013-10-29T21:07:38.564Z</time>
      </trkpt>
      <trkpt lat="48.86636" lon="2.32409">
        <ele>81</ele>
        <time>2013-10-29T21:07:44.581Z</time>
      </trkpt>
      <trkpt lat="48.86635" lon="2.32412">
        <ele>82</ele>
        <time>2013-10-29T21:07:45.577Z</time>
      </trkpt>
      <trkpt lat="48.86643" lon="2.32434">
        <ele>82</ele>
        <time>2013-10-29T21:07:51.566Z</time>
      </trkpt>
      <trkpt lat="48.86645" lon="2.32437">
        <ele>84</ele>
        <time>2013-10-29T21:07:52.567Z</time>
      </trkpt>
      <trkpt lat="48.86659" lon="2.32453">
        <ele>95</ele>
        <time>2013-10-29T21:07:59.569Z</time>
      </trkpt>
      <trkpt lat="48.86661" lon="2.32454">
        <ele>94</ele>
        <time>2013-10-29T21:08:00.542Z</time>
      </trkpt>
      <trkpt lat="48.86676" lon="2.32465">
        <ele>97</ele>
        <time>2013-10-29T21:08:06.571Z</time>
      </trkpt>
      <trkpt lat="48.86678" lon="2.32468">
        <ele>95</ele>
        <time>2013-10-29T21:08:07.570Z</time>
      </trkpt>
      <trkpt lat="48.86682" lon="2.32492">
        <ele>95</ele>
        <time>2013-10-29T21:08:11.571Z</time>
      </trkpt>
      <trkpt lat="48.86682" lon="2.32499">
        <ele>92</ele>
        <time>2013-10-29T21:08:12.571Z</time>
      </trkpt>
      <trkpt lat="48.86679" lon="2.32522">
        <ele>94</ele>
        <time>2013-10-29T21:08:15.573Z</time>
      </trkpt>
      <trkpt lat="48.86678" lon="2.3253">
        <ele>93</ele>
        <time>2013-10-29T21:08:16.569Z</time>
      </trkpt>
      <trkpt lat="48.86671" lon="2.32553">
        <ele>95</ele>
        <time>2013-10-29T21:08:20.574Z</time>
      </trkpt>
      <trkpt lat="48.86669" lon="2.32557">
        <ele>96</ele>
        <time>2013-10-29T21:08:21.573Z</time>
      </trkpt>
      <trkpt lat="48.86671" lon="2.32579">
        <ele>93</ele>
        <time>2013-10-29T21:08:25.600Z</time>
      </trkpt>
      <trkpt lat="48.86673" lon="2.32585">
        <ele>93</ele>
        <time>2013-10-29T21:08:26.569Z</time>
      </trkpt>
      <trkpt lat="48.86679" lon="2.32603">
        <ele>92</ele>
        <time>2013-10-29T21:08:29.577Z</time>
      </trkpt>
      <trkpt lat="48.86682" lon="2.3261">
        <ele>92</ele>
        <time>2013-10-29T21:08:30.568Z</time>
      </trkpt>
      <trkpt lat="48.86689" lon="2.32627">
        <ele>95</ele>
        <time>2013-10-29T21:08:33.571Z</time>
      </trkpt>
      <trkpt lat="48.86699" lon="2.3263">
        <ele>93</ele>
        <time>2013-10-29T21:08:35.574Z</time>
      </trkpt>
      <trkpt lat="48.86714" lon="2.32631">
        <ele>92</ele>
        <time>2013-10-29T21:08:38.573Z</time>
      </trkpt>
      <trkpt lat="48.86721" lon="2.32629">
        <ele>92</ele>
        <time>2013-10-29T21:08:39.578Z</time>
      </trkpt>
      <trkpt lat="48.86736" lon="2.32615">
        <ele>97</ele>
        <time>2013-10-29T21:08:42.586Z</time>
      </trkpt>
      <trkpt lat="48.86741" lon="2.32609">
        <ele>98</ele>
        <time>2013-10-29T21:08:43.583Z</time>
      </trkpt>
      <trkpt lat="48.86751" lon="2.32596">
        <ele>97</ele>
        <time>2013-10-29T21:08:45.575Z</time>
      </trkpt>
      <trkpt lat="48.86755" lon="2.3259">
        <ele>98</ele>
        <time>2013-10-29T21:08:46.543Z</time>
      </trkpt>
      <trkpt lat="48.86768" lon="2.32575">
        <ele>98</ele>
        <time>2013-10-29T21:08:49.609Z</time>
      </trkpt>
      <trkpt lat="48.86772" lon="2.32571">
        <ele>98</ele>
        <time>2013-10-29T21:08:50.577Z</time>
      </trkpt>
      <trkpt lat="48.86786" lon="2.32563">
        <ele>97</ele>
        <time>2013-10-29T21:08:54.578Z</time>
      </trkpt>
      <trkpt lat="48.86789" lon="2.32562">
        <ele>98</ele>
        <time>2013-10-29T21:08:55.577Z</time>
      </trkpt>
      <trkpt lat="48.86804" lon="2.32557">
        <ele>95</ele>
        <time>2013-10-29T21:09:00.578Z</time>
      </trkpt>
      <trkpt lat="48.86807" lon="2.32556">
        <ele>94</ele>
        <time>2013-10-29T21:09:01.578Z</time>
      </trkpt>
      <trkpt lat="48.86822" lon="2.32553">
        <ele>95</ele>
        <time>2013-10-29T21:09:06.572Z</time>
      </trkpt>
      <trkpt lat="48.86825" lon="2.32552">
        <ele>93</ele>
        <time>2013-10-29T21:09:07.577Z</time>
      </trkpt>
      <trkpt lat="48.86842" lon="2.32549">
        <ele>93</ele>
        <time>2013-10-29T21:09:12.577Z</time>
      </trkpt>
      <trkpt lat="48.86844" lon="2.32548">
        <ele>92</ele>
        <time>2013-10-29T21:09:13.577Z</time>
      </trkpt>
      <trkpt lat="48.86862" lon="2.32546">
        <ele>91</ele>
        <time>2013-10-29T21:09:19.583Z</time>
      </trkpt>
      <trkpt lat="48.86867" lon="2.32545">
        <ele>91</ele>
        <time>2013-10-29T21:09:20.581Z</time>
      </trkpt>
      <trkpt lat="48.86883" lon="2.32538">
        <ele>94</ele>
        <time>2013-10-29T21:09:23.629Z</time>
      </trkpt>
      <trkpt lat="48.86889" lon="2.32535">
        <ele>95</ele>
        <time>2013-10-29T21:09:24.582Z</time>
      </trkpt>
      <trkpt lat="48.86903" lon="2.32528">
        <ele>90</ele>
        <time>2013-10-29T21:09:27.589Z</time>
      </trkpt>
      <trkpt lat="48.86906" lon="2.32526">
        <ele>91</ele>
        <time>2013-10-29T21:09:28.585Z</time>
      </trkpt>
      <trkpt lat="48.86922" lon="2.32516">
        <ele>95</ele>
        <time>2013-10-29T21:09:33.585Z</time>
      </trkpt>
      <trkpt lat="48.86925" lon="2.32514">
        <ele>92</ele>
        <time>2013-10-29T21:09:34.585Z</time>
      </trkpt>
      <trkpt lat="48.86939" lon="2.325">
        <ele>83</ele>
        <time>2013-10-29T21:09:53.597Z</time>
      </trkpt>
      <trkpt lat="48.86942" lon="2.325">
        <ele>84</ele>
        <time>2013-10-29T21:09:54.598Z</time>
      </trkpt>
      <trkpt lat="48.86958" lon="2.32499">
        <ele>85</ele>
        <time>2013-10-29T21:10:02.625Z</time>
      </trkpt>
      <trkpt lat="48.86961" lon="2.32501">
        <ele>86</ele>
        <time>2013-10-29T21:10:03.597Z</time>
      </trkpt>
      <trkpt lat="48.86977" lon="2.32507">
        <ele>85</ele>
        <time>2013-10-29T21:10:07.589Z</time>
      </trkpt>
      <trkpt lat="48.86981" lon="2.32509">
        <ele>87</ele>
        <time>2013-10-29T21:10:08.589Z</time>
      </trkpt>
      <trkpt lat="48.86996" lon="2.32519">
        <ele>90</ele>
        <time>2013-10-29T21:10:12.590Z</time>
      </trkpt>
      <trkpt lat="48.87" lon="2.32522">
        <ele>90</ele>
        <time>2013-10-29T21:10:13.588Z</time>
      </trkpt>
      <trkpt lat="48.87014" lon="2.32531">
        <ele>91</ele>
        <time>2013-10-29T21:10:17.590Z</time>
      </trkpt>
      <trkpt lat="48.87017" lon="2.32533">
        <ele>91</ele>
        <time>2013-10-29T21:10:18.594Z</time>
      </trkpt>
      <trkpt lat="48.87032" lon="2.32545">
        <ele>92</ele>
        <time>2013-10-29T21:10:22.593Z</time>
      </trkpt>
      <trkpt lat="48.87035" lon="2.32548">
        <ele>94</ele>
        <time>2013-10-29T21:10:23.593Z</time>
      </trkpt>
      <trkpt lat="48.87051" lon="2.32557">
        <ele>87</ele>
        <time>2013-10-29T21:10:27.647Z</time>
      </trkpt>
      <trkpt lat="48.87056" lon="2.32557">
        <ele>88</ele>
        <time>2013-10-29T21:10:28.594Z</time>
      </trkpt>
      <trkpt lat="48.87069" lon="2.32548">
        <ele>87</ele>
        <time>2013-10-29T21:10:31.601Z</time>
      </trkpt>
      <trkpt lat="48.87072" lon="2.32543">
        <ele>85</ele>
        <time>2013-10-29T21:10:32.602Z</time>
      </trkpt>
      <trkpt lat="48.87081" lon="2.32522">
        <ele>78</ele>
        <time>2013-10-29T21:10:36.593Z</time>
      </trkpt>
      <trkpt lat="48.87084" lon="2.32518">
        <ele>79</ele>
        <time>2013-10-29T21:10:37.599Z</time>
      </trkpt>
      <trkpt lat="48.87101" lon="2.3252">
        <ele>77</ele>
        <time>2013-10-29T21:10:41.593Z</time>
      </trkpt>
      <trkpt lat="48.87105" lon="2.32524">
        <ele>76</ele>
        <time>2013-10-29T21:10:42.602Z</time>
      </trkpt>
      <trkpt lat="48.87119" lon="2.32537">
        <ele>79</ele>
        <time>2013-10-29T21:10:47.594Z</time>
      </trkpt>
      <trkpt lat="48.87122" lon="2.32539">
        <ele>79</ele>
        <time>2013-10-29T21:10:48.590Z</time>
      </trkpt>
      <trkpt lat="48.87138" lon="2.32551">
        <ele>81</ele>
        <time>2013-10-29T21:10:55.597Z</time>
      </trkpt>
      <trkpt lat="48.87141" lon="2.32553">
        <ele>84</ele>
        <time>2013-10-29T21:10:56.589Z</time>
      </trkpt>
      <trkpt lat="48.87156" lon="2.32561">
        <ele>93</ele>
        <time>2013-10-29T21:11:00.594Z</time>
      </trkpt>
      <trkpt lat="48.8716" lon="2.32562">
        <ele>95</ele>
        <time>2013-10-29T21:11:01.594Z</time>
      </trkpt>
      <trkpt lat="48.87176" lon="2.32572">
        <ele>92</ele>
        <time>2013-10-29T21:11:06.612Z</time>
      </trkpt>
      <trkpt lat="48.87179" lon="2.32574">
        <ele>97</ele>
        <time>2013-10-29T21:11:07.593Z</time>
      </trkpt>
      <trkpt lat="48.87194" lon="2.32585">
        <ele>93</ele>
        <time>2013-10-29T21:11:11.588Z</time>
      </trkpt>
      <trkpt lat="48.87198" lon="2.32588">
        <ele>95</ele>
        <time>2013-10-29T21:11:12.589Z</time>
      </trkpt>
      <trkpt lat="48.87213" lon="2.32602">
        <ele>96</ele>
        <time>2013-10-29T21:11:16.594Z</time>
      </trkpt>
      <trkpt lat="48.87218" lon="2.32606">
        <ele>96</ele>
        <time>2013-10-29T21:11:17.589Z</time>
      </trkpt>
      <trkpt lat="48.8723" lon="2.32618">
        <ele>93</ele>
        <time>2013-10-29T21:11:20.595Z</time>
      </trkpt>
      <trkpt lat="48.87234" lon="2.32622">
        <ele>92</ele>
        <time>2013-10-29T21:11:21.560Z</time>
      </trkpt>
      <trkpt lat="48.87247" lon="2.32632">
        <ele>99</ele>
        <time>2013-10-29T21:11:24.595Z</time>
      </trkpt>
      <trkpt lat="48.8725" lon="2.32635">
        <ele>93</ele>
        <time>2013-10-29T21:11:25.596Z</time>
      </trkpt>
      <trkpt lat="48.87264" lon="2.32645">
        <ele>93</ele>
        <time>2013-10-29T21:11:29.602Z</time>
      </trkpt>
      <trkpt lat="48.87267" lon="2.32647">
        <ele>92</ele>
        <time>2013-10-29T21:11:30.595Z</time>
      </trkpt>
      <trkpt lat="48.87281" lon="2.32655">
        <ele>90</ele>
        <time>2013-10-29T21:11:35.597Z</time>
      </trkpt>
      <trkpt lat="48.87283" lon="2.32657">
        <ele>91</ele>
        <time>2013-10-29T21:11:36.594Z</time>
      </trkpt>
      <trkpt lat="48.87296" lon="2.32672">
        <ele>89</ele>
        <time>2013-10-29T21:11:41.598Z</time>
      </trkpt>
      <trkpt lat="48.87299" lon="2.32675">
        <ele>90</ele>
        <time>2013-10-29T21:11:42.597Z</time>
      </trkpt>
      <trkpt lat="48.87314" lon="2.32686">
        <ele>90</ele>
        <time>2013-10-29T21:11:48.573Z</time>
      </trkpt>
      <trkpt lat="48.87317" lon="2.32687">
        <ele>91</ele>
        <time>2013-10-29T21:11:49.565Z</time>
      </trkpt>
      <trkpt lat="48.87333" lon="2.32691">
        <ele>94</ele>
        <time>2013-10-29T21:11:56.563Z</time>
      </trkpt>
      <trkpt lat="48.87338" lon="2.32693">
        <ele>93</ele>
        <time>2013-10-29T21:11:58.565Z</time>
      </trkpt>
      <trkpt lat="48.87352" lon="2.32689">
        <ele>90</ele>
        <time>2013-10-29T21:12:04.581Z</time>
      </trkpt>
      <trkpt lat="48.87355" lon="2.32686">
        <ele>94</ele>
        <time>2013-10-29T21:12:05.586Z</time>
      </trkpt>
      <trkpt lat="48.87363" lon="2.32662">
        <ele>77</ele>
        <time>2013-10-29T21:12:13.581Z</time>
      </trkpt>
      <trkpt lat="48.87361" lon="2.32659">
        <ele>76</ele>
        <time>2013-10-29T21:12:14.569Z</time>
      </trkpt>
      <trkpt lat="48.87376" lon="2.32649">
        <ele>62</ele>
        <time>2013-10-29T21:12:33.579Z</time>
      </trkpt>
      <trkpt lat="48.87377" lon="2.32643">
        <ele>62</ele>
        <time>2013-10-29T21:12:34.582Z</time>
      </trkpt>
      <trkpt lat="48.87381" lon="2.32619">
        <ele>67</ele>
        <time>2013-10-29T21:12:38.575Z</time>
      </trkpt>
      <trkpt lat="48.87382" lon="2.32613">
        <ele>70</ele>
        <time>2013-10-29T21:12:39.579Z</time>
      </trkpt>
      <trkpt lat="48.8739" lon="2.32591">
        <ele>67</ele>
        <time>2013-10-29T21:12:44.586Z</time>
      </trkpt>
      <trkpt lat="48.87391" lon="2.32588">
        <ele>68</ele>
        <time>2013-10-29T21:12:45.577Z</time>
      </trkpt>
      <trkpt lat="48.87406" lon="2.32585">
        <ele>77</ele>
        <time>2013-10-29T21:12:50.583Z</time>
      </trkpt>
      <trkpt lat="48.87411" lon="2.32584">
        <ele>78</ele>
        <time>2013-10-29T21:12:51.586Z</time>
      </trkpt>
      <trkpt lat="48.87424" lon="2.3257">
        <ele>79</ele>
        <time>2013-10-29T21:12:58.581Z</time>
      </trkpt>
      <trkpt lat="48.87426" lon="2.32568">
        <ele>80</ele>
        <time>2013-10-29T21:12:59.585Z</time>
      </trkpt>
      <trkpt lat="48.87436" lon="2.3255">
        <ele>81</ele>
        <time>2013-10-29T21:13:04.578Z</time>
      </trkpt>
      <trkpt lat="48.87439" lon="2.32546">
        <ele>81</ele>
        <time>2013-10-29T21:13:05.582Z</time>
      </trkpt>
      <trkpt lat="48.87452" lon="2.32528">
        <ele>90</ele>
        <time>2013-10-29T21:13:10.572Z</time>
      </trkpt>
      <trkpt lat="48.87454" lon="2.32525">
        <ele>91</ele>
        <time>2013-10-29T21:13:11.573Z</time>
      </trkpt>
      <trkpt lat="48.87466" lon="2.32508">
        <ele>91</ele>
        <time>2013-10-29T21:13:16.573Z</time>
      </trkpt>
      <trkpt lat="48.87468" lon="2.32504">
        <ele>90</ele>
        <time>2013-10-29T21:13:17.577Z</time>
      </trkpt>
      <trkpt lat="48.87482" lon="2.32489">
        <ele>92</ele>
        <time>2013-10-29T21:13:24.590Z</time>
      </trkpt>
      <trkpt lat="48.87483" lon="2.32486">
        <ele>91</ele>
        <time>2013-10-29T21:13:25.584Z</time>
      </trkpt>
      <trkpt lat="48.87496" lon="2.32467">
        <ele>90</ele>
        <time>2013-10-29T21:13:32.589Z</time>
      </trkpt>
      <trkpt lat="48.87498" lon="2.32464">
        <ele>90</ele>
        <time>2013-10-29T21:13:33.581Z</time>
      </trkpt>
      <trkpt lat="48.8751" lon="2.32449">
        <ele>91</ele>
        <time>2013-10-29T21:13:38.582Z</time>
      </trkpt>
      <trkpt lat="48.87513" lon="2.32446">
        <ele>89</ele>
        <time>2013-10-29T21:13:39.583Z</time>
      </trkpt>
      <trkpt lat="48.87524" lon="2.3243">
        <ele>91</ele>
        <time>2013-10-29T21:13:43.585Z</time>
      </trkpt>
      <trkpt lat="48.87526" lon="2.32425">
        <ele>90</ele>
        <time>2013-10-29T21:13:44.590Z</time>
      </trkpt>
      <trkpt lat="48.87538" lon="2.32409">
        <ele>89</ele>
        <time>2013-10-29T21:13:49.598Z</time>
      </trkpt>
      <trkpt lat="48.8754" lon="2.32407">
        <ele>89</ele>
        <time>2013-10-29T21:13:50.590Z</time>
      </trkpt>
      <trkpt lat="48.87557" lon="2.32403">
        <ele>72</ele>
        <time>2013-10-29T21:14:01.538Z</time>
      </trkpt>
      <trkpt lat="48.87558" lon="2.32405">
        <ele>70</ele>
        <time>2013-10-29T21:14:02.593Z</time>
      </trkpt>
      <trkpt lat="48.87562" lon="2.32406">
        <ele>77</ele>
        <time>2013-10-29T21:14:14.590Z</time>
      </trkpt>
      <trkpt lat="48.87562" lon="2.32405">
        <ele>74</ele>
        <time>2013-10-29T21:14:15.593Z</time>
      </trkpt>
      <trkpt lat="48.87563" lon="2.32405">
        <ele>77</ele>
        <time>2013-10-29T21:14:16.531Z</time>
      </trkpt>
      <trkpt lat="48.87578" lon="2.32394">
        <ele>82</ele>
        <time>2013-10-29T21:14:25.714Z</time>
      </trkpt>
      <trkpt lat="48.8758" lon="2.32392">
        <ele>83</ele>
        <time>2013-10-29T21:14:26.589Z</time>
      </trkpt>
      <trkpt lat="48.87592" lon="2.32376">
        <ele>84</ele>
        <time>2013-10-29T21:14:31.597Z</time>
      </trkpt>
      <trkpt lat="48.87595" lon="2.32373">
        <ele>83</ele>
        <time>2013-10-29T21:14:32.589Z</time>
      </trkpt>
      <trkpt lat="48.8761" lon="2.32361">
        <ele>90</ele>
        <time>2013-10-29T21:14:37.585Z</time>
      </trkpt>
      <trkpt lat="48.87614" lon="2.32361">
        <ele>88</ele>
        <time>2013-10-29T21:14:38.586Z</time>
      </trkpt>
      <trkpt lat="48.87629" lon="2.32361">
        <ele>90</ele>
        <time>2013-10-29T21:14:42.586Z</time>
      </trkpt>
      <trkpt lat="48.87633" lon="2.32361">
        <ele>90</ele>
        <time>2013-10-29T21:14:43.585Z</time>
      </trkpt>
      <trkpt lat="48.8765" lon="2.32362">
        <ele>92</ele>
        <time>2013-10-29T21:14:47.585Z</time>
      </trkpt>
      <trkpt lat="48.87654" lon="2.32361">
        <ele>92</ele>
        <time>2013-10-29T21:14:48.585Z</time>
      </trkpt>
      <trkpt lat="48.87667" lon="2.3235">
        <ele>94</ele>
        <time>2013-10-29T21:14:52.588Z</time>
      </trkpt>
      <trkpt lat="48.8767" lon="2.32348">
        <ele>93</ele>
        <time>2013-10-29T21:14:53.588Z</time>
      </trkpt>
      <trkpt lat="48.87682" lon="2.32333">
        <ele>93</ele>
        <time>2013-10-29T21:14:59.573Z</time>
      </trkpt>
      <trkpt lat="48.87684" lon="2.3233">
        <ele>92</ele>
        <time>2013-10-29T21:15:00.585Z</time>
      </trkpt>
      <trkpt lat="48.87699" lon="2.32324">
        <ele>93</ele>
        <time>2013-10-29T21:15:05.592Z</time>
      </trkpt>
      <trkpt lat="48.87703" lon="2.32324">
        <ele>94</ele>
        <time>2013-10-29T21:15:06.594Z</time>
      </trkpt>
      <trkpt lat="48.87718" lon="2.32315">
        <ele>97</ele>
        <time>2013-10-29T21:15:11.601Z</time>
      </trkpt>
      <trkpt lat="48.8772" lon="2.32313">
        <ele>101</ele>
        <time>2013-10-29T21:15:12.600Z</time>
      </trkpt>
      <trkpt lat="48.87736" lon="2.32307">
        <ele>97</ele>
        <time>2013-10-29T21:15:18.604Z</time>
      </trkpt>
      <trkpt lat="48.87738" lon="2.32305">
        <ele>96</ele>
        <time>2013-10-29T21:15:19.596Z</time>
      </trkpt>
      <trkpt lat="48.87753" lon="2.32296">
        <ele>98</ele>
        <time>2013-10-29T21:15:25.596Z</time>
      </trkpt>
      <trkpt lat="48.87756" lon="2.32294">
        <ele>98</ele>
        <time>2013-10-29T21:15:26.592Z</time>
      </trkpt>
      <trkpt lat="48.87772" lon="2.32286">
        <ele>101</ele>
        <time>2013-10-29T21:15:32.608Z</time>
      </trkpt>
      <trkpt lat="48.87775" lon="2.32284">
        <ele>99</ele>
        <time>2013-10-29T21:15:33.593Z</time>
      </trkpt>
      <trkpt lat="48.8779" lon="2.32279">
        <ele>95</ele>
        <time>2013-10-29T21:15:38.589Z</time>
      </trkpt>
      <trkpt lat="48.87793" lon="2.32278">
        <ele>97</ele>
        <time>2013-10-29T21:15:39.589Z</time>
      </trkpt>
      <trkpt lat="48.87806" lon="2.32262">
        <ele>109</ele>
        <time>2013-10-29T21:15:46.597Z</time>
      </trkpt>
      <trkpt lat="48.87809" lon="2.32261">
        <ele>105</ele>
        <time>2013-10-29T21:15:47.586Z</time>
      </trkpt>
      <trkpt lat="48.87827" lon="2.32261">
        <ele>102</ele>
        <time>2013-10-29T21:15:53.596Z</time>
      </trkpt>
      <trkpt lat="48.87829" lon="2.32264">
        <ele>99</ele>
        <time>2013-10-29T21:15:54.598Z</time>
      </trkpt>
      <trkpt lat="48.87845" lon="2.32276">
        <ele>90</ele>
        <time>2013-10-29T21:16:00.597Z</time>
      </trkpt>
      <trkpt lat="48.87847" lon="2.32277">
        <ele>89</ele>
        <time>2013-10-29T21:16:01.598Z</time>
      </trkpt>
      <trkpt lat="48.8786" lon="2.3229">
        <ele>84</ele>
        <time>2013-10-29T21:16:07.598Z</time>
      </trkpt>
      <trkpt lat="48.87862" lon="2.32291">
        <ele>86</ele>
        <time>2013-10-29T21:16:08.597Z</time>
      </trkpt>
      <trkpt lat="48.87879" lon="2.32302">
        <ele>83</ele>
        <time>2013-10-29T21:16:17.604Z</time>
      </trkpt>
      <trkpt lat="48.87879" lon="2.32303">
        <ele>82</ele>
        <time>2013-10-29T21:16:18.600Z</time>
      </trkpt>
      <trkpt lat="48.87879" lon="2.32303">
        <ele>83</ele>
        <time>2013-10-29T21:16:22.596Z</time>
      </trkpt>
      <trkpt lat="48.87879" lon="2.32303">
        <ele>80</ele>
        <time>2013-10-29T21:16:23.595Z</time>
      </trkpt>
      <trkpt lat="48.87878" lon="2.32303">
        <ele>85</ele>
        <time>2013-10-29T21:16:25.606Z</time>
      </trkpt>
      <trkpt lat="48.87879" lon="2.32304">
        <ele>91</ele>
        <time>2013-10-29T21:16:26.608Z</time>
      </trkpt>
      <trkpt lat="48.87895" lon="2.32299">
        <ele>89</ele>
        <time>2013-10-29T21:16:47.617Z</time>
      </trkpt>
      <trkpt lat="48.87897" lon="2.32299">
        <ele>88</ele>
        <time>2013-10-29T21:16:48.611Z</time>
      </trkpt>
      <trkpt lat="48.87914" lon="2.32306">
        <ele>86</ele>
        <time>2013-10-29T21:17:00.613Z</time>
      </trkpt>
      <trkpt lat="48.87915" lon="2.32307">
        <ele>84</ele>
        <time>2013-10-29T21:17:01.588Z</time>
      </trkpt>
      <trkpt lat="48.87923" lon="2.32325">
        <ele>90</ele>
        <time>2013-10-29T21:17:10.587Z</time>
      </trkpt>
      <trkpt lat="48.87924" lon="2.3233">
        <ele>88</ele>
        <time>2013-10-29T21:17:11.586Z</time>
      </trkpt>
      <trkpt lat="48.87933" lon="2.32354">
        <ele>92</ele>
        <time>2013-10-29T21:17:17.594Z</time>
      </trkpt>
      <trkpt lat="48.87935" lon="2.32357">
        <ele>94</ele>
        <time>2013-10-29T21:17:18.589Z</time>
      </trkpt>
      <trkpt lat="48.87947" lon="2.3237">
        <ele>94</ele>
        <time>2013-10-29T21:17:23.584Z</time>
      </trkpt>
      <trkpt lat="48.8795" lon="2.32373">
        <ele>96</ele>
        <time>2013-10-29T21:17:24.577Z</time>
      </trkpt>
      <trkpt lat="48.87964" lon="2.32387">
        <ele>93</ele>
        <time>2013-10-29T21:17:29.548Z</time>
      </trkpt>
      <trkpt lat="48.87967" lon="2.32388">
        <ele>94</ele>
        <time>2013-10-29T21:17:30.581Z</time>
      </trkpt>
      <trkpt lat="48.87981" lon="2.32398">
        <ele>95</ele>
        <time>2013-10-29T21:17:35.572Z</time>
      </trkpt>
      <trkpt lat="48.87985" lon="2.324">
        <ele>92</ele>
        <time>2013-10-29T21:17:36.523Z</time>
      </trkpt>
      <trkpt lat="48.88" lon="2.3241">
        <ele>92</ele>
        <time>2013-10-29T21:17:44.573Z</time>
      </trkpt>
      <trkpt lat="48.88003" lon="2.32411">
        <ele>92</ele>
        <time>2013-10-29T21:17:45.577Z</time>
      </trkpt>
      <trkpt lat="48.88016" lon="2.32419">
        <ele>91</ele>
        <time>2013-10-29T21:17:49.570Z</time>
      </trkpt>
      <trkpt lat="48.8802" lon="2.32423">
        <ele>92</ele>
        <time>2013-10-29T21:17:50.574Z</time>
      </trkpt>
      <trkpt lat="48.88035" lon="2.32436">
        <ele>93</ele>
        <time>2013-10-29T21:17:55.573Z</time>
      </trkpt>
      <trkpt lat="48.88037" lon="2.32439">
        <ele>93</ele>
        <time>2013-10-29T21:17:56.581Z</time>
      </trkpt>
      <trkpt lat="48.88051" lon="2.32453">
        <ele>92</ele>
        <time>2013-10-29T21:18:01.573Z</time>
      </trkpt>
      <trkpt lat="48.88053" lon="2.32456">
        <ele>93</ele>
        <time>2013-10-29T21:18:02.573Z</time>
      </trkpt>
      <trkpt lat="48.88071" lon="2.32462">
        <ele>91</ele>
        <time>2013-10-29T21:18:24.575Z</time>
      </trkpt>
      <trkpt lat="48.88071" lon="2.32462">
        <ele>91</ele>
        <time>2013-10-29T21:18:25.575Z</time>
      </trkpt>
      <trkpt lat="48.88087" lon="2.32472">
        <ele>91</ele>
        <time>2013-10-29T21:18:36.610Z</time>
      </trkpt>
      <trkpt lat="48.8809" lon="2.32473">
        <ele>93</ele>
        <time>2013-10-29T21:18:37.585Z</time>
      </trkpt>
      <trkpt lat="48.88105" lon="2.32479">
        <ele>92</ele>
        <time>2013-10-29T21:18:41.590Z</time>
      </trkpt>
      <trkpt lat="48.88108" lon="2.32479">
        <ele>92</ele>
        <time>2013-10-29T21:18:42.589Z</time>
      </trkpt>
      <trkpt lat="48.88122" lon="2.32467">
        <ele>94</ele>
        <time>2013-10-29T21:18:47.589Z</time>
      </trkpt>
      <trkpt lat="48.88125" lon="2.32464">
        <ele>94</ele>
        <time>2013-10-29T21:18:48.587Z</time>
      </trkpt>
      <trkpt lat="48.88139" lon="2.32452">
        <ele>102</ele>
        <time>2013-10-29T21:18:54.581Z</time>
      </trkpt>
      <trkpt lat="48.88141" lon="2.3245">
        <ele>102</ele>
        <time>2013-10-29T21:18:55.589Z</time>
      </trkpt>
      <trkpt lat="48.88157" lon="2.32439">
        <ele>110</ele>
        <time>2013-10-29T21:19:02.586Z</time>
      </trkpt>
      <trkpt lat="48.8816" lon="2.32437">
        <ele>109</ele>
        <time>2013-10-29T21:19:03.586Z</time>
      </trkpt>
      <trkpt lat="48.88174" lon="2.32431">
        <ele>108</ele>
        <time>2013-10-29T21:19:07.585Z</time>
      </trkpt>
      <trkpt lat="48.8818" lon="2.3243">
        <ele>109</ele>
        <time>2013-10-29T21:19:08.585Z</time>
      </trkpt>
      <trkpt lat="48.88197" lon="2.32427">
        <ele>100</ele>
        <time>2013-10-29T21:19:12.590Z</time>
      </trkpt>
      <trkpt lat="48.88202" lon="2.32427">
        <ele>100</ele>
        <time>2013-10-29T21:19:13.590Z</time>
      </trkpt>
      <trkpt lat="48.88218" lon="2.32426">
        <ele>98</ele>
        <time>2013-10-29T21:19:17.648Z</time>
      </trkpt>
      <trkpt lat="48.88221" lon="2.32426">
        <ele>100</ele>
        <time>2013-10-29T21:19:18.589Z</time>
      </trkpt>
      <trkpt lat="48.88238" lon="2.32424">
        <ele>101</ele>
        <time>2013-10-29T21:19:22.257Z</time>
      </trkpt>
      <trkpt lat="48.88242" lon="2.32423">
        <ele>101</ele>
        <time>2013-10-29T21:19:23.522Z</time>
      </trkpt>
      <trkpt lat="48.88258" lon="2.32423">
        <ele>100</ele>
        <time>2013-10-29T21:19:27.569Z</time>
      </trkpt>
      <trkpt lat="48.88262" lon="2.32421">
        <ele>101</ele>
        <time>2013-10-29T21:19:28.562Z</time>
      </trkpt>
      <trkpt lat="48.88278" lon="2.32421">
        <ele>108</ele>
        <time>2013-10-29T21:19:35.629Z</time>
      </trkpt>
      <trkpt lat="48.8828" lon="2.32421">
        <ele>107</ele>
        <time>2013-10-29T21:19:36.558Z</time>
      </trkpt>
      <trkpt lat="48.88276" lon="2.32426">
        <ele>105</ele>
        <time>2013-10-29T21:19:49.578Z</time>
      </trkpt>
      <trkpt lat="48.88276" lon="2.32426">
        <ele>103</ele>
        <time>2013-10-29T21:19:50.576Z</time>
      </trkpt>
      <trkpt lat="48.88276" lon="2.32426">
        <ele>101</ele>
        <time>2013-10-29T21:19:51.577Z</time>
      </trkpt>
      <trkpt lat="48.88278" lon="2.32428">
        <ele>101</ele>
        <time>2013-10-29T21:19:52.574Z</time>
      </trkpt>
      <trkpt lat="48.88294" lon="2.32431">
        <ele>93</ele>
        <time>2013-10-29T21:20:10.576Z</time>
      </trkpt>
      <trkpt lat="48.88296" lon="2.32429">
        <ele>93</ele>
        <time>2013-10-29T21:20:11.581Z</time>
      </trkpt>
      <trkpt lat="48.88311" lon="2.32419">
        <ele>92</ele>
        <time>2013-10-29T21:20:17.543Z</time>
      </trkpt>
      <trkpt lat="48.88313" lon="2.32417">
        <ele>92</ele>
        <time>2013-10-29T21:20:18.569Z</time>
      </trkpt>
      <trkpt lat="48.88329" lon="2.32411">
        <ele>97</ele>
        <time>2013-10-29T21:20:24.574Z</time>
      </trkpt>
      <trkpt lat="48.88332" lon="2.32409">
        <ele>95</ele>
        <time>2013-10-29T21:20:25.575Z</time>
      </trkpt>
      <trkpt lat="48.88346" lon="2.32399">
        <ele>94</ele>
        <time>2013-10-29T21:20:30.573Z</time>
      </trkpt>
      <trkpt lat="48.88355" lon="2.32393">
        <ele>95</ele>
        <time>2013-10-29T21:20:33.578Z</time>
      </trkpt>
      <trkpt lat="48.88357" lon="2.32367">
        <ele>103</ele>
        <time>2013-10-29T21:20:41.578Z</time>
      </trkpt>
      <trkpt lat="48.88357" lon="2.32363">
        <ele>101</ele>
        <time>2013-10-29T21:20:42.589Z</time>
      </trkpt>
      <trkpt lat="48.88353" lon="2.32337">
        <ele>95</ele>
        <time>2013-10-29T21:20:48.580Z</time>
      </trkpt>
      <trkpt lat="48.88356" lon="2.32333">
        <ele>95</ele>
        <time>2013-10-29T21:20:49.577Z</time>
      </trkpt>
      <trkpt lat="48.88366" lon="2.32317">
        <ele>92</ele>
        <time>2013-10-29T21:20:52.590Z</time>
      </trkpt>
      <trkpt lat="48.8837" lon="2.32312">
        <ele>92</ele>
        <time>2013-10-29T21:20:53.581Z</time>
      </trkpt>
      <trkpt lat="48.88382" lon="2.32298">
        <ele>96</ele>
        <time>2013-10-29T21:20:56.578Z</time>
      </trkpt>
      <trkpt lat="48.88397" lon="2.32282">
        <ele>94</ele>
        <time>2013-10-29T21:21:00.597Z</time>
      </trkpt>
      <trkpt lat="48.88404" lon="2.32265">
        <ele>92</ele>
        <time>2013-10-29T21:21:03.579Z</time>
      </trkpt>
      <trkpt lat="48.88406" lon="2.32258">
        <ele>93</ele>
        <time>2013-10-29T21:21:04.593Z</time>
      </trkpt>
      <trkpt lat="48.88415" lon="2.32243">
        <ele>96</ele>
        <time>2013-10-29T21:21:07.582Z</time>
      </trkpt>
      <trkpt lat="48.88418" lon="2.32238">
        <ele>96</ele>
        <time>2013-10-29T21:21:08.532Z</time>
      </trkpt>
      <trkpt lat="48.88428" lon="2.32221">
        <ele>100</ele>
        <time>2013-10-29T21:21:11.619Z</time>
      </trkpt>
      <trkpt lat="48.88431" lon="2.32215">
        <ele>100</ele>
        <time>2013-10-29T21:21:12.586Z</time>
      </trkpt>
      <trkpt lat="48.8844" lon="2.32198">
        <ele>102</ele>
        <time>2013-10-29T21:21:15.581Z</time>
      </trkpt>
      <trkpt lat="48.88444" lon="2.32191">
        <ele>101</ele>
        <time>2013-10-29T21:21:16.582Z</time>
      </trkpt>
      <trkpt lat="48.88455" lon="2.32173">
        <ele>100</ele>
        <time>2013-10-29T21:21:19.585Z</time>
      </trkpt>
      <trkpt lat="48.88458" lon="2.32168">
        <ele>100</ele>
        <time>2013-10-29T21:21:20.585Z</time>
      </trkpt>
      <trkpt lat="48.88467" lon="2.32151">
        <ele>103</ele>
        <time>2013-10-29T21:21:23.586Z</time>
      </trkpt>
      <trkpt lat="48.8847" lon="2.32145">
        <ele>103</ele>
        <time>2013-10-29T21:21:24.585Z</time>
      </trkpt>
      <trkpt lat="48.88478" lon="2.32128">
        <ele>106</ele>
        <time>2013-10-29T21:21:27.586Z</time>
      </trkpt>
      <trkpt lat="48.88481" lon="2.32123">
        <ele>107</ele>
        <time>2013-10-29T21:21:28.587Z</time>
      </trkpt>
      <trkpt lat="48.8849" lon="2.32107">
        <ele>106</ele>
        <time>2013-10-29T21:21:31.587Z</time>
      </trkpt>
      <trkpt lat="48.88491" lon="2.321">
        <ele>106</ele>
        <time>2013-10-29T21:21:32.586Z</time>
      </trkpt>
      <trkpt lat="48.88499" lon="2.3208">
        <ele>111</ele>
        <time>2013-10-29T21:21:36.582Z</time>
      </trkpt>
      <trkpt lat="48.88501" lon="2.32076">
        <ele>111</ele>
        <time>2013-10-29T21:21:37.582Z</time>
      </trkpt>
      <trkpt lat="48.88516" lon="2.32079">
        <ele>110</ele>
        <time>2013-10-29T21:21:43.583Z</time>
      </trkpt>
      <trkpt lat="48.88518" lon="2.32084">
        <ele>108</ele>
        <time>2013-10-29T21:21:44.586Z</time>
      </trkpt>
      <trkpt lat="48.88527" lon="2.32104">
        <ele>109</ele>
        <time>2013-10-29T21:21:47.582Z</time>
      </trkpt>
      <trkpt lat="48.8853" lon="2.3211">
        <ele>108</ele>
        <time>2013-10-29T21:21:48.587Z</time>
      </trkpt>
      <trkpt lat="48.88541" lon="2.32128">
        <ele>104</ele>
        <time>2013-10-29T21:21:51.586Z</time>
      </trkpt>
      <trkpt lat="48.88545" lon="2.32134">
        <ele>103</ele>
        <time>2013-10-29T21:21:52.586Z</time>
      </trkpt>
      <trkpt lat="48.88556" lon="2.3215">
        <ele>101</ele>
        <time>2013-10-29T21:21:55.585Z</time>
      </trkpt>
      <trkpt lat="48.88559" lon="2.32155">
        <ele>99</ele>
        <time>2013-10-29T21:21:56.613Z</time>
      </trkpt>
      <trkpt lat="48.8857" lon="2.3217">
        <ele>96</ele>
        <time>2013-10-29T21:21:59.590Z</time>
      </trkpt>
      <trkpt lat="48.88574" lon="2.32173">
        <ele>96</ele>
        <time>2013-10-29T21:22:00.585Z</time>
      </trkpt>
      <trkpt lat="48.8859" lon="2.32184">
        <ele>94</ele>
        <time>2013-10-29T21:22:04.585Z</time>
      </trkpt>
      <trkpt lat="48.88594" lon="2.32186">
        <ele>98</ele>
        <time>2013-10-29T21:22:05.585Z</time>
      </trkpt>
      <trkpt lat="48.88609" lon="2.32199">
        <ele>98</ele>
        <time>2013-10-29T21:22:10.586Z</time>
      </trkpt>
      <trkpt lat="48.88611" lon="2.32202">
        <ele>103</ele>
        <time>2013-10-29T21:22:11.586Z</time>
      </trkpt>
      <trkpt lat="48.88623" lon="2.32217">
        <ele>96</ele>
        <time>2013-10-29T21:22:15.585Z</time>
      </trkpt>
      <trkpt lat="48.88627" lon="2.32221">
        <ele>94</ele>
        <time>2013-10-29T21:22:16.561Z</time>
      </trkpt>
      <trkpt lat="48.88638" lon="2.32235">
        <ele>101</ele>
        <time>2013-10-29T21:22:20.562Z</time>
      </trkpt>
      <trkpt lat="48.88641" lon="2.32238">
        <ele>102</ele>
        <time>2013-10-29T21:22:21.562Z</time>
      </trkpt>
      <trkpt lat="48.88656" lon="2.3225">
        <ele>94</ele>
        <time>2013-10-29T21:22:28.559Z</time>
      </trkpt>
      <trkpt lat="48.88658" lon="2.32253">
        <ele>93</ele>
        <time>2013-10-29T21:22:29.570Z</time>
      </trkpt>
      <trkpt lat="48.88671" lon="2.3227">
        <ele>98</ele>
        <time>2013-10-29T21:22:34.560Z</time>
      </trkpt>
      <trkpt lat="48.88674" lon="2.32275">
        <ele>96</ele>
        <time>2013-10-29T21:22:35.565Z</time>
      </trkpt>
      <trkpt lat="48.88685" lon="2.32294">
        <ele>98</ele>
        <time>2013-10-29T21:22:39.583Z</time>
      </trkpt>
      <trkpt lat="48.88688" lon="2.32299">
        <ele>100</ele>
        <time>2013-10-29T21:22:40.554Z</time>
      </trkpt>
      <trkpt lat="48.88699" lon="2.32315">
        <ele>98</ele>
        <time>2013-10-29T21:22:44.566Z</time>
      </trkpt>
      <trkpt lat="48.88703" lon="2.32318">
        <ele>98</ele>
        <time>2013-10-29T21:22:45.565Z</time>
      </trkpt>
      <trkpt lat="48.88716" lon="2.32332">
        <ele>93</ele>
        <time>2013-10-29T21:22:50.565Z</time>
      </trkpt>
      <trkpt lat="48.88719" lon="2.32335">
        <ele>96</ele>
        <time>2013-10-29T21:22:51.567Z</time>
      </trkpt>
      <trkpt lat="48.88732" lon="2.32352">
        <ele>94</ele>
        <time>2013-10-29T21:22:56.565Z</time>
      </trkpt>
      <trkpt lat="48.88735" lon="2.32356">
        <ele>94</ele>
        <time>2013-10-29T21:22:57.564Z</time>
      </trkpt>
      <trkpt lat="48.88745" lon="2.32372">
        <ele>100</ele>
        <time>2013-10-29T21:23:01.567Z</time>
      </trkpt>
      <trkpt lat="48.88747" lon="2.32376">
        <ele>101</ele>
        <time>2013-10-29T21:23:02.570Z</time>
      </trkpt>
      <trkpt lat="48.88757" lon="2.32395">
        <ele>101</ele>
        <time>2013-10-29T21:23:07.569Z</time>
      </trkpt>
      <trkpt lat="48.88759" lon="2.32398">
        <ele>102</ele>
        <time>2013-10-29T21:23:08.569Z</time>
      </trkpt>
      <trkpt lat="48.88771" lon="2.32418">
        <ele>102</ele>
        <time>2013-10-29T21:23:14.570Z</time>
      </trkpt>
      <trkpt lat="48.88773" lon="2.32422">
        <ele>100</ele>
        <time>2013-10-29T21:23:15.567Z</time>
      </trkpt>
      <trkpt lat="48.88782" lon="2.3244">
        <ele>94</ele>
        <time>2013-10-29T21:23:20.562Z</time>
      </trkpt>
      <trkpt lat="48.88784" lon="2.32444">
        <ele>93</ele>
        <time>2013-10-29T21:23:21.562Z</time>
      </trkpt>
      <trkpt lat="48.88793" lon="2.32466">
        <ele>94</ele>
        <time>2013-10-29T21:23:29.569Z</time>
      </trkpt>
      <trkpt lat="48.88794" lon="2.32468">
        <ele>95</ele>
        <time>2013-10-29T21:23:30.565Z</time>
      </trkpt>
      <trkpt lat="48.88797" lon="2.32494">
        <ele>96</ele>
        <time>2013-10-29T21:23:45.574Z</time>
      </trkpt>
      <trkpt lat="48.88796" lon="2.32496">
        <ele>94</ele>
        <time>2013-10-29T21:23:46.568Z</time>
      </trkpt>
      <trkpt lat="48.88782" lon="2.32507">
        <ele>94</ele>
        <time>2013-10-29T21:23:54.573Z</time>
      </trkpt>
      <trkpt lat="48.8878" lon="2.3251">
        <ele>96</ele>
        <time>2013-10-29T21:23:55.575Z</time>
      </trkpt>
      <trkpt lat="48.88769" lon="2.32531">
        <ele>96</ele>
        <time>2013-10-29T21:24:02.574Z</time>
      </trkpt>
      <trkpt lat="48.88769" lon="2.32534">
        <ele>95</ele>
        <time>2013-10-29T21:24:03.577Z</time>
      </trkpt>
      <trkpt lat="48.88774" lon="2.32559">
        <ele>99</ele>
        <time>2013-10-29T21:24:15.570Z</time>
      </trkpt>
      <trkpt lat="48.88774" lon="2.32559">
        <ele>97</ele>
        <time>2013-10-29T21:24:16.565Z</time>
      </trkpt>
      <trkpt lat="48.8879" lon="2.32566">
        <ele>105</ele>
        <time>2013-10-29T21:24:41.609Z</time>
      </trkpt>
      <trkpt lat="48.88792" lon="2.32568">
        <ele>103</ele>
        <time>2013-10-29T21:24:42.574Z</time>
      </trkpt>
      <trkpt lat="48.88809" lon="2.32574">
        <ele>101</ele>
        <time>2013-10-29T21:24:47.575Z</time>
      </trkpt>
      <trkpt lat="48.88813" lon="2.32574">
        <ele>100</ele>
        <time>2013-10-29T21:24:48.572Z</time>
      </trkpt>
      <trkpt lat="48.88829" lon="2.32578">
        <ele>102</ele>
        <time>2013-10-29T21:24:52.573Z</time>
      </trkpt>
      <trkpt lat="48.88834" lon="2.32579">
        <ele>101</ele>
        <time>2013-10-29T21:24:53.578Z</time>
      </trkpt>
      <trkpt lat="48.88847" lon="2.32583">
        <ele>110</ele>
        <time>2013-10-29T21:24:56.581Z</time>
      </trkpt>
      <trkpt lat="48.88852" lon="2.32585">
        <ele>112</ele>
        <time>2013-10-29T21:24:57.578Z</time>
      </trkpt>
      <trkpt lat="48.88863" lon="2.32589">
        <ele>116</ele>
        <time>2013-10-29T21:24:59.580Z</time>
      </trkpt>
      <trkpt lat="48.8887" lon="2.32592">
        <ele>117</ele>
        <time>2013-10-29T21:25:00.578Z</time>
      </trkpt>
      <trkpt lat="48.88886" lon="2.32597">
        <ele>120</ele>
        <time>2013-10-29T21:25:02.577Z</time>
      </trkpt>
      <trkpt lat="48.88894" lon="2.326">
        <ele>120</ele>
        <time>2013-10-29T21:25:03.572Z</time>
      </trkpt>
      <trkpt lat="48.88907" lon="2.32602">
        <ele>117</ele>
        <time>2013-10-29T21:25:05.575Z</time>
      </trkpt>
      <trkpt lat="48.88912" lon="2.32603">
        <ele>117</ele>
        <time>2013-10-29T21:25:06.581Z</time>
      </trkpt>
      <trkpt lat="48.88929" lon="2.32607">
        <ele>120</ele>
        <time>2013-10-29T21:25:11.584Z</time>
      </trkpt>
      <trkpt lat="48.88931" lon="2.32608">
        <ele>120</ele>
        <time>2013-10-29T21:25:12.525Z</time>
      </trkpt>
      <trkpt lat="48.88947" lon="2.32606">
        <ele>120</ele>
        <time>2013-10-29T21:25:19.579Z</time>
      </trkpt>
      <trkpt lat="48.88951" lon="2.32605">
        <ele>124</ele>
        <time>2013-10-29T21:25:20.582Z</time>
      </trkpt>
      <trkpt lat="48.88963" lon="2.32604">
        <ele>120</ele>
        <time>2013-10-29T21:25:22.581Z</time>
      </trkpt>
      <trkpt lat="48.88969" lon="2.32605">
        <ele>119</ele>
        <time>2013-10-29T21:25:23.576Z</time>
      </trkpt>
      <trkpt lat="48.88982" lon="2.32609">
        <ele>114</ele>
        <time>2013-10-29T21:25:25.577Z</time>
      </trkpt>
      <trkpt lat="48.88988" lon="2.32611">
        <ele>111</ele>
        <time>2013-10-29T21:25:26.583Z</time>
      </trkpt>
      <trkpt lat="48.89004" lon="2.32618">
        <ele>117</ele>
        <time>2013-10-29T21:25:29.581Z</time>
      </trkpt>
      <trkpt lat="48.89009" lon="2.32621">
        <ele>103</ele>
        <time>2013-10-29T21:25:30.577Z</time>
      </trkpt>
      <trkpt lat="48.89025" lon="2.32631">
        <ele>107</ele>
        <time>2013-10-29T21:25:33.576Z</time>
      </trkpt>
      <trkpt lat="48.89031" lon="2.32634">
        <ele>107</ele>
        <time>2013-10-29T21:25:34.533Z</time>
      </trkpt>
      <trkpt lat="48.89047" lon="2.3264">
        <ele>111</ele>
        <time>2013-10-29T21:25:37.581Z</time>
      </trkpt>
      <trkpt lat="48.89049" lon="2.32641">
        <ele>111</ele>
        <time>2013-10-29T21:25:38.582Z</time>
      </trkpt>
      <trkpt lat="48.89065" lon="2.32644">
        <ele>111</ele>
        <time>2013-10-29T21:25:42.633Z</time>
      </trkpt>
      <trkpt lat="48.89071" lon="2.32645">
        <ele>110</ele>
        <time>2013-10-29T21:25:43.581Z</time>
      </trkpt>
      <trkpt lat="48.89088" lon="2.32649">
        <ele>109</ele>
        <time>2013-10-29T21:25:47.581Z</time>
      </trkpt>
      <trkpt lat="48.8909" lon="2.3265">
        <ele>110</ele>
        <time>2013-10-29T21:25:48.581Z</time>
      </trkpt>
      <trkpt lat="48.89105" lon="2.32657">
        <ele>105</ele>
        <time>2013-10-29T21:25:54.581Z</time>
      </trkpt>
      <trkpt lat="48.89111" lon="2.3266">
        <ele>97</ele>
        <time>2013-10-29T21:25:55.581Z</time>
      </trkpt>
      <trkpt lat="48.89125" lon="2.32664">
        <ele>96</ele>
        <time>2013-10-29T21:25:57.591Z</time>
      </trkpt>
      <trkpt lat="48.89132" lon="2.32667">
        <ele>95</ele>
        <time>2013-10-29T21:25:58.582Z</time>
      </trkpt>
      <trkpt lat="48.89144" lon="2.32671">
        <ele>97</ele>
        <time>2013-10-29T21:26:00.583Z</time>
      </trkpt>
      <trkpt lat="48.8915" lon="2.32673">
        <ele>95</ele>
        <time>2013-10-29T21:26:01.538Z</time>
      </trkpt>
      <trkpt lat="48.89162" lon="2.32679">
        <ele>96</ele>
        <time>2013-10-29T21:26:03.586Z</time>
      </trkpt>
      <trkpt lat="48.89168" lon="2.32682">
        <ele>95</ele>
        <time>2013-10-29T21:26:04.585Z</time>
      </trkpt>
      <trkpt lat="48.89182" lon="2.32689">
        <ele>95</ele>
        <time>2013-10-29T21:26:06.537Z</time>
      </trkpt>
      <trkpt lat="48.89186" lon="2.32691">
        <ele>95</ele>
        <time>2013-10-29T21:26:07.585Z</time>
      </trkpt>
      <trkpt lat="48.89204" lon="2.32692">
        <ele>95</ele>
        <time>2013-10-29T21:26:17.582Z</time>
      </trkpt>
      <trkpt lat="48.89209" lon="2.32693">
        <ele>95</ele>
        <time>2013-10-29T21:26:18.577Z</time>
      </trkpt>
      <trkpt lat="48.8922" lon="2.32697">
        <ele>93</ele>
        <time>2013-10-29T21:26:20.582Z</time>
      </trkpt>
      <trkpt lat="48.89231" lon="2.327">
        <ele>88</ele>
        <time>2013-10-29T21:26:22.583Z</time>
      </trkpt>
      <trkpt lat="48.89248" lon="2.32702">
        <ele>92</ele>
        <time>2013-10-29T21:26:26.582Z</time>
      </trkpt>
      <trkpt lat="48.89249" lon="2.32702">
        <ele>92</ele>
        <time>2013-10-29T21:26:27.581Z</time>
      </trkpt>
      <trkpt lat="48.89251" lon="2.3268">
        <ele>87</ele>
        <time>2013-10-29T21:26:37.572Z</time>
      </trkpt>
      <trkpt lat="48.89251" lon="2.32672">
        <ele>85</ele>
        <time>2013-10-29T21:26:38.554Z</time>
      </trkpt>
      <trkpt lat="48.89251" lon="2.32647">
        <ele>90</ele>
        <time>2013-10-29T21:26:42.668Z</time>
      </trkpt>
      <trkpt lat="48.89253" lon="2.32639">
        <ele>86</ele>
        <time>2013-10-29T21:26:44.563Z</time>
      </trkpt>
      <trkpt lat="48.89255" lon="2.32634">
        <ele>92</ele>
        <time>2013-10-29T21:26:47.566Z</time>
      </trkpt>
    </trkseg>
  </trk>
</gpx>